[[{"header":{"parameterUnit":"m.s-1","parameterCategory":1,"la1":31.0,"la2":29.5877,"lo1":-88.7671,"lo2":-86.6584,"dy":0.0162,"dx":0.0185,"nx":115,"ny":88,"refTime":"2023-10-11T18:00:00:Z","depth":0,"parameterNumber":2,"parameterNumberName":"U-component_of_WINDS"},"data":[0.0,0.0,0.0,0.0,0.0,0.0,0.0,0.0,0.0,0.0,0.0,0.0,0.0,0.0,0.0,0.0,0.0,0.0,0.0,0.0,0.0,0.0,0.0,0.0,0.0,0.0,0.0,0.0,0.0,0.0,0.0,0.0,0.0,0.0,0.0,0.0,0.0,0.0,0.0,0.0,0.0,0.0,0.0,0.0,0.0,0.0,0.0,0.0,0.0,0.0,0.0,0.0,0.0,0.0,0.0,0.0,0.0,0.0,0.0,0.0,0.0,0.0,0.0,0.0,0.0,0.0,0.0,0.0,0.0,0.0,0.0,0.0,0.0,0.0,0.0,0.0,0.0,0.0,0.0,0.0,0.0,0.0,0.0,0.0,0.0,0.0,0.0,0.0,0.0,0.0,0.0,0.0,0.0,0.0,0.0,0.0,0.0,0.0,0.0,0.0,0.0,0.0,0.0,0.0,0.0,0.0,0.0,0.0,0.0,0.0,0.0,0.0,0.0,0.0,0.0,0.0,0.0,0.0,0.0,0.0,0.0,0.0,0.0,0.0,0.0,0.0,0.0,0.0,0.0,0.0,0.0,0.0,0.0,0.0,0.0,0.0,0.0,0.0,0.0,0.0,0.0,0.0,0.0,0.0,0.0,0.0,0.0,0.0,0.0,0.0,0.0,0.0,0.0,0.0,0.0,0.0,0.0,0.0,0.0,0.0,0.0,0.0,0.0,0.0,0.0,0.0,0.0,0.0,0.0,0.0,0.0,0.0,0.0,0.0,0.0,0.0,0.0,0.0,0.0,0.0,0.0,0.0,0.0,0.0,0.0,0.0,0.0,0.0,0.0,0.0,0.0,0.0,0.0,0.0,0.0,0.0,0.0,0.0,0.0,0.0,0.0,0.0,0.0,0.0,0.0,0.0,0.0,0.0,0.0,0.0,0.0,0.0,0.0,0.0,0.0,0.0,0.0,0.0,0.0,0.0,0.0,0.0,0.0,0.0,0.0,0.0,0.0,0.0,0.0,0.0,0.0,0.0,0.0,0.0,0.0,0.0,0.0,0.0,0.0,0.0,0.0,0.0,0.0,0.0,0.0,0.0,0.0,0.0,0.0,0.0,0.0,0.0,0.0,0.0,0.0,0.0,0.0,0.0,0.0,0.0,0.0,0.0,0.0,0.0,0.0,0.0,0.0,0.0,0.0,0.0,0.0,0.0,0.0,0.0,0.0,0.0,0.0,0.0,0.0,0.0,0.0,0.0,0.0,0.0,0.0,0.0,0.0,0.0,0.0,0.0,0.0,0.0,0.0,0.0,0.0,0.0,0.0,0.0,0.0,0.0,0.0,0.0,0.0,0.0,0.0,0.0,0.0,0.0,0.0,0.0,0.0,0.0,0.0,0.0,0.0,0.0,0.0,0.0,0.0,0.0,0.0,0.0,0.0,0.0,0.0,0.0,0.0,0.0,0.0,0.0,0.0,0.0,0.0,0.0,0.0,0.0,0.0,0.0,0.0,0.0,0.0,0.0,0.0,0.0,0.0,0.0,0.0,0.0,0.0,0.0,0.0,0.0,0.0,0.0,0.0,0.0,0.0,0.0,0.0,0.0,0.0,0.0,0.0,0.0,0.0,0.0,0.0,0.0,0.0,0.0,0.0,0.0,0.0,0.0,0.0,0.0,0.0,0.0,0.0,0.0,0.0,0.0,0.0,0.0,0.0,0.0,0.0,0.0,0.0,0.0,0.0,0.0,0.0,0.0,0.0,0.0,0.0,0.0,0.0,0.0,0.0,0.0,0.0,0.0,0.0,0.0,0.0,0.0,0.0,0.0,0.0,0.0,0.0,0.0,0.0,0.0,0.0,0.0,0.0,0.0,0.0,0.0,0.0,0.0,0.0,0.0,0.0,0.0,0.0,0.0,0.0,0.0,0.0,0.0,0.0,0.0,0.0,0.0,0.0,0.0,0.0,0.0,0.0,0.0,0.0,0.0,0.0,0.0,0.0,0.0,0.0,0.0,0.0,0.0,0.0,0.0,0.0,0.0,0.0,0.0,0.0,0.0,0.0,0.0,0.0,0.0,0.0,0.0,0.0,0.0,0.0,0.0,0.0,0.0,0.0,0.0,0.0,0.0,0.0,0.0,0.0,0.0,0.0,0.0,0.0,0.0,0.0,0.0,0.0,0.0,0.0,0.0,0.0,0.0,0.0,0.0,0.0,0.0,0.0,0.0,0.0,0.0,0.0,0.0,0.0,0.0,0.0,0.0,0.0,0.0,0.0,0.0,0.0,0.0,0.0,0.0,0.0,0.0,0.0,0.0,0.0,0.0,0.0,0.0,0.0,0.0,0.0,0.0,0.0,0.0,0.0,0.0,0.0,0.0,0.0,0.0,0.0,0.0,0.0,0.0,0.0,0.0,0.0,0.0,0.0,0.0,0.0,0.0,0.0,0.0,0.0,0.0,0.0,0.0,0.0,0.0,0.0,0.0,0.0,0.0,0.0,0.0,0.0,0.0,0.0,0.0,0.0,0.0,0.0,0.0,0.0,0.0,0.0,0.0,0.0,0.0,0.0,0.0,0.0,0.0,0.0,0.0,0.0,0.0,0.0,0.0,0.0,0.0,0.0,0.0,0.0,0.0,0.0,0.0,0.0,0.0,0.0,0.0,0.0,0.0,0.0,0.0,0.0,0.0,0.0,0.0,0.0,0.0,0.0,0.0,0.0,0.0,0.0,0.0,0.0,0.0,0.0,0.0,0.0,0.0,0.0,0.0,0.0,0.0,0.0,0.0,0.0,0.0,0.0,0.0,0.0,0.0,0.0,0.0,0.0,0.0,0.0,0.0,0.0,0.0,0.0,0.0,0.0,0.0,0.0,0.0,0.0,0.0,0.0,0.0,0.0,0.0,0.0,0.0,0.0,0.0,0.0,0.0,0.0,0.0,0.0,0.0,0.0,0.0,0.0,0.0,0.0,0.0,0.0,0.0,0.0,0.0,0.0,0.0,0.0,0.0,0.0,0.0,0.0,0.0,0.0,0.0,0.0,0.0,0.0,0.0,0.0,0.0,0.0,0.0,0.0,0.0,0.0,0.0,0.0,0.0,0.0,0.0,0.0,0.0,0.0,0.0,0.0,0.0,0.0,0.0,0.0,0.0,0.0,0.0,0.0,0.0,0.0,0.0,0.0,0.0,0.0,0.0,0.0,0.0,0.0,0.0,0.0,0.0,0.0,0.0,0.0,0.0,0.0,0.0,0.0,0.0,0.0,0.0,0.0,0.0,0.0,0.0,0.0,0.0,0.0,0.0,0.0,0.0,0.0,0.0,0.0,0.0,0.0,0.0,0.0,0.0,0.0,0.0,0.0,0.0,0.0,0.0,0.0,0.0,0.0,0.0,0.0,0.0,0.0,0.0,0.0,0.0,0.0,0.0,0.0,0.0,0.0,0.0,0.0,0.0,0.0,0.0,0.0,0.0,0.0,0.0,0.0,0.0,0.0,0.0,0.0,0.0,0.0,0.0,0.0,0.0,0.0,0.0,0.0,0.0,0.0,0.0,0.0,0.0,0.0,0.0,0.0,0.0,0.0,0.0,0.0,0.0,0.0,0.0,0.0,0.0,0.0,0.0,0.0,0.0,0.0,0.0,0.0,0.0,0.0,0.0,0.0,0.0,0.0,0.0,0.0,0.0,0.0,0.0,0.0,0.0,0.0,0.0,0.0,0.0,0.0,0.0,0.0,0.0,0.0,0.0,0.0,0.0,0.0,0.0,0.0,0.0,0.0,0.0,0.0,0.0,0.0,0.0,0.0,0.0,0.0,0.0,0.0,0.0,0.0,0.0,0.0,0.0,0.0,0.0,0.0,0.0,0.0,0.0,0.0,0.0,0.0,0.0,0.0,0.0,0.0,0.0,0.0,0.0,0.0,0.0,0.0,0.0,0.0,0.0,0.0,0.0,0.0,0.0,0.0,0.0,0.0,0.0,0.0,0.0,0.0,0.0,0.0,0.0,0.0,0.0,0.0,0.0,0.0,0.0,0.0,0.0,0.0,0.0,0.0,0.0,0.0,0.0,0.0,0.0,0.0,0.0,0.0,0.0,0.0,0.0,0.0,0.0,0.0,0.0,0.0,0.0,0.0,0.0,0.0,0.0,0.0,0.0,0.0,0.0,0.0,0.0,0.0,0.0,0.0,0.0,0.0,0.0,0.0,0.0,0.0,0.0,0.0,0.0,0.0,0.0,0.0,0.0,0.0,0.0,0.0,0.0,0.0,0.0,0.0,0.0,0.0,0.0,0.0,0.0,6.8123,0.0,0.0,0.0,0.0,0.0,0.0,0.0,0.0,0.0,0.0,0.0,0.0,0.0,0.0,0.0,0.0,0.0,0.0,0.0,0.0,0.0,0.0,0.0,0.0,0.0,0.0,0.0,0.0,0.0,0.0,0.0,0.0,0.0,0.0,0.0,0.0,0.0,0.0,0.0,0.0,0.0,0.0,0.0,0.0,0.0,0.0,0.0,0.0,0.0,0.0,0.0,0.0,0.0,0.0,0.0,0.0,0.0,0.0,0.0,0.0,0.0,0.0,0.0,0.0,0.0,0.0,0.0,0.0,0.0,0.0,0.0,0.0,0.0,0.0,0.0,0.0,0.0,0.0,0.0,0.0,0.0,0.0,0.0,0.0,0.0,0.0,0.0,0.0,0.0,0.0,0.0,0.0,0.0,0.0,0.0,0.0,0.0,0.0,0.0,0.0,0.0,0.0,0.0,0.0,0.0,0.0,0.0,0.0,0.0,0.0,7.0915,7.0947,7.0947,7.0645,6.9898,0.0,0.0,0.0,0.0,0.0,0.0,0.0,0.0,0.0,0.0,0.0,0.0,0.0,0.0,0.0,0.0,0.0,0.0,0.0,0.0,0.0,0.0,0.0,0.0,0.0,0.0,0.0,0.0,0.0,0.0,0.0,0.0,0.0,0.0,0.0,0.0,0.0,0.0,0.0,0.0,0.0,0.0,0.0,0.0,0.0,0.0,0.0,0.0,0.0,0.0,0.0,0.0,0.0,0.0,0.0,0.0,0.0,0.0,0.0,0.0,0.0,0.0,0.0,0.0,0.0,0.0,0.0,0.0,0.0,0.0,0.0,0.0,0.0,0.0,0.0,0.0,0.0,0.0,0.0,0.0,0.0,0.0,0.0,0.0,0.0,0.0,0.0,0.0,0.0,0.0,0.0,0.0,0.0,0.0,0.0,0.0,0.0,0.0,0.0,0.0,0.0,0.0,0.0,0.0,0.0,0.0,0.0,0.0,0.0,0.0,0.0,0.0,7.278,7.2328,7.1446,0.0,0.0,0.0,0.0,0.0,0.0,0.0,0.0,0.0,0.0,0.0,0.0,0.0,0.0,0.0,0.0,0.0,0.0,0.0,0.0,0.0,0.0,0.0,0.0,0.0,0.0,0.0,0.0,0.0,0.0,0.0,0.0,0.0,0.0,0.0,0.0,0.0,0.0,0.0,0.0,0.0,0.0,0.0,0.0,0.0,0.0,0.0,0.0,0.0,0.0,0.0,0.0,0.0,0.0,0.0,0.0,0.0,0.0,0.0,0.0,0.0,0.0,0.0,0.0,0.0,0.0,0.0,0.0,0.0,0.0,0.0,0.0,0.0,0.0,0.0,0.0,0.0,0.0,0.0,0.0,0.0,0.0,0.0,0.0,0.0,0.0,0.0,0.0,0.0,0.0,0.0,0.0,0.0,0.0,0.0,0.0,0.0,0.0,0.0,0.0,0.0,0.0,0.0,0.0,0.0,0.0,0.0,0.0,0.0,0.0,7.278,7.278,7.2811,0.0,7.1933,0.0,0.0,0.0,0.0,0.0,0.0,0.0,0.0,0.0,0.0,0.0,0.0,0.0,0.0,0.0,0.0,0.0,0.0,0.0,0.0,0.0,0.0,0.0,0.0,0.0,0.0,0.0,0.0,0.0,0.0,0.0,0.0,0.0,0.0,0.0,0.0,0.0,0.0,0.0,0.0,0.0,0.0,0.0,0.0,0.0,0.0,0.0,0.0,0.0,0.0,0.0,0.0,0.0,0.0,0.0,0.0,0.0,0.0,0.0,0.0,0.0,0.0,0.0,0.0,0.0,0.0,0.0,0.0,0.0,0.0,0.0,0.0,0.0,0.0,0.0,0.0,0.0,0.0,0.0,0.0,0.0,0.0,0.0,0.0,0.0,0.0,0.0,0.0,0.0,0.0,0.0,0.0,0.0,0.0,0.0,0.0,0.0,0.0,0.0,0.0,0.0,0.0,0.0,0.0,0.0,0.0,0.0,0.0,0.0,0.0,7.5276,7.5276,7.4486,7.3808,0.0,0.0,0.0,0.0,0.0,0.0,0.0,0.0,0.0,0.0,0.0,0.0,0.0,0.0,0.0,0.0,0.0,0.0,0.0,0.0,0.0,0.0,0.0,0.0,0.0,0.0,0.0,0.0,0.0,0.0,0.0,0.0,0.0,0.0,0.0,0.0,0.0,0.0,0.0,0.0,0.0,0.0,0.0,0.0,0.0,0.0,0.0,0.0,0.0,0.0,0.0,0.0,0.0,0.0,0.0,0.0,0.0,0.0,0.0,0.0,0.0,0.0,0.0,0.0,0.0,0.0,0.0,0.0,0.0,0.0,0.0,0.0,0.0,0.0,0.0,0.0,0.0,0.0,0.0,0.0,0.0,0.0,0.0,0.0,0.0,0.0,0.0,0.0,0.0,0.0,0.0,0.0,0.0,0.0,0.0,0.0,0.0,0.0,0.0,0.0,0.0,0.0,0.0,0.0,0.0,0.0,0.0,0.0,0.0,0.0,7.6983,7.6983,7.6951,7.5883,7.5137,7.4529,0.0,0.0,0.0,0.0,0.0,0.0,0.0,0.0,0.0,0.0,0.0,0.0,0.0,0.0,0.0,0.0,0.0,0.0,0.0,0.0,0.0,0.0,0.0,0.0,0.0,0.0,0.0,0.0,0.0,0.0,0.0,0.0,0.0,0.0,0.0,0.0,0.0,0.0,0.0,0.0,0.0,0.0,0.0,0.0,0.0,0.0,0.0,0.0,0.0,0.0,0.0,0.0,0.0,0.0,0.0,0.0,0.0,0.0,0.0,0.0,0.0,0.0,0.0,0.0,0.0,0.0,0.0,0.0,0.0,0.0,0.0,0.0,0.0,0.0,0.0,0.0,0.0,0.0,0.0,0.0,0.0,0.0,0.0,0.0,0.0,0.0,0.0,0.0,0.0,0.0,0.0,0.0,0.0,0.0,0.0,0.0,0.0,0.0,0.0,0.0,0.0,0.0,0.0,0.0,0.0,0.0,0.0,0.0,7.7014,7.7046,7.7014,7.7078,7.6707,7.6274,0.0,0.0,0.0,0.0,0.0,0.0,0.0,0.0,0.0,0.0,0.0,0.0,0.0,0.0,0.0,0.0,0.0,0.0,0.0,0.0,0.0,0.0,0.0,0.0,0.0,0.0,0.0,0.0,0.0,0.0,0.0,0.0,0.0,0.0,0.0,0.0,0.0,0.0,0.0,0.0,0.0,0.0,0.0,0.0,0.0,0.0,0.0,0.0,0.0,0.0,0.0,0.0,0.0,0.0,0.0,0.0,0.0,0.0,0.0,0.0,0.0,0.0,0.0,0.0,0.0,0.0,0.0,0.0,0.0,0.0,0.0,0.0,0.0,0.0,0.0,0.0,0.0,0.0,0.0,0.0,0.0,0.0,0.0,0.0,0.0,0.0,0.0,0.0,0.0,0.0,0.0,0.0,0.0,0.0,0.0,0.0,0.0,0.0,0.0,0.0,0.0,0.0,0.0,0.0,0.0,0.0,0.0,0.0,0.0,7.9701,7.9416,7.9129,7.9002,7.8028,7.7336,0.0,0.0,0.0,0.0,0.0,0.0,0.0,0.0,0.0,0.0,0.0,0.0,0.0,0.0,0.0,0.0,0.0,0.0,0.0,0.0,0.0,0.0,0.0,0.0,0.0,0.0,0.0,0.0,0.0,0.0,0.0,0.0,0.0,0.0,0.0,0.0,0.0,0.0,0.0,0.0,0.0,0.0,0.0,0.0,0.0,0.0,0.0,0.0,0.0,0.0,0.0,0.0,0.0,0.0,0.0,0.0,0.0,0.0,0.0,0.0,0.0,0.0,0.0,0.0,0.0,0.0,0.0,0.0,0.0,0.0,0.0,0.0,0.0,0.0,0.0,0.0,0.0,0.0,0.0,0.0,0.0,0.0,0.0,0.0,0.0,0.0,0.0,0.0,0.0,0.0,0.0,0.0,0.0,0.0,0.0,0.0,0.0,0.0,0.0,0.0,0.0,0.0,0.0,0.0,0.0,0.0,0.0,0.0,0.0,8.0798,0.0,8.0376,8.0082,7.9109,7.8574,0.0,0.0,0.0,0.0,0.0,0.0,0.0,0.0,0.0,0.0,0.0,0.0,0.0,0.0,0.0,0.0,0.0,0.0,0.0,0.0,0.0,0.0,0.0,0.0,0.0,0.0,0.0,0.0,0.0,0.0,0.0,0.0,0.0,0.0,0.0,0.0,0.0,0.0,0.0,0.0,0.0,0.0,0.0,0.0,0.0,0.0,0.0,0.0,0.0,0.0,0.0,0.0,0.0,0.0,0.0,0.0,0.0,0.0,0.0,0.0,0.0,0.0,0.0,0.0,0.0,0.0,0.0,0.0,0.0,0.0,0.0,0.0,0.0,0.0,0.0,0.0,0.0,0.0,0.0,0.0,0.0,0.0,0.0,0.0,0.0,0.0,0.0,0.0,0.0,0.0,0.0,0.0,0.0,0.0,0.0,0.0,0.0,0.0,0.0,0.0,0.0,0.0,0.0,0.0,0.0,0.0,0.0,0.0,8.0469,8.0207,8.0238,8.023,8.0175,7.9809,7.9955,0.0,0.0,0.0,0.0,0.0,0.0,0.0,0.0,0.0,0.0,0.0,0.0,0.0,0.0,0.0,0.0,0.0,0.0,0.0,0.0,0.0,0.0,0.0,0.0,0.0,0.0,0.0,0.0,0.0,0.0,0.0,0.0,0.0,0.0,0.0,0.0,0.0,0.0,0.0,0.0,0.0,0.0,0.0,0.0,0.0,0.0,0.0,0.0,0.0,0.0,0.0,0.0,0.0,0.0,0.0,0.0,0.0,0.0,0.0,0.0,0.0,0.0,0.0,0.0,0.0,0.0,0.0,0.0,0.0,0.0,0.0,0.0,0.0,0.0,0.0,0.0,0.0,0.0,0.0,0.0,0.0,0.0,0.0,0.0,0.0,0.0,0.0,0.0,0.0,0.0,0.0,0.0,0.0,0.0,0.0,0.0,0.0,0.0,0.0,0.0,0.0,0.0,0.0,0.0,0.0,0.0,0.0,0.0,0.0,8.251,8.2698,8.245,8.1709,8.0969,8.0322,0.0,0.0,0.0,0.0,0.0,0.0,0.0,0.0,0.0,0.0,0.0,0.0,0.0,0.0,0.0,0.0,0.0,0.0,0.0,0.0,0.0,0.0,0.0,0.0,0.0,0.0,0.0,0.0,0.0,0.0,0.0,0.0,0.0,0.0,0.0,0.0,0.0,0.0,0.0,0.0,0.0,0.0,0.0,0.0,0.0,0.0,0.0,0.0,0.0,0.0,0.0,0.0,0.0,0.0,0.0,0.0,0.0,0.0,0.0,0.0,0.0,0.0,0.0,0.0,0.0,0.0,0.0,0.0,0.0,0.0,0.0,0.0,0.0,0.0,0.0,0.0,0.0,0.0,0.0,0.0,0.0,0.0,0.0,0.0,0.0,0.0,0.0,0.0,0.0,0.0,0.0,0.0,0.0,0.0,0.0,0.0,0.0,0.0,0.0,0.0,0.0,0.0,0.0,0.0,0.0,0.0,0.0,0.0,0.0,8.4299,8.3572,8.2938,8.2253,8.1927,8.16,8.1418,0.0,0.0,0.0,0.0,0.0,0.0,0.0,0.0,0.0,0.0,0.0,0.0,0.0,0.0,0.0,0.0,0.0,0.0,0.0,0.0,0.0,0.0,0.0,0.0,0.0,0.0,0.0,0.0,0.0,0.0,0.0,0.0,0.0,0.0,0.0,0.0,0.0,0.0,0.0,0.0,0.0,0.0,0.0,0.0,0.0,0.0,0.0,0.0,0.0,0.0,0.0,0.0,0.0,0.0,0.0,0.0,0.0,0.0,0.0,0.0,0.0,0.0,0.0,0.0,0.0,0.0,0.0,0.0,0.0,0.0,0.0,0.0,0.0,0.0,0.0,0.0,0.0,0.0,0.0,0.0,0.0,0.0,0.0,0.0,0.0,0.0,0.0,0.0,0.0,0.0,0.0,0.0,0.0,0.0,0.0,0.0,0.0,0.0,0.0,0.0,0.0,0.0,0.0,0.0,0.0,0.0,0.0,0.0,8.5207,8.3008,8.1916,8.2062,8.2607,8.3183,0.0,0.0,0.0,0.0,0.0,0.0,0.0,0.0,0.0,0.0,0.0,0.0,0.0,0.0,0.0,0.0,0.0,0.0,0.0,0.0,0.0,0.0,0.0,0.0,0.0,0.0,0.0,0.0,0.0,0.0,0.0,0.0,0.0,0.0,0.0,0.0,0.0,0.0,0.0,0.0,0.0,0.0,0.0,0.0,0.0,0.0,0.0,0.0,0.0,0.0,0.0,0.0,0.0,0.0,0.0,0.0,0.0,0.0,0.0,0.0,0.0,0.0,0.0,0.0,0.0,0.0,0.0,0.0,0.0,0.0,0.0,0.0,0.0,0.0,0.0,0.0,0.0,0.0,0.0,0.0,0.0,0.0,0.0,0.0,0.0,0.0,0.0,0.0,0.0,0.0,0.0,0.0,0.0,0.0,0.0,0.0,0.0,0.0,0.0,0.0,0.0,0.0,0.0,0.0,0.0,0.0,0.0,0.0,0.0,8.3903,8.2753,8.2555,8.3359,8.2907,8.2664,0.0,0.0,0.0,0.0,0.0,0.0,0.0,0.0,0.0,0.0,0.0,0.0,0.0,0.0,0.0,0.0,0.0,0.0,0.0,0.0,0.0,0.0,0.0,0.0,0.0,0.0,0.0,0.0,0.0,0.0,0.0,0.0,0.0,0.0,0.0,0.0,0.0,0.0,0.0,0.0,0.0,0.0,0.0,0.0,0.0,0.0,0.0,0.0,0.0,0.0,0.0,0.0,0.0,0.0,0.0,0.0,0.0,0.0,0.0,0.0,0.0,0.0,0.0,0.0,0.0,0.0,0.0,0.0,0.0,0.0,0.0,0.0,0.0,0.0,0.0,0.0,0.0,0.0,0.0,0.0,0.0,0.0,0.0,0.0,0.0,0.0,0.0,0.0,0.0,0.0,0.0,0.0,0.0,0.0,0.0,0.0,0.0,0.0,0.0,0.0,0.0,0.0,0.0,0.0,0.0,0.0,0.0,0.0,8.5008,8.3861,8.3178,8.2705,8.2936,8.3102,8.3101,0.0,0.0,0.0,0.0,0.0,0.0,0.0,0.0,0.0,0.0,0.0,0.0,0.0,0.0,0.0,0.0,0.0,0.0,0.0,0.0,0.0,0.0,0.0,0.0,0.0,0.0,0.0,0.0,0.0,0.0,0.0,0.0,0.0,0.0,0.0,0.0,0.0,0.0,0.0,0.0,0.0,0.0,0.0,0.0,0.0,0.0,0.0,0.0,0.0,0.0,0.0,0.0,0.0,0.0,0.0,0.0,0.0,0.0,0.0,0.0,0.0,0.0,0.0,0.0,0.0,0.0,0.0,0.0,0.0,0.0,0.0,0.0,0.0,0.0,0.0,0.0,0.0,0.0,0.0,0.0,0.0,0.0,0.0,0.0,0.0,0.0,0.0,0.0,0.0,0.0,0.0,0.0,0.0,0.0,0.0,0.0,0.0,0.0,0.0,0.0,0.0,0.0,0.0,0.0,0.0,0.0,0.0,0.0,8.6216,8.4017,8.3449,8.251,8.1344,8.2931,8.3671,0.0,0.0,0.0,0.0,0.0,0.0,0.0,0.0,0.0,0.0,0.0,0.0,0.0,0.0,0.0,0.0,0.0,0.0,0.0,0.0,0.0,0.0,0.0,0.0,0.0,0.0,0.0,0.0,0.0,0.0,0.0,0.0,0.0,0.0,0.0,0.0,0.0,0.0,0.0,0.0,0.0,0.0,0.0,0.0,0.0,0.0,0.0,0.0,0.0,0.0,0.0,0.0,0.0,0.0,0.0,0.0,0.0,0.0,0.0,0.0,0.0,0.0,0.0,0.0,0.0,0.0,0.0,0.0,0.0,0.0,0.0,0.0,0.0,0.0,0.0,0.0,0.0,0.0,0.0,0.0,0.0,0.0,0.0,0.0,0.0,0.0,0.0,0.0,0.0,0.0,0.0,0.0,0.0,0.0,0.0,0.0,0.0,0.0,0.0,0.0,0.0,0.0,0.0,0.0,0.0,0.0,0.0,0.0,8.4248,8.2157,8.1403,8.0643,8.0002,8.16,8.2737,0.0,0.0,0.0,0.0,0.0,0.0,0.0,0.0,0.0,0.0,0.0,0.0,0.0,0.0,0.0,0.0,0.0,0.0,0.0,0.0,0.0,0.0,0.0,0.0,0.0,0.0,0.0,0.0,0.0,0.0,0.0,0.0,0.0,0.0,0.0,0.0,0.0,0.0,0.0,0.0,0.0,0.0,0.0,0.0,0.0,0.0,0.0,0.0,6.1181,0.0,0.0,0.0,0.0,0.0,0.0,0.0,0.0,0.0,0.0,0.0,0.0,0.0,0.0,0.0,0.0,0.0,0.0,0.0,0.0,0.0,0.0,0.0,0.0,0.0,0.0,0.0,0.0,0.0,0.0,0.0,0.0,0.0,0.0,0.0,0.0,0.0,0.0,0.0,0.0,0.0,0.0,0.0,0.0,0.0,0.0,0.0,0.0,0.0,0.0,0.0,0.0,0.0,0.0,0.0,0.0,0.0,0.0,0.0,8.341,8.1402,8.0447,7.9747,7.9408,8.078,8.1959,0.0,0.0,0.0,0.0,0.0,0.0,0.0,0.0,0.0,0.0,0.0,0.0,0.0,0.0,0.0,0.0,0.0,0.0,0.0,0.0,0.0,0.0,0.0,0.0,0.0,0.0,0.0,0.0,0.0,0.0,0.0,0.0,0.0,0.0,0.0,0.0,0.0,0.0,0.0,0.0,0.0,0.0,0.0,0.0,0.0,0.0,0.0,0.0,0.0,0.0,0.0,0.0,0.0,0.0,0.0,0.0,0.0,0.0,0.0,0.0,0.0,0.0,0.0,0.0,0.0,0.0,0.0,0.0,0.0,0.0,0.0,0.0,0.0,0.0,0.0,0.0,0.0,0.0,0.0,0.0,0.0,0.0,0.0,0.0,0.0,0.0,0.0,0.0,0.0,0.0,0.0,0.0,0.0,0.0,0.0,0.0,0.0,0.0,0.0,0.0,0.0,0.0,0.0,0.0,0.0,0.0,0.0,8.5028,8.3096,8.0874,7.9921,7.9147,7.853,8.0027,8.114,8.14,0.0,0.0,0.0,0.0,0.0,0.0,0.0,0.0,0.0,0.0,0.0,0.0,0.0,0.0,0.0,0.0,0.0,0.0,0.0,0.0,0.0,0.0,0.0,0.0,0.0,0.0,0.0,0.0,0.0,0.0,0.0,0.0,0.0,0.0,0.0,0.0,0.0,0.0,6.6386,6.6246,0.0,0.0,0.0,0.0,0.0,0.0,0.0,0.0,6.2384,0.0,0.0,0.0,0.0,0.0,0.0,0.0,0.0,0.0,0.0,0.0,0.0,0.0,0.0,0.0,0.0,0.0,0.0,0.0,0.0,0.0,0.0,0.0,0.0,0.0,0.0,0.0,0.0,0.0,0.0,0.0,0.0,0.0,0.0,0.0,0.0,0.0,0.0,0.0,0.0,0.0,0.0,0.0,0.0,0.0,0.0,0.0,0.0,0.0,0.0,0.0,0.0,0.0,0.0,0.0,0.0,8.589,8.4072,8.1785,7.9388,7.8446,7.7479,7.6494,7.7937,7.9438,8.0935,0.0,0.0,0.0,0.0,0.0,0.0,0.0,0.0,0.0,0.0,0.0,0.0,0.0,0.0,0.0,0.0,0.0,0.0,0.0,0.0,0.0,0.0,0.0,0.0,0.0,0.0,0.0,0.0,0.0,0.0,0.0,0.0,0.0,0.0,0.0,0.0,0.0,0.0,0.0,6.6949,6.6716,0.0,0.0,0.0,0.0,0.0,0.0,0.0,0.0,6.2972,0.0,0.0,0.0,0.0,0.0,0.0,0.0,0.0,0.0,0.0,0.0,0.0,0.0,0.0,0.0,0.0,0.0,0.0,0.0,0.0,0.0,0.0,0.0,0.0,0.0,0.0,0.0,0.0,0.0,0.0,0.0,0.0,0.0,0.0,0.0,0.0,0.0,0.0,0.0,0.0,0.0,0.0,0.0,0.0,0.0,0.0,0.0,0.0,0.0,0.0,0.0,0.0,0.0,0.0,0.0,8.5173,8.3102,8.0963,7.8727,7.7769,7.7149,7.726,7.8208,7.9625,0.0,0.0,0.0,0.0,0.0,0.0,0.0,0.0,0.0,0.0,0.0,0.0,0.0,0.0,0.0,0.0,0.0,0.0,0.0,0.0,0.0,0.0,0.0,0.0,0.0,0.0,0.0,0.0,0.0,0.0,0.0,0.0,0.0,0.0,0.0,0.0,0.0,0.0,0.0,0.0,6.8095,6.7832,6.7556,0.0,0.0,0.0,0.0,0.0,0.0,6.4648,6.4109,0.0,0.0,0.0,0.0,0.0,0.0,0.0,0.0,0.0,0.0,0.0,0.0,0.0,0.0,0.0,0.0,0.0,0.0,0.0,0.0,0.0,0.0,0.0,0.0,0.0,0.0,0.0,0.0,0.0,0.0,0.0,0.0,0.0,0.0,0.0,0.0,0.0,0.0,0.0,0.0,0.0,0.0,0.0,0.0,0.0,0.0,0.0,0.0,0.0,0.0,0.0,0.0,0.0,0.0,0.0,8.4742,8.2523,8.0272,7.8208,7.7235,7.7127,7.8089,7.8701,7.9932,0.0,0.0,0.0,0.0,0.0,0.0,0.0,0.0,0.0,0.0,0.0,0.0,0.0,0.0,0.0,0.0,0.0,0.0,0.0,0.0,0.0,0.0,0.0,0.0,0.0,0.0,0.0,0.0,0.0,0.0,0.0,0.0,0.0,0.0,0.0,0.0,0.0,0.0,0.0,0.0,0.0,6.8622,6.8442,6.8205,0.0,0.0,0.0,0.0,6.5909,6.5477,0.0,0.0,0.0,0.0,0.0,0.0,0.0,0.0,0.0,0.0,0.0,0.0,0.0,0.0,0.0,0.0,0.0,0.0,0.0,0.0,0.0,0.0,0.0,0.0,0.0,0.0,0.0,0.0,0.0,0.0,0.0,0.0,0.0,0.0,0.0,0.0,0.0,0.0,0.0,0.0,0.0,0.0,0.0,0.0,0.0,0.0,0.0,0.0,0.0,0.0,0.0,0.0,0.0,0.0,0.0,0.0,8.4734,8.2115,7.9475,7.7013,7.6424,7.6157,7.6357,7.7308,7.8932,0.0,0.0,0.0,0.0,0.0,0.0,0.0,0.0,0.0,0.0,0.0,0.0,0.0,0.0,0.0,0.0,0.0,0.0,0.0,0.0,0.0,0.0,0.0,0.0,0.0,0.0,0.0,0.0,0.0,0.0,0.0,0.0,0.0,0.0,0.0,0.0,0.0,0.0,0.0,0.0,0.0,6.8997,6.9406,6.8676,6.7892,0.0,0.0,6.6928,6.6439,6.6263,0.0,0.0,0.0,0.0,0.0,0.0,0.0,0.0,0.0,0.0,0.0,0.0,0.0,0.0,0.0,0.0,0.0,0.0,0.0,0.0,0.0,0.0,0.0,0.0,0.0,0.0,0.0,0.0,0.0,0.0,0.0,0.0,0.0,0.0,0.0,0.0,0.0,0.0,0.0,0.0,0.0,0.0,0.0,0.0,0.0,0.0,0.0,0.0,0.0,0.0,0.0,0.0,0.0,0.0,0.0,8.6731,8.3412,8.1678,7.9679,7.7383,7.6783,7.6656,7.7,7.7511,7.887,0.0,0.0,0.0,0.0,0.0,0.0,0.0,0.0,0.0,0.0,0.0,0.0,0.0,0.0,0.0,0.0,0.0,0.0,0.0,0.0,0.0,0.0,0.0,0.0,0.0,0.0,0.0,0.0,0.0,0.0,0.0,0.0,0.0,0.0,0.0,0.0,0.0,0.0,0.0,0.0,0.0,0.0,6.9125,6.9025,0.0,0.0,0.0,6.7439,6.7209,0.0,0.0,0.0,0.0,0.0,0.0,0.0,0.0,0.0,0.0,0.0,0.0,0.0,0.0,0.0,0.0,0.0,0.0,0.0,0.0,0.0,0.0,0.0,0.0,0.0,0.0,0.0,0.0,0.0,0.0,0.0,0.0,0.0,0.0,0.0,0.0,0.0,0.0,0.0,0.0,0.0,0.0,0.0,0.0,0.0,0.0,0.0,0.0,0.0,0.0,0.0,0.0,0.0,0.0,0.0,0.0,0.0,8.2905,8.155,7.9829,7.751,7.7104,7.6945,7.7284,7.7528,0.0,0.0,0.0,0.0,0.0,0.0,0.0,0.0,0.0,0.0,0.0,0.0,0.0,0.0,0.0,0.0,0.0,0.0,0.0,0.0,0.0,0.0,0.0,0.0,0.0,0.0,0.0,7.2723,0.0,0.0,0.0,0.0,0.0,0.0,0.0,0.0,0.0,0.0,0.0,0.0,0.0,0.0,7.08,6.9663,6.975,6.9647,0.0,0.0,6.8391,6.8413,6.7989,6.7654,0.0,0.0,0.0,0.0,0.0,0.0,0.0,0.0,0.0,0.0,0.0,0.0,0.0,0.0,0.0,0.0,0.0,0.0,0.0,0.0,0.0,0.0,0.0,0.0,0.0,0.0,0.0,0.0,0.0,0.0,0.0,0.0,0.0,0.0,0.0,0.0,0.0,0.0,0.0,0.0,0.0,0.0,0.0,0.0,0.0,0.0,0.0,0.0,0.0,0.0,0.0,0.0,0.0,0.0,8.6262,8.4051,8.1942,7.9628,7.6876,7.6901,7.674,7.6247,7.7284,7.8356,0.0,0.0,0.0,0.0,0.0,0.0,0.0,0.0,0.0,0.0,0.0,0.0,0.0,0.0,0.0,0.0,0.0,0.0,0.0,0.0,0.0,0.0,0.0,0.0,0.0,0.0,0.0,0.0,0.0,0.0,0.0,0.0,0.0,0.0,0.0,0.0,0.0,0.0,0.0,0.0,0.0,7.1654,7.1521,7.1593,7.128,0.0,7.0621,7.0401,6.9739,6.9758,6.9424,6.835,0.0,0.0,0.0,0.0,0.0,0.0,0.0,0.0,0.0,0.0,0.0,0.0,0.0,0.0,0.0,0.0,0.0,0.0,0.0,0.0,0.0,0.0,0.0,0.0,0.0,0.0,0.0,0.0,0.0,0.0,0.0,0.0,0.0,0.0,0.0,0.0,0.0,0.0,0.0,0.0,0.0,0.0,0.0,0.0,0.0,0.0,0.0,0.0,0.0,0.0,0.0,0.0,0.0,8.5674,8.3293,8.1311,7.9328,7.6987,7.6575,7.6284,7.6063,7.719,7.8292,0.0,0.0,0.0,0.0,0.0,0.0,0.0,0.0,0.0,0.0,0.0,0.0,0.0,0.0,0.0,0.0,0.0,0.0,0.0,0.0,0.0,0.0,0.0,0.0,0.0,0.0,0.0,0.0,7.1821,7.166,7.203,0.0,0.0,0.0,0.0,0.0,0.0,0.0,0.0,0.0,0.0,7.26,7.2026,7.163,0.0,0.0,7.0565,7.002,6.9509,6.9262,6.8851,6.812,6.7741,0.0,0.0,0.0,0.0,0.0,0.0,0.0,0.0,0.0,0.0,0.0,0.0,0.0,0.0,0.0,0.0,0.0,0.0,0.0,0.0,0.0,0.0,0.0,0.0,0.0,0.0,0.0,0.0,0.0,0.0,0.0,0.0,0.0,0.0,0.0,0.0,0.0,0.0,0.0,0.0,0.0,0.0,0.0,0.0,0.0,0.0,0.0,0.0,0.0,0.0,0.0,0.0,8.5469,8.2905,8.1469,7.9545,7.7362,7.6944,7.6452,7.6097,7.7067,7.7891,0.0,0.0,0.0,0.0,0.0,0.0,0.0,0.0,0.0,0.0,0.0,0.0,0.0,0.0,0.0,0.0,0.0,0.0,0.0,0.0,0.0,0.0,0.0,0.0,0.0,0.0,0.0,0.0,7.1879,7.2039,7.3002,0.0,0.0,0.0,0.0,0.0,0.0,0.0,0.0,0.0,0.0,7.2842,7.2608,7.1966,7.1512,7.1515,7.0998,7.0548,7.0228,6.9675,6.9143,6.8824,0.0,0.0,0.0,0.0,0.0,0.0,0.0,0.0,0.0,0.0,0.0,0.0,0.0,0.0,0.0,0.0,0.0,0.0,0.0,0.0,0.0,0.0,0.0,0.0,0.0,0.0,0.0,6.7926,0.0,0.0,7.0473,0.0,0.0,0.0,0.0,0.0,0.0,0.0,0.0,0.0,0.0,0.0,0.0,0.0,0.0,0.0,0.0,0.0,0.0,0.0,0.0,0.0,0.0,8.5858,8.3526,8.2389,8.065,7.8444,7.7784,7.7116,7.602,7.6631,7.6866,7.7076,0.0,0.0,0.0,0.0,0.0,0.0,0.0,0.0,0.0,0.0,0.0,0.0,0.0,0.0,0.0,0.0,0.0,0.0,0.0,0.0,0.0,0.0,0.0,0.0,0.0,0.0,7.2576,7.2435,7.3028,0.0,0.0,0.0,0.0,0.0,0.0,0.0,0.0,0.0,7.3909,7.3291,7.2891,7.3132,7.2961,7.2933,7.2696,7.2399,7.2079,7.2058,7.1314,7.0718,0.0,0.0,0.0,0.0,0.0,0.0,0.0,0.0,0.0,0.0,0.0,0.0,0.0,0.0,0.0,0.0,0.0,0.0,0.0,0.0,0.0,0.0,0.0,0.0,0.0,0.0,0.0,6.7694,6.8406,0.0,0.0,0.0,0.0,0.0,0.0,0.0,0.0,0.0,0.0,0.0,7.9854,8.1229,0.0,0.0,0.0,0.0,0.0,0.0,0.0,0.0,0.0,0.0,0.0,0.0,8.5655,8.3986,8.196,8.0069,7.8493,7.7279,7.64,7.602,7.697,7.7418,7.7472,0.0,0.0,0.0,0.0,0.0,0.0,0.0,0.0,0.0,0.0,0.0,0.0,0.0,0.0,0.0,0.0,0.0,0.0,0.0,0.0,0.0,0.0,0.0,0.0,0.0,7.437,0.0,0.0,0.0,0.0,0.0,0.0,0.0,0.0,0.0,0.0,7.4375,7.4492,7.4094,7.3854,7.3656,7.3891,7.3197,7.2736,0.0,0.0,0.0,0.0,0.0,0.0,0.0,0.0,0.0,0.0,0.0,0.0,0.0,0.0,6.5557,6.4679,6.4516,6.4266,6.3344,0.0,0.0,0.0,0.0,0.0,0.0,0.0,0.0,0.0,0.0,0.0,0.0,0.0,0.0,6.8471,6.9187,7.0071,0.0,0.0,0.0,0.0,0.0,0.0,0.0,0.0,7.6634,7.7745,7.9279,8.0443,8.188,0.0,8.4558,8.6007,0.0,0.0,0.0,0.0,0.0,0.0,0.0,0.0,8.6011,8.4715,8.2307,8.0414,7.9083,7.7479,7.6477,7.6095,7.6789,7.7314,7.7613,7.8778,8.003,0.0,0.0,0.0,0.0,0.0,0.0,0.0,0.0,0.0,0.0,0.0,0.0,0.0,0.0,0.0,0.0,0.0,0.0,0.0,0.0,0.0,0.0,0.0,7.49,0.0,0.0,0.0,0.0,0.0,0.0,0.0,0.0,0.0,7.4651,7.4765,7.4677,7.4157,7.4025,7.3922,7.4371,0.0,0.0,0.0,0.0,0.0,0.0,0.0,7.0645,7.0194,6.9887,6.9621,6.8964,6.7985,6.7052,6.6668,0.0,0.0,6.5184,6.4943,6.4923,6.4214,6.3857,6.3808,6.3246,6.3423,6.3406,0.0,0.0,0.0,0.0,6.7876,0.0,0.0,0.0,6.9104,6.9421,0.0,7.0864,0.0,0.0,0.0,0.0,7.3621,7.4236,0.0,0.0,7.656,7.7812,7.9684,7.9866,8.1128,8.3241,8.3339,8.3863,8.5057,8.7302,0.0,0.0,0.0,0.0,0.0,0.0,8.6914,8.5265,8.357,8.1926,8.0238,7.8595,7.7198,7.6071,7.6475,7.6907,7.7318,7.7991,7.909,8.084,8.1422,0.0,0.0,0.0,0.0,0.0,0.0,0.0,0.0,0.0,0.0,0.0,0.0,0.0,0.0,0.0,0.0,0.0,0.0,0.0,0.0,7.5656,0.0,0.0,0.0,0.0,0.0,0.0,0.0,0.0,0.0,7.5984,7.5818,7.4385,7.3461,7.4382,0.0,0.0,0.0,0.0,7.3395,7.3803,7.2628,7.1421,7.0979,7.0174,6.947,6.9047,0.0,0.0,6.8363,6.8263,6.7894,6.6733,6.696,6.7132,6.6331,6.5627,6.5326,6.5103,6.4482,6.415,6.4304,6.4243,6.3994,6.8732,0.0,0.0,0.0,0.0,6.9776,6.9948,7.0415,6.9988,7.0204,7.0796,7.0957,0.0,0.0,0.0,0.0,0.0,0.0,7.4929,7.6065,7.6803,7.7408,7.7686,7.9296,8.0269,8.0417,8.1649,8.2885,8.3895,8.5712,8.7146,8.7771,0.0,0.0,0.0,0.0,8.694,8.5718,8.4057,8.2549,8.1197,7.9555,7.814,7.6977,7.6364,7.6057,7.6276,7.7726,7.8572,7.9222,8.0941,0.0,0.0,0.0,0.0,0.0,0.0,0.0,0.0,0.0,0.0,0.0,0.0,0.0,0.0,0.0,0.0,0.0,0.0,0.0,7.6516,7.6428,7.6304,0.0,0.0,0.0,0.0,0.0,0.0,0.0,0.0,0.0,7.5018,7.506,7.506,0.0,0.0,7.3899,7.3978,7.3377,7.2973,7.3114,7.2387,0.0,7.1844,7.1341,7.0898,7.0777,6.9983,6.9388,6.897,6.8127,6.7303,6.6931,6.6656,6.6285,6.6035,6.5999,6.5801,6.5535,6.4975,6.4445,6.4332,6.423,6.3896,7.0906,7.0095,7.0442,7.0732,7.068,7.0662,7.1045,7.1529,7.138,7.1575,7.2089,7.192,7.2217,7.318,7.35,0.0,0.0,0.0,7.5258,7.6183,7.6677,7.6908,7.6805,7.83,7.9162,7.9172,8.0479,8.1736,8.3363,8.4553,8.555,8.6347,0.0,0.0,8.8479,8.823,8.7403,8.6375,8.4501,8.3184,8.1997,7.9899,7.8226,7.7244,7.6847,7.6637,7.6637,7.7813,7.8871,7.9314,8.0612,8.1703,0.0,0.0,0.0,0.0,0.0,0.0,0.0,0.0,0.0,0.0,0.0,8.0998,8.1125,0.0,0.0,0.0,7.8952,7.8379,7.7437,7.7265,0.0,0.0,0.0,0.0,0.0,0.0,0.0,7.6436,7.6011,7.5587,7.4776,7.5079,7.4995,7.4106,7.3999,7.3803,7.3621,0.0,7.254,7.236,7.1696,7.1095,7.0654,7.0239,6.9883,6.9446,6.8711,6.8198,6.7965,6.7112,6.667,6.6823,6.6581,6.6415,6.6737,6.6429,6.6116,6.6097,6.5437,6.4901,6.4804,6.4287,6.3761,7.3395,7.2816,7.1723,7.1141,7.1141,7.1472,7.2004,7.2357,7.2883,7.3259,7.3634,7.3312,7.3442,7.4079,7.4737,0.0,7.6024,7.5371,7.5807,7.6909,7.6419,7.6406,7.6963,7.7334,7.8185,7.9194,7.9757,8.1093,8.3213,8.3864,8.4631,8.5818,8.8186,8.8866,8.8387,8.8413,8.7958,8.6535,8.5088,8.3644,8.2451,7.9828,7.815,7.7513,7.7931,7.8163,7.8163,7.8623,7.9516,8.0401,8.0628,8.1705,8.3951,0.0,0.0,0.0,0.0,0.0,0.0,0.0,0.0,0.0,0.0,0.0,0.0,0.0,0.0,8.0761,7.9686,0.0,7.8297,7.8062,0.0,0.0,0.0,7.7247,7.6575,7.6305,7.6217,7.6393,0.0,0.0,7.4693,7.4598,7.3925,7.2745,7.3066,7.3413,7.297,7.2452,7.2036,7.1602,7.0637,6.9696,6.8857,6.815,6.7523,6.6638,6.6169,6.6245,6.6282,6.6282,6.6153,6.6568,6.6606,6.6832,6.7644,6.6645,6.5995,6.6378,6.5654,6.5146,6.5474,6.4571,6.3675,7.4663,7.4613,7.4285,7.3684,7.2919,7.3263,7.3632,7.3632,7.3816,7.3999,7.4025,7.4438,7.4865,7.5399,7.5685,7.5979,7.6508,7.6028,7.6264,7.7324,7.7238,7.7213,7.7246,7.7918,7.8314,7.9149,8.0318,8.1611,8.2623,8.4501,8.5464,8.5708,8.7269,8.7501,8.713,8.7966,8.7526,8.5942,8.5464,8.4376,8.2186,8.1079,8.0072,7.8898,7.8622,7.8484,7.8484,7.8952,7.9396,7.9861,8.0178,8.1107,8.2014,8.2498,0.0,0.0,0.0,0.0,0.0,0.0,0.0,0.0,0.0,8.1049,8.174,0.0,7.936,0.0,7.9269,7.8603,7.8535,7.8197,0.0,0.0,7.6729,7.6682,7.7313,7.6258,7.5654,7.5299,7.5299,7.4821,7.3332,7.3199,7.2899,7.1447,7.2339,7.278,7.1827,7.1289,7.0402,6.942,6.8999,6.8464,6.8064,6.7741,6.7135,6.704,6.7021,6.7135,6.7438,6.6981,6.6846,6.722,6.6793,6.6456,6.6351,6.6423,6.6142,6.616,6.5283,6.4943,6.4774,6.4699,6.4596,7.6295,7.6295,7.6499,7.6207,7.5628,7.5422,7.5399,7.5373,7.5564,7.5538,7.5424,7.5583,7.6026,7.6283,7.6656,7.697,7.7556,7.7202,7.7345,7.7936,7.8065,7.7914,7.7364,7.8156,7.8682,7.9223,8.0769,8.1992,8.296,8.4528,8.5319,8.5561,8.6537,8.6651,8.5928,8.7121,8.7367,8.6374,8.6137,8.4944,8.2726,8.2444,8.1825,8.0407,8.0109,7.9856,7.9626,7.9842,8.0226,8.0231,8.0658,8.1194,8.2123,8.2502,8.2814,0.0,0.0,0.0,0.0,0.0,0.0,0.0,0.0,0.0,0.0,0.0,7.9699,7.9947,7.9415,7.8896,7.8652,7.8441,7.7995,7.7501,7.6945,7.6457,7.6463,7.5926,7.5227,7.4414,7.4353,7.3815,7.2471,7.2127,7.1759,7.0647,7.1194,7.1234,7.0402,6.9727,6.9247,6.8119,6.7835,6.7684,6.7436,6.6696,6.6336,6.6504,6.6541,6.669,6.6793,6.6345,6.6258,6.6515,6.6111,6.6015,6.5998,6.6021,6.5988,6.5545,6.5174,6.4946,6.5053,6.4519,6.3958,7.7668,7.7668,7.8322,7.8789,7.869,7.7813,7.7279,7.7076,7.742,7.7497,7.7106,7.7054,7.7185,7.7411,7.7693,7.8183,7.8722,7.8544,7.8402,7.8517,7.8806,7.8377,7.7582,7.8535,7.9255,8.0001,8.0986,8.2447,8.4133,8.4656,8.5182,8.5711,8.6213,8.5947,8.5038,8.6659,8.7311,8.701,8.6626,8.5469,8.3784,8.3854,8.3147,8.1922,8.1945,8.1693,8.1211,8.1165,8.1224,8.1292,8.113,8.1755,8.2708,8.2826,8.3203,0.0,8.4376,0.0,0.0,0.0,0.0,0.0,0.0,0.0,0.0,8.0975,8.0372,7.9799,7.9733,7.927,7.8515,7.8134,7.7845,7.7081,7.6696,7.6216,7.4954,7.5105,7.4885,7.3347,7.3149,7.2555,7.172,7.1194,7.0392,6.9824,6.9843,6.9559,6.8568,6.8379,6.8077,6.7247,6.7097,6.6869,6.6429,6.5572,6.5432,6.5511,6.562,6.5495,6.533,6.5456,6.5433,6.5522,6.5474,6.5758,6.62,6.6038,6.55,6.557,6.4914,6.4677,6.4961,6.4351,6.3248,7.832,7.8344,7.8984,7.9681,8.0479,8.0268,7.9346,7.8125,7.8331,7.8391,7.8791,7.8803,7.923,8.0164,7.9637,7.9735,8.0246,7.9261,7.9125,7.9448,7.9153,7.8953,7.9116,7.9295,8.0087,8.1525,8.2279,8.3322,8.516,8.5808,8.6289,8.6794,8.706,8.6746,8.6649,0.0,0.0,0.0,8.6746,8.616,8.4865,8.5265,8.4709,8.3484,8.3484,0.0,8.2795,8.2749,8.2703,8.2836,8.2053,0.0,0.0,0.0,0.0,0.0,0.0,0.0,0.0,0.0,0.0,0.0,8.1198,8.1433,8.1945,8.1148,8.0315,7.9245,7.8816,7.8771,7.8746,7.7508,7.6334,7.5821,7.5131,7.454,7.4127,7.4048,7.3387,7.2378,7.2225,7.172,7.0373,7.0098,6.9843,6.8998,6.8998,6.8535,6.7503,6.7715,6.7324,6.632,6.5987,6.5627,6.5922,6.515,6.5006,6.5096,6.4948,6.4561,6.4917,6.5237,6.5558,6.5793,6.6094,6.6164,6.6084,6.5901,6.5699,6.5413,6.4933,6.428,6.3943,6.4078,6.3695,7.9587,7.9587,8.0246,8.0831,0.0,8.1834,8.1465,8.0435,7.9838,7.9747,8.005,7.9638,8.0246,8.1267,8.0821,8.0862,8.1142,8.0723,8.0296,8.0116,7.9932,7.9832,7.985,8.0119,8.0866,8.2316,8.3072,8.4339,8.5806,8.6335,8.6842,8.7106,8.7106,8.6986,8.6721,8.6721,8.6842,8.7106,8.7876,8.7519,8.6299,8.6769,8.6293,8.5022,8.4792,0.0,0.0,0.0,0.0,0.0,0.0,0.0,0.0,8.1653,0.0,8.2113,8.209,8.209,8.2555,8.2555,8.2079,8.1351,8.0334,8.0243,8.1222,8.0187,7.9492,7.8965,7.7968,7.7381,7.727,7.6364,7.556,7.5002,7.4495,7.3803,7.3206,7.289,7.2299,7.1136,7.092,7.0373,6.9273,6.9273,6.8998,6.8187,6.8169,6.7837,6.7321,6.7229,6.6824,6.5641,6.5422,6.506,6.4969,6.4751,6.4603,6.4961,6.4792,6.4487,6.4737,6.4983,6.4999,6.5256,6.5553,6.5526,6.56,6.5704,6.5482,6.5052,6.45,6.3862,6.3092,6.2914,6.3029,8.0926,8.0926,8.1578,8.1899,8.2094,8.3008,8.3026,8.2548,8.149,0.0,0.0,8.0766,8.1094,8.1984,8.1984,8.1764,8.1707,8.1901,8.1409,8.0487,8.0759,8.0797,8.0407,8.0912,8.1905,8.3101,8.4033,8.5237,8.647,8.6983,8.7299,8.7371,8.7395,8.7106,8.6625,8.6601,8.6986,8.7756,8.8694,8.8497,8.7334,8.7921,8.7459,8.617,8.578,8.5275,8.4678,8.4264,8.3622,8.3233,8.2593,8.2022,8.2022,8.136,8.1017,8.1499,8.1431,8.1592,8.207,8.232,8.1638,8.0755,7.9104,7.8838,7.9786,7.8802,7.8273,7.8665,7.7211,7.6153,7.5638,7.5373,7.4987,7.4037,7.3808,7.3268,7.1992,7.1798,7.1329,7.0013,6.9813,6.9499,6.8983,6.8705,6.8354,6.8021,6.7761,6.7688,6.7319,6.6972,6.6552,6.564,6.524,6.4764,6.4596,6.4063,6.4222,6.4558,6.4699,6.4702,6.4664,6.4676,6.4719,6.4914,6.4848,6.5053,6.5327,6.5379,6.5103,6.45,6.3913,6.3602,6.2143,6.1864,6.1864,8.1479,8.1479,8.2135,8.2872,8.3723,8.3796,8.3857,8.3708,8.2623,8.2405,8.2681,8.2681,8.3018,8.3571,8.3151,8.273,8.2801,8.1666,8.1237,8.1021,8.1028,8.1004,8.144,8.1945,8.3168,8.4643,8.4983,8.6027,8.7486,8.778,8.802,8.8405,8.8453,8.8164,8.7708,8.7683,8.7515,8.7251,8.7804,8.7591,8.6793,8.7733,8.7459,8.617,8.6101,8.5619,8.4701,8.4077,8.3499,8.343,8.2514,8.2011,8.1989,8.0467,7.9748,7.9726,7.8824,7.8582,7.9082,7.9332,7.8788,7.8221,7.7402,7.6977,7.7356,7.7598,7.7379,7.6719,7.6019,7.5901,7.6114,7.4803,7.3594,7.285,7.2024,7.1601,7.1194,7.0716,7.0468,6.9934,6.9747,6.9448,6.8868,6.8905,6.8757,6.822,6.8092,6.7721,6.6853,6.6437,6.5781,6.542,6.4782,6.4374,6.4363,6.4192,6.4071,6.4421,6.4155,6.408,6.4037,6.4501,6.4914,6.4797,6.5088,6.5293,6.5396,6.5396,6.5103,6.4207,6.3619,6.2734,6.1864,6.1271,6.0974,8.285,8.285,8.285,8.2906,8.3619,8.3937,8.4894,8.5567,8.5134,8.4365,8.3595,8.3836,8.4033,8.4299,8.4133,8.3937,8.3471,8.2984,8.2496,8.2298,8.2283,8.2244,8.2473,8.3199,8.4065,8.5523,8.6041,8.6796,8.8261,8.8044,8.802,8.8213,8.7972,8.7708,8.7467,8.7178,8.6938,8.6721,8.7223,8.701,8.6252,8.6752,8.6389,8.5343,8.5091,8.4492,8.3757,8.323,8.2565,8.2311,8.1068,8.0447,8.0425,7.9248,7.8648,7.8648,7.8155,7.8155,7.8412,7.8174,7.8023,7.7767,7.6783,7.6035,7.5845,7.5926,7.6006,7.5998,7.4919,7.4109,7.429,7.3567,7.2899,7.2051,7.1719,7.1382,7.0449,7.036,7.0008,6.9352,6.9389,6.9107,6.8843,6.8843,6.8788,6.8568,6.8104,6.7306,6.6284,6.5367,6.5066,6.4906,6.4593,6.4106,6.3984,6.3738,6.3613,6.3942,6.3865,6.3855,6.418,6.4642,6.4865,6.5088,6.5293,6.5379,6.5396,6.5103,6.45,6.3635,6.3029,6.2143,6.1567,6.0974,6.0693,8.41,8.3865,8.3537,8.349,8.3537,8.432,8.5369,8.6595,8.6595,8.5686,8.4347,8.4824,8.4993,8.4917,8.5079,8.4724,8.4088,8.3886,8.3638,8.3185,8.3185,8.3231,8.3346,8.4072,8.5074,8.6017,8.681,8.7767,8.8573,8.8164,8.7828,8.7683,8.7299,8.7058,8.6938,8.6529,8.6265,8.6192,8.6184,8.597,8.5735,8.5501,8.5253,8.4471,8.3874,8.3392,8.2863,8.2248,8.1584,8.0935,7.9914,7.9144,7.8886,7.811,7.7498,7.752,7.7732,7.7596,7.7838,7.752,7.7308,7.7046,7.6187,7.5257,7.4574,7.4393,7.48,7.5006,7.3824,7.2839,7.276,7.2614,7.2441,7.1671,7.1423,7.1055,7.0327,6.9782,6.9556,6.9064,6.91,6.9137,6.91,6.9119,6.91,6.8689,6.7495,6.6395,6.5776,6.4929,6.4138,6.4103,6.4051,6.3683,6.3153,6.3136,6.329,6.3632,6.3786,6.4112,6.4591,6.4848,6.5036,6.531,6.5379,6.5396,6.5396,6.4793,6.3913,6.3324,6.2439,6.1551,6.0974,6.0693,6.0693,8.4417,8.38,8.4228,8.4481,8.4771,8.4936,8.5077,8.5441,8.5394,8.5299,8.5134,8.638,8.6428,8.5964,8.5276,8.4877,8.4181,8.3435,8.3231,8.3231,8.3185,8.3438,8.3828,8.4581,8.5588,8.6534,8.7355,8.8102,8.8645,8.8164,8.7635,8.7227,8.713,8.6842,8.6457,8.6337,8.6096,8.5615,8.4462,8.4254,8.5171,8.4942,8.472,8.3966,8.3415,8.2886,8.2863,8.1569,8.0978,8.0622,7.982,7.9058,7.849,7.7427,7.6712,7.6712,7.5873,7.5623,7.6166,7.6082,7.5905,7.5278,7.4554,7.417,7.374,7.3567,7.3358,7.3467,7.3338,7.2886,7.2754,7.2339,7.2055,7.1258,7.0514,7.0064,7.0418,6.9944,6.9504,6.987,6.9815,6.9907,6.9815,6.9815,6.9437,6.827,6.6751,6.5647,6.5326,6.446,6.3934,6.3882,6.3392,6.3204,6.317,6.3153,6.3358,6.3666,6.4009,6.4386,6.4779,6.5122,6.5379,6.5345,6.5396,6.5396,6.5103,6.481,6.3913,6.3029,6.2439,6.1551,6.0974,6.0693,6.0693,8.5397,8.5179,8.4395,8.4666,8.5074,8.5425,8.5728,8.6511,8.684,8.6957,8.6957,8.746,8.6964,8.5369,8.5401,8.5041,8.4539,8.431,8.4058,8.4058,8.4058,8.4425,8.5114,8.5594,8.6464,8.7176,8.7949,8.8422,8.8597,8.8164,8.7467,8.6721,8.6649,8.6385,8.5928,8.6168,8.5952,8.5278,8.4836,8.4455,8.4313,8.3794,8.3139,8.2913,8.2455,8.195,8.1189,8.0403,7.9488,7.9169,7.8132,7.735,7.7089,7.6637,7.6582,7.6338,7.667,7.6569,7.6302,7.6302,7.6034,7.5228,7.4959,7.4519,7.4137,7.4044,7.3498,7.2852,7.2676,7.2576,7.2494,7.2026,7.1714,7.0908,7.0794,7.0451,7.0314,7.0083,6.9852,6.9999,7.0017,7.0035,7.0017,6.973,6.8811,6.746,6.6277,6.5762,6.5151,6.4553,6.4077,6.4026,6.3906,6.3615,6.3307,6.3358,6.3615,6.3975,6.4351,6.4728,6.5071,6.5259,6.5396,6.5396,6.5396,6.5396,6.5396,6.4223,6.3324,6.2734,6.1864,6.0974,6.0677,6.0693,6.0693,8.5861,8.5394,8.4662,8.4581,8.5091,8.5624,8.6319,8.7178,8.7552,8.7715,8.7715,8.7715,8.6876,8.5439,8.5808,8.5647,8.4861,8.4724,8.4655,8.4655,8.4655,8.4909,8.5691,8.6424,8.6926,8.7699,8.8446,8.8621,8.8453,8.8116,8.7419,8.6649,8.6529,8.6337,8.6048,8.6361,8.6287,8.5559,8.5181,8.4947,8.4274,8.3251,8.2411,8.2138,8.1634,8.0944,8.0059,7.927,7.865,7.8153,7.6827,7.6365,7.6512,7.6341,7.6446,7.6487,7.7044,7.7144,7.6326,7.6326,7.6053,7.5231,7.5251,7.4956,7.415,7.3972,7.3457,7.2623,7.218,7.1957,7.1862,7.1623,7.1265,7.0469,7.0822,7.0776,7.0201,7.0274,7.0366,7.0347,7.0439,7.0292,6.9949,6.9046,6.7868,6.682,6.6302,6.5548,6.4934,6.4677,6.442,6.4708,6.4639,6.4347,6.3598,6.3684,6.4026,6.4317,6.466,6.4916,6.531,6.5396,6.5396,6.5396,6.5396,6.5103,6.481,6.3913,6.2734,6.216,6.1567,6.0693,6.0677,6.0693,6.0081,8.5346,8.4297,8.4448,8.4884,8.5389,8.5872,8.6101,8.6406,8.6475,8.6475,8.6521,8.6498,8.617,8.6267,8.6388,8.5901,8.5343,8.493,8.4724,8.4701,8.4701,8.5185,8.5691,8.6424,8.7176,8.7699,8.8422,8.8453,8.802,8.7948,8.7611,8.7106,8.7082,8.7058,8.6962,8.701,8.6815,8.6082,8.5441,8.491,8.4581,8.3599,8.2591,8.2067,8.0921,8.0148,7.9728,7.9277,7.8646,7.8238,7.7395,7.7045,7.7459,7.702,7.6517,7.6579,7.6619,7.6387,7.588,7.5626,7.5331,7.4721,7.4505,7.4169,7.3457,7.3153,7.3086,7.2805,7.1737,7.1225,7.0716,7.0959,7.0859,7.0304,7.0384,7.0586,7.0622,7.0879,7.1154,7.1136,7.1062,7.0351,6.9515,6.8001,6.7222,6.6703,6.598,6.5637,6.5551,6.531,6.541,6.5595,6.5709,6.5127,6.4519,6.4501,6.4691,6.4931,6.5393,6.4968,6.5208,6.5396,6.5396,6.5396,6.5396,6.5103,6.45,6.3324,6.2455,6.1567,6.1271,6.0677,6.0693,6.0081,5.9485,8.5799,8.4909,8.5343,8.5734,8.5963,8.6446,8.6675,8.6698,8.702,8.7157,8.7157,8.7134,8.7157,8.7134,8.6866,8.6475,8.5895,8.5711,8.5458,8.5183,8.5647,8.5994,8.6448,8.695,8.7699,8.8197,8.8694,8.8597,8.8429,8.8405,8.814,8.7683,8.7611,8.7467,8.7227,8.6978,8.6629,8.5912,8.5697,8.4975,8.4126,8.313,8.2384,8.1487,8.0683,8.0231,7.9948,7.8917,7.842,7.8517,7.7709,7.7501,7.7687,7.7411,7.7313,7.7824,7.7329,7.6773,7.6214,7.6214,7.5536,7.472,7.4401,7.4121,7.3579,7.3434,7.3042,7.2152,7.1749,7.1267,7.1127,7.0801,7.0709,7.0476,7.0769,7.1026,7.1044,7.1154,7.1246,7.1246,7.0642,6.9984,6.9289,6.7884,6.7104,6.6947,6.6446,6.6307,6.6837,6.6715,6.661,6.6899,6.71,6.6723,6.6723,6.6207,6.6172,6.6294,6.6434,6.6319,6.6255,6.598,6.598,6.5396,6.5396,6.5103,6.4207,6.3029,6.1864,6.1271,6.0693,6.0693,6.0693,5.9783,5.9187,8.6458,8.6193,8.6698,8.6813,8.6744,8.7203,8.7318,8.7249,8.7548,8.7708,8.7708,8.7708,8.7708,8.7639,8.7341,8.702,8.6652,8.6331,8.5986,8.5665,8.6249,8.6503,8.6957,8.7521,8.8044,8.8958,8.9126,8.9199,8.9175,8.903,8.8742,8.8429,8.8261,8.7996,8.7732,8.7257,8.6905,8.6229,8.5757,8.4724,8.3839,8.2855,8.23,8.1345,8.0623,8.0074,7.9622,7.8864,7.8248,7.8374,7.7915,7.7493,7.7527,7.7957,7.7912,7.7899,7.7718,7.7153,7.6283,7.6283,7.5861,7.5039,7.4716,7.4432,7.3863,7.3578,7.2873,7.2217,7.1694,7.1534,7.1136,7.1099,7.0989,7.0934,7.1191,7.1429,7.1448,7.1558,7.1649,7.1686,7.1097,7.0121,6.9369,6.8548,6.8007,6.7485,6.7187,6.7304,6.7744,6.7708,6.7726,6.8016,6.7962,6.8216,6.818,6.8271,6.7318,6.7425,6.7442,6.7348,6.6855,6.6855,6.6272,6.5688,6.5103,6.481,6.3929,6.2455,6.1567,6.0974,6.0693,6.0693,6.0081,5.9485,5.8888,8.7203,8.7617,8.8191,8.8007,8.7639,8.8007,8.8076,8.7731,8.7731,8.7823,8.7892,8.78,8.7846,8.7731,8.7731,8.7685,8.741,8.6721,8.6544,8.6406,8.6504,8.6991,8.7381,8.7782,8.8532,8.9415,8.9944,9.0136,8.9944,8.9535,8.9271,8.9271,8.8814,8.8549,8.8621,8.7853,8.7153,8.6448,8.5462,8.4675,8.4315,8.311,8.2002,8.1626,8.0583,7.9555,7.8832,7.8811,7.8479,7.8349,7.7863,7.7445,7.7877,7.8343,7.8384,7.7288,7.7043,7.6737,7.6165,7.5859,7.5859,7.5742,7.5227,7.4594,7.4268,7.3152,7.2338,7.2103,7.183,7.1282,7.1374,7.1613,7.1649,7.1356,7.1613,7.1833,7.1906,7.2199,7.2456,7.2383,7.1734,7.1066,7.0777,6.9654,6.9074,6.8524,6.8276,6.8081,6.8069,6.7998,6.8287,6.8595,6.8883,6.9154,6.9442,7.0017,6.8847,6.827,6.7945,6.7998,6.7128,6.6855,6.6272,6.5688,6.481,6.4223,6.3341,6.1864,6.1271,6.0693,6.0693,6.0395,5.9783,5.9187,5.8289,8.7846,8.7754,8.8214,8.8409,8.8497,8.8636,8.8775,8.9006,8.9006,8.895,8.8696,8.8742,8.8535,8.8259,8.8191,8.8007,8.7685,8.7865,8.7825,8.7477,8.8066,8.8109,8.8375,8.9178,8.9429,8.9535,8.9631,8.9535,8.9247,8.9054,8.8934,8.8886,8.879,8.8446,8.7972,8.745,8.6816,8.641,8.516,8.4406,8.4079,8.2792,8.1691,8.1035,8.0022,7.9503,7.9287,7.8768,7.883,7.9239,7.9024,7.9035,7.8706,7.8101,7.7732,7.7419,7.6884,7.6597,7.6308,7.6289,7.6172,7.5957,7.5036,7.4441,7.3844,7.3031,7.227,7.2181,7.1961,7.1741,7.2034,7.2199,7.2089,7.1704,7.2034,7.2254,7.2254,7.2383,7.2456,7.2475,7.1879,7.1192,7.1048,7.0291,6.9583,6.9343,6.9349,6.9062,6.9281,6.9154,6.9442,6.973,6.973,6.9693,6.9657,6.9944,6.9406,6.8811,6.8811,6.8287,6.7418,6.6855,6.6563,6.5688,6.4517,6.3635,6.2455,6.1567,6.0974,6.0379,6.0081,5.9783,5.9485,5.8558,5.7599,8.8351,8.8305,8.8847,8.8927,8.9061,8.92,8.9363,8.9549,8.947,8.9192,8.9178,8.9201,8.904,8.8719,8.8512,8.8524,8.8511,8.8566,8.881,8.9026,8.9307,8.9139,8.9079,8.9909,8.9992,8.9607,8.968,8.9607,8.9271,8.9078,8.8982,8.8958,8.879,8.8542,8.7961,8.7232,8.671,8.6109,8.4914,8.4124,8.3455,8.2484,8.1367,8.0446,8.0133,7.9984,7.9653,7.9322,7.9384,7.9902,7.9849,7.9534,7.8971,7.7992,7.735,7.7278,7.7047,7.6758,7.6758,7.6758,7.637,7.5828,7.5191,7.4338,7.3736,7.286,7.244,7.233,7.2089,7.2199,7.2401,7.2475,7.2346,7.2126,7.2291,7.2475,7.2475,7.2475,7.2475,7.2475,7.2177,7.1879,7.149,7.1084,7.0633,7.0476,7.015,7.0042,6.9949,7.0017,7.0017,7.0017,7.0017,6.9944,6.9815,6.9852,6.9925,6.9638,6.9315,6.8541,6.7708,6.7145,6.6563,6.5086,6.3913,6.3324,6.2143,6.1271,6.0677,6.0379,5.9721,5.9187,5.8558,5.7792,5.6819,8.8742,8.9155,8.9933,8.9897,8.9549,8.9897,8.992,8.9781,8.9574,8.9293,8.9362,8.9453,8.9339,8.9155,8.8833,8.9112,8.9432,8.93,8.9542,9.039,9.0339,9.003,9.0214,9.0244,9.004,8.9728,8.9944,9.0064,8.98,8.9439,8.9463,8.9343,8.9006,8.8508,8.8138,8.7751,8.6714,8.6124,8.4655,8.3566,8.2677,8.1981,8.1366,8.0449,8.0574,8.0334,8.0222,8.0233,8.044,8.0241,7.9985,7.9376,7.8925,7.8402,7.7672,7.7129,7.7168,7.7187,7.7207,7.6934,7.6934,7.6056,7.5469,7.4585,7.3976,7.3421,7.3161,7.2901,7.2901,7.2882,7.2919,7.264,7.2603,7.2511,7.2493,7.2493,7.2475,7.2475,7.2475,7.2475,7.2475,7.2475,7.2456,7.2104,7.1684,7.1466,7.0862,7.0714,7.0274,7.0017,6.9999,6.9962,6.987,6.9687,6.9504,6.9467,6.954,6.9255,6.906,6.8415,6.7673,6.682,6.5877,6.4416,6.3519,6.2669,6.1718,6.0718,6.0126,5.9486,5.8939,5.8496,5.7807,5.667,5.5969,8.9655,8.947,9.0216,9.0409,9.0315,9.0456,9.0613,9.0571,9.0466,9.0205,9.0234,9.0326,9.0073,8.9775,9.0128,8.9956,8.9929,9.0413,9.0605,9.0815,9.1211,9.1371,9.1156,9.069,9.0209,9.004,8.9848,8.9487,8.9126,8.9102,8.9175,8.9463,8.8867,8.8508,8.8199,8.6993,8.6216,8.587,8.4625,8.3522,8.318,8.2195,8.1611,8.1506,8.0821,8.0938,8.1293,8.1468,8.0963,8.0128,7.964,7.9308,7.8462,7.8001,7.7518,7.7265,7.7246,7.7363,7.7597,7.7049,7.689,7.6883,7.5638,7.5136,7.5434,7.4837,7.4556,7.4837,7.4556,7.4238,7.4238,7.3619,7.3208,7.2933,7.2676,7.2511,7.2475,7.2475,7.2475,7.2475,7.2475,7.2475,7.2419,7.2199,7.1851,7.1356,7.0989,7.0659,7.0201,6.9944,6.9889,6.9669,6.9522,6.932,6.9174,6.9119,6.91,6.8816,6.8447,6.766,6.6952,6.5911,6.459,6.3285,6.2324,6.1736,6.0613,5.9557,5.9016,5.8878,5.7944,5.71,5.6416,5.5643,5.4752,8.9696,8.9725,9.046,9.0816,9.0625,9.1001,9.1011,9.0989,9.0999,9.0689,9.0693,9.0739,9.0827,9.0798,9.0836,9.0977,9.1212,9.1267,9.1433,9.1689,9.1683,9.1724,9.1387,9.0786,9.0473,9.0233,8.9944,8.968,8.9439,8.9343,8.9535,8.9274,8.9046,8.8548,8.7996,8.701,8.6199,8.558,8.4609,8.3761,8.3162,8.2625,8.2333,8.227,8.1581,8.148,8.1939,8.1661,8.0784,8.0354,7.9636,7.928,7.8589,7.7734,7.7539,7.7695,7.7734,7.7851,7.7437,7.7495,7.7295,7.6893,7.6054,7.6054,7.6035,7.5774,7.5774,7.5736,7.5474,7.5474,7.5173,7.4572,7.3858,7.3318,7.297,7.2676,7.2511,7.2475,7.2475,7.2475,7.2475,7.2475,7.2456,7.2089,7.1686,7.1282,7.0916,7.0512,7.0109,6.9925,6.9687,6.943,6.9174,6.8972,6.8825,6.877,6.8169,6.7886,6.7214,6.6442,6.5786,6.5088,6.3752,6.2402,6.1736,6.0745,5.9644,5.8656,5.821,5.7683,5.6692,5.5762,5.5155,5.4345,5.3472,8.9351,9.0227,9.1291,9.1267,9.1001,9.1824,9.1805,9.1091,9.0919,9.0808,9.0831,9.0762,9.1214,9.2026,9.1607,9.1862,9.3026,9.2146,9.2167,9.2115,9.2036,9.1676,9.1315,9.1098,9.0762,9.0449,9.0329,9.0209,9.0088,9.0136,9.0004,8.9546,8.9317,8.8579,8.7945,8.6997,8.6439,8.5431,8.4786,8.3931,8.3258,8.3222,8.2993,8.2717,8.2324,8.1876,8.164,8.1214,8.064,8.0414,7.9838,7.921,7.8946,7.8106,7.8027,7.8301,7.834,7.8082,7.7624,7.7941,7.7979,7.6881,7.7161,7.7085,7.6601,7.6639,7.6639,7.6958,7.6506,7.6301,7.6,7.5361,7.472,7.4005,7.3373,7.297,7.264,7.2493,7.2475,7.2475,7.2475,7.2475,7.2309,7.2053,7.1613,7.1062,7.0696,7.0292,6.9944,6.9705,6.943,6.9119,6.8862,6.8605,6.8495,6.8141,6.756,6.6996,6.6023,6.5161,6.4488,6.3723,6.3059,6.2072,6.0795,5.9517,5.8791,5.7916,5.7392,5.6451,5.5434,5.4654,5.4136,5.2877,5.2146,9.141,9.1837,9.2598,9.252,9.2435,9.2506,9.2157,9.1933,9.1405,9.1564,9.2018,9.1694,9.2073,9.2612,9.2962,9.3259,9.3121,9.298,9.2595,9.2012,9.194,9.182,9.1579,9.1291,9.1026,9.081,9.0449,9.0305,9.0305,9.0425,9.022,8.9816,8.9095,8.8557,8.7672,8.6402,8.5409,8.4809,8.4289,8.401,8.3517,8.3782,8.3871,8.3227,8.2766,8.2473,8.1744,8.0927,8.0516,8.0201,7.945,7.8985,7.8243,7.8183,7.8398,7.8515,7.8555,7.8652,7.8569,7.8387,7.8203,7.7832,7.753,7.7645,7.7947,7.789,7.8211,7.8551,7.8249,7.7549,7.6319,7.609,7.5296,7.4392,7.374,7.3336,7.2988,7.2658,7.2493,7.2475,7.2475,7.2346,7.2034,7.1668,7.1264,7.0842,7.0421,7.0017,6.9724,6.9467,6.9119,6.877,6.8495,6.8238,6.7569,6.7234,6.6409,6.5846,6.4855,6.3821,6.3165,6.2691,6.1758,6.0809,5.9537,5.8555,5.7606,5.661,5.6043,5.5107,5.4493,5.3644,5.2706,5.185,5.0819,9.2146,9.2455,9.3193,9.3158,9.2976,9.3114,9.3331,9.3173,9.2778,9.2982,9.3254,9.267,9.2999,9.3702,9.3757,9.374,9.3913,9.3482,9.2998,9.2301,9.2012,9.1844,9.182,9.1603,9.1411,9.1363,9.1171,9.1002,9.1002,9.0724,9.0405,8.9824,8.9073,8.8149,8.7376,8.6121,8.5433,8.4828,8.4238,8.4043,8.4312,8.4447,8.4064,8.3351,8.304,8.2335,8.1214,8.0577,8.0181,7.959,7.9362,7.899,7.8418,7.8633,7.8828,7.9043,7.9062,7.8841,7.8735,7.8794,7.8589,7.8499,7.8518,7.8821,7.8821,7.9123,7.9123,7.9425,7.9104,7.8518,7.7,7.6695,7.5898,7.4613,7.3905,7.3501,7.3116,7.2731,7.2475,7.2475,7.2475,7.2254,7.1906,7.1448,7.1044,7.0696,7.0054,6.965,6.943,6.9137,6.8715,6.8385,6.811,6.7611,6.6926,6.6331,6.5282,6.4455,6.3676,6.2859,6.2088,6.1313,6.0499,5.9554,5.8351,5.7389,5.6427,5.5435,5.4519,5.3981,5.3091,5.235,5.1611,5.0597,4.96,9.2813,9.298,9.3668,9.3805,9.3409,9.3986,9.4386,9.4339,9.3892,9.3869,9.4353,9.3527,9.3584,9.4382,9.4364,9.4439,9.4345,9.4057,9.3263,9.2565,9.2205,9.1988,9.1868,9.1796,9.1772,9.1844,9.1724,9.1724,9.1467,9.1049,9.0367,8.9731,8.8973,8.7879,8.6584,8.5945,8.5343,8.4845,8.4632,8.4752,8.511,8.4815,8.4257,8.304,8.2578,8.2133,8.1111,8.0511,7.9922,7.9204,7.9008,7.9062,7.9199,7.9219,7.9316,7.9687,7.9609,7.9308,7.9007,7.9367,7.9386,7.8821,7.9123,7.9726,7.9726,7.9726,7.9726,7.9726,7.9425,7.8821,7.7608,7.7191,7.6109,7.488,7.3868,7.3428,7.3098,7.2731,7.2511,7.2456,7.2328,7.2071,7.1723,7.1301,7.0934,7.0494,6.9834,6.9302,6.9082,6.8807,6.8385,6.7721,6.7447,6.6268,6.5551,6.4977,6.4246,6.328,6.2485,6.167,6.085,5.9855,5.909,5.8707,5.778,5.6563,5.565,5.4721,5.382,5.2962,5.193,5.1137,5.0389,4.9658,4.8653,9.4081,9.4513,9.4626,9.4619,9.4421,9.4447,9.441,9.4315,9.3869,9.3975,9.454,9.3947,9.4244,9.4849,9.4825,9.4778,9.4465,9.4081,9.3551,9.2806,9.2469,9.2277,9.1892,9.1844,9.1844,9.1844,9.1844,9.1587,9.1049,9.0791,9.0015,8.8973,8.8211,8.7158,8.6256,8.5388,8.5116,8.4926,8.5114,8.5364,8.5371,8.5118,8.4169,8.2882,8.2335,8.1665,8.111,8.0403,8.0182,7.9977,7.9302,7.9277,7.9492,7.957,7.9629,7.9687,7.9726,7.9425,7.9425,7.9425,7.9726,7.9425,7.9726,7.9726,7.9726,7.9726,7.9726,7.9726,7.9425,7.9123,7.7608,7.702,7.5885,7.4714,7.3648,7.3171,7.2988,7.2731,7.2456,7.2383,7.2144,7.1796,7.1393,7.0971,7.0512,7.0054,6.9485,6.8953,6.8623,6.8367,6.8073,6.7428,6.6805,6.5318,6.3875,6.3616,6.3148,6.201,6.1285,6.0553,5.9499,5.8532,5.7701,5.7242,5.6698,5.5894,5.4966,5.3674,5.3021,5.2079,5.0997,4.9907,4.9205,4.8479,4.7321,9.4489,9.4511,9.4524,9.4738,9.481,9.5014,9.5227,9.5428,9.4952,9.515,9.5348,9.487,9.4897,9.5283,9.5091,9.4826,9.4634,9.4297,9.3768,9.3119,9.2758,9.2349,9.1916,9.1844,9.1844,9.1587,9.1587,9.1049,9.0791,9.0015,8.9495,8.8712,8.7662,8.7007,8.6459,8.6148,8.5763,8.5639,8.5872,8.5714,8.5354,8.4535,8.3449,8.264,8.152,8.1173,8.0673,8.0122,7.9915,7.958,7.9596,7.9512,7.9648,7.9726,7.9726,7.9726,7.9726,7.9726,7.9726,7.9726,7.9726,7.9726,7.9726,7.9726,7.9726,7.9726,7.9726,7.9707,7.9104,7.8422,7.7001,7.6472,7.5301,7.3969,7.3263,7.3006,7.2786,7.2585,7.2401,7.2199,7.1961,7.1558,7.0989,7.0549,7.0072,6.9577,6.91,6.8623,6.8183,6.7908,6.7374,6.6455,6.5541,6.4445,6.3025,6.2421,6.192,6.1028,6.0355,5.9626,5.8575,5.7549,5.6374,5.5664,5.5212,5.4771,5.3758,5.2689,5.1809,5.1174,5.0057,4.9275,4.8304,4.7282,4.6381,9.4729,9.422,9.4674,9.484,9.4888,9.527,9.5707,9.6173,9.5812,9.5812,9.6101,9.5427,9.5211,9.5427,9.5235,9.497,9.497,9.4537,9.4105,9.3576,9.307,9.2541,9.2133,9.1892,9.1587,9.1306,9.0791,9.0532,9.0274,8.9495,8.8712,8.8188,8.7135,8.6856,8.6997,8.6417,8.6479,8.6673,8.6521,8.6232,8.4795,8.3753,8.2619,8.1806,8.0927,8.0597,8.0293,7.9989,7.9582,7.9459,7.9512,7.9707,7.9726,7.9726,7.9726,7.9726,7.9726,7.9726,7.9726,7.9726,7.9726,7.9726,7.9726,7.9726,7.9726,7.9707,7.9687,7.9328,7.8968,7.787,7.6622,7.5849,7.4609,7.3619,7.3025,7.2841,7.2585,7.2346,7.2071,7.1888,7.1741,7.1319,7.0751,7.0164,6.9705,6.9284,6.8788,6.822,6.778,6.7155,6.631,6.514,6.4286,6.3248,6.2231,6.1319,6.0834,6.0431,5.9415,5.8656,5.7579,5.6793,5.5582,5.4713,5.3617,5.3419,5.2413,5.1481,5.0893,5.022,4.9397,4.8335,4.733,4.6211,4.5307,9.4994,9.4994,9.4801,9.5091,9.4849,9.4945,9.5211,9.5235,9.5187,9.5115,9.5331,9.5115,9.5043,9.5091,9.5091,9.4994,9.497,9.4874,9.4513,9.3984,9.3551,9.3022,9.2517,9.2036,9.1378,9.1073,9.0274,9.0015,8.9755,8.8973,8.845,8.7685,8.7181,8.6878,8.7468,8.6686,8.6133,8.6664,8.6531,8.5636,8.4297,8.3187,8.2619,8.1785,8.1009,8.045,8.0535,7.9934,7.9423,7.9512,7.9668,7.9726,7.9726,7.9726,7.9726,7.9726,7.9726,7.9726,7.9726,7.9726,7.9726,7.9726,7.9726,7.9726,7.9707,7.9648,7.9531,7.918,7.828,7.7487,7.6187,7.5229,7.4089,7.3287,7.2768,7.2621,7.2419,7.2163,7.1888,7.1374,7.1154,7.0916,7.0512,6.9925,6.9339,6.8935,6.8477,6.789,6.71,6.6459,6.52,6.402,6.3038,6.2298,6.1406,6.0496,5.9962,5.9543,5.8481,5.7429,5.6636,5.5542,5.4664,5.38,5.2963,5.1781,5.1111,5.0499,4.997,4.9219,4.8051,4.7308,4.6312,4.5152,4.4282,9.4994,9.4994,9.4994,9.4994,9.4994,9.4994,9.4994,9.4994,9.4994,9.4994,9.4994,9.4994,9.4994,9.4994,9.4994,9.4994,9.4994,9.4994,9.4706,9.4321,9.3936,9.3431,9.2499,9.188,9.143,9.0556,8.9755,8.9234,8.8973,8.845,8.7949,8.7685,8.7204,8.7326,8.7918,8.7181,8.722,8.6908,8.615,8.4578,8.347,8.2619,8.1785,8.1214,8.0577,8.0193,8.0089,7.9621,7.938,7.9629,7.9726,7.9726,7.9726,7.9726,7.9726,7.9726,7.9726,7.9726,7.9726,7.9726,7.9726,7.9726,7.9726,7.9726,7.9687,7.9492,7.9316,7.9121,7.7672,7.6449,7.5827,7.4369,7.3549,7.275,7.2566,7.2346,7.2181,7.1998,7.1686,7.1099,7.0549,7.0292,6.9999,6.943,6.888,6.8513,6.8018,6.745,6.6404,6.5456,6.4169,6.2618,6.1968,6.1371,6.0517,5.9661,5.882,5.8334,5.6966,5.6196,5.5405,5.4595,5.3662,5.2685,5.1458,5.0584,5.0034,4.9455,4.8861,4.8076,4.6988,4.601,4.5317,4.4244,4.3053,9.5259,9.5284,9.4994,9.4994,9.4994,9.4994,9.4994,9.4994,9.4994,9.4994,9.4994,9.4994,9.4994,9.4994,9.5018,9.5067,9.5211,9.5067,9.4874,9.4634,9.3985,9.341,9.255,9.1671,9.103,9.0274,8.9234,8.8712,8.8473,8.7949,8.7685,8.7685,8.7135,8.7706,8.81,8.7631,8.7197,8.6985,8.5119,8.3732,8.2903,8.2356,8.15,8.0763,8.0201,8.0062,7.962,7.9443,7.9277,7.9629,7.9726,7.9726,7.9726,7.9726,7.9726,7.9726,7.9726,7.9726,7.9726,7.9726,7.9726,7.9687,7.959,7.9512,7.9492,7.9199,7.853,7.8374,7.6989,7.5713,7.4816,7.3792,7.3066,7.2566,7.2383,7.2126,7.1851,7.1576,7.1209,7.0659,7.009,6.9595,6.9247,6.8807,6.8385,6.8055,6.756,6.6716,6.5694,6.4442,6.3198,6.1656,6.1298,6.067,5.9719,5.8936,5.815,5.7118,5.6031,5.4894,5.4061,5.346,5.252,5.1538,5.0322,4.9401,4.8856,4.8297,4.775,4.7081,4.6387,4.5338,4.4332,4.3231,4.1739,9.6076,9.6076,9.5284,9.4994,9.4994,9.4994,9.4994,9.4994,9.4994,9.4994,9.4994,9.4994,9.4994,9.5018,9.5115,9.5307,9.5692,9.5235,9.5259,9.4873,9.4176,9.2931,9.2097,9.1361,9.0104,8.9113,8.8735,8.8188,8.7949,8.7949,8.7708,8.7708,8.7422,8.7774,8.7876,8.7495,8.6279,8.5872,8.4318,8.3753,8.2903,8.205,8.1214,8.0722,8.0201,8.0062,7.962,7.9165,7.9297,7.9687,7.9726,7.9726,7.9726,7.9726,7.9726,7.9726,7.9629,7.9629,7.9629,7.9687,7.9707,7.9609,7.9394,7.914,7.9121,7.875,7.8082,7.718,7.6175,7.5038,7.4163,7.3087,7.2438,7.2328,7.2089,7.1796,7.1448,7.0989,7.0622,7.0127,6.9614,6.9064,6.8587,6.8147,6.7945,6.7633,6.6808,6.5986,6.4643,6.3127,6.1962,6.1074,6.0413,5.9955,5.8859,5.8066,5.7163,5.6377,5.5009,5.3817,5.2916,5.2029,5.1289,5.0284,4.9368,4.8383,4.7664,4.707,4.6543,4.64,4.5751,4.4276,4.3003,4.1535,4.0377,9.6339,9.6602,9.6315,9.6315,9.6315,9.6315,9.6052,9.5812,9.5548,9.5284,9.4994,9.4994,9.4994,9.5091,9.5379,9.5572,9.5764,9.5061,9.5109,9.4697,9.3686,9.2827,9.2042,9.0972,8.9975,8.9223,8.8396,8.7949,8.7685,8.7708,8.7708,8.7708,8.7708,8.7797,8.7899,8.7264,8.6166,8.4968,8.4036,8.347,8.2356,8.1479,8.064,8.0106,7.9641,7.9204,7.9029,7.9165,7.9297,7.9609,7.9707,7.9726,7.9707,7.9707,7.9687,7.9648,7.9492,7.9355,7.9394,7.9512,7.9609,7.9277,7.8984,7.8711,7.8691,7.832,7.7752,7.6614,7.5479,7.468,7.368,7.2828,7.2053,7.1979,7.1778,7.1448,7.1044,7.0567,7.0054,6.9595,6.9008,6.844,6.7982,6.7523,6.7376,6.7175,6.6077,6.4969,6.3617,6.2146,6.1257,6.0207,5.9802,5.9111,5.8288,5.723,5.6486,5.5386,5.401,5.313,5.1991,5.1055,5.0255,4.9212,4.8091,4.732,4.6307,4.5598,4.5351,4.5223,4.419,4.3011,4.1473,3.9931,3.883,9.6865,9.7363,9.7624,9.7363,9.7102,9.7102,9.6578,9.61,9.61,9.5548,9.5018,9.5139,9.5235,9.5355,9.5572,9.5808,9.5659,9.5341,9.4952,9.4222,9.3352,9.2448,9.1595,9.0478,8.9678,8.8973,8.8248,8.7708,8.7708,8.7708,8.7708,8.7708,8.7754,8.7774,8.7586,8.6864,8.5701,8.4318,8.3753,8.3187,8.1785,8.0927,8.0353,7.9569,7.935,7.891,7.8753,7.8867,7.9297,7.957,7.9726,7.9726,7.9687,7.9609,7.9551,7.9394,7.918,7.8926,7.9004,7.9101,7.9219,7.8906,7.8515,7.832,7.8164,7.7596,7.6716,7.6088,7.4956,7.4177,7.3198,7.233,7.1778,7.1686,7.1301,7.0971,7.0549,7.009,6.9559,6.9045,6.8477,6.7908,6.7027,6.6552,6.5841,6.5659,6.4717,6.3673,6.2456,6.1335,6.0625,5.9865,5.9159,5.8204,5.7519,5.6349,5.5178,5.3831,5.3035,5.1994,5.0933,5.0199,4.9,4.7854,4.7017,4.5969,4.5211,4.42,4.4226,4.406,4.2937,4.1506,3.998,3.8763,3.7736,9.8194,9.817,9.8922,9.8404,9.7363,9.7102,9.6865,9.6364,9.6149,9.5621,9.5139,9.5524,9.5764,9.5788,9.5616,9.5802,9.5808,9.537,9.4908,9.4174,9.2888,9.1918,9.0952,9.0082,8.9376,8.8443,8.8053,8.7823,8.7708,8.7708,8.7708,8.7777,8.7651,8.7531,8.7045,8.5801,8.486,8.4015,8.3449,8.2619,8.1785,8.0927,8.0065,7.9589,7.8959,7.8478,7.8616,7.8633,7.9062,7.9492,7.9609,7.9609,7.9609,7.9336,7.9199,7.9082,7.8711,7.8496,7.8476,7.8496,7.8476,7.8418,7.8086,7.7851,7.746,7.6894,7.6018,7.5137,7.4159,7.3068,7.2311,7.1778,7.1521,7.1246,7.0861,7.0457,7.0035,6.954,6.899,6.8513,6.8,6.7431,6.6479,6.5568,6.4698,6.3799,6.3244,6.2138,6.1323,6.0598,5.9943,5.9273,5.8304,5.7204,5.6257,5.5046,5.3899,5.2828,5.1738,5.0644,4.9789,4.8919,4.7694,4.6701,4.5644,4.4568,4.3819,4.2808,4.2451,4.2044,4.1385,4.0002,3.8763,3.734,3.6318,9.8429,9.8947,9.918,9.8922,9.8404,9.8404,9.7885,9.6651,9.6152,9.579,9.5548,9.574,9.576,9.5683,9.5556,9.5618,9.5594,9.4816,9.4283,9.3541,9.2574,9.1676,9.0735,9.0182,8.9407,8.8925,8.8443,8.7938,8.7708,8.7708,8.7708,8.7777,8.7485,8.7225,8.6657,8.5735,8.4881,8.4015,8.3187,8.2619,8.1785,8.064,7.9777,7.9509,7.8529,7.793,7.8047,7.8301,7.8672,7.9199,7.9297,7.9316,7.9297,7.9062,7.8926,7.8691,7.8281,7.791,7.7734,7.7656,7.7773,7.7793,7.7695,7.7461,7.7363,7.6681,7.5571,7.4464,7.3527,7.2715,7.1833,7.1172,7.0897,7.0732,7.0384,6.9925,6.9467,6.8898,6.8367,6.7945,6.7468,6.6406,6.5404,6.4266,6.3136,6.2193,6.1679,6.1484,6.0777,6.0037,5.9334,5.8435,5.7437,5.6293,5.499,5.3834,5.2365,5.0972,5.0082,4.9445,4.8304,4.75,4.6357,4.5495,4.4329,4.3452,4.2118,4.1046,4.0184,3.9476,3.8736,3.8356,3.7271,3.614,3.4847,9.8688,9.9205,9.918,9.918,9.918,9.8947,9.8145,9.67,9.608,9.5692,9.5572,9.5424,9.5539,9.538,9.5299,9.5154,9.512,9.4613,9.3802,9.3292,9.2255,9.1474,9.0946,9.0303,8.9637,8.9201,8.8673,8.8168,8.7731,8.7708,8.7422,8.7386,8.7045,8.6865,8.6244,8.5414,8.46,8.3732,8.3187,8.2356,8.15,8.064,7.9489,7.92,7.843,7.7422,7.7695,7.793,7.8125,7.8672,7.8887,7.8887,7.8867,7.8711,7.8555,7.8203,7.7851,7.75,7.7305,7.7265,7.7422,7.7539,7.7305,7.7207,7.6545,7.5825,7.4775,7.3963,7.2878,7.1959,7.1026,7.0622,7.0347,7.0182,6.9797,6.9339,6.888,6.833,6.7871,6.745,6.6808,6.5441,6.4104,6.2958,6.1838,6.0974,5.9886,6.0008,5.9847,5.9077,5.8328,5.7434,5.6459,5.5044,5.3781,5.2398,5.0937,4.9447,4.8563,4.796,4.6868,4.5828,4.4931,4.3942,4.2687,4.1497,4.0396,3.9292,3.8301,3.7103,3.6266,3.5944,3.568,3.4741,3.347,9.918,9.918,9.918,9.918,9.8922,9.8429,9.7388,9.6149,9.5838,9.5524,9.5115,9.4864,9.5119,9.5227,9.4753,9.447,9.4614,9.4753,9.3893,9.3153,9.2323,9.1864,9.1244,9.051,8.9844,8.9247,8.8742,8.8328,8.7777,8.7708,8.7422,8.6833,8.6799,8.6639,8.5696,8.4858,8.4233,8.3753,8.2619,8.2071,8.15,8.0353,7.9777,7.8911,7.81,7.7675,7.7597,7.7754,7.7988,7.8281,7.8457,7.8457,7.832,7.8047,7.791,7.7695,7.7402,7.7285,7.7187,7.7168,7.709,7.7148,7.707,7.6506,7.5825,7.4934,7.3736,7.2909,7.2066,7.1151,7.0531,7.0145,6.9797,6.9485,6.9119,6.8715,6.8293,6.7835,6.7395,6.6863,6.5894,6.4858,6.326,6.2067,6.0763,5.9591,5.8808,5.8444,5.8495,5.8131,5.716,5.6308,5.5063,5.3757,5.232,5.0695,4.9241,4.8024,4.6993,4.6168,4.5329,4.4329,4.3295,4.2203,4.0732,3.954,3.8301,3.7044,3.6056,3.5185,3.4223,3.4178,3.4031,3.339,3.2173,9.918,9.918,9.918,9.8947,9.8429,9.7151,9.6339,9.6173,9.5838,9.54,9.4769,9.5047,9.4908,9.4376,9.417,9.401,9.4055,9.3936,9.366,9.2966,9.2484,9.1956,9.1405,9.0785,9.0027,8.943,8.8948,8.8512,8.7892,8.7708,8.6916,8.6256,8.6552,8.6096,8.5443,8.4408,8.4147,8.3753,8.2619,8.2071,8.15,8.0353,7.9777,7.92,7.8061,7.7324,7.7383,7.7422,7.7656,7.791,7.7988,7.8008,7.7988,7.7871,7.7754,7.7402,7.7246,7.7187,7.7129,7.6875,7.6699,7.6331,7.5867,7.5616,7.5015,7.3933,7.2628,7.175,7.0838,7.0164,6.9797,6.9449,6.9174,6.8898,6.8532,6.8128,6.7725,6.7303,6.6845,6.5858,6.5182,6.3635,6.2067,6.1044,5.9766,5.8567,5.7756,5.7343,5.6999,5.6397,5.5861,5.5031,5.3827,5.2577,5.0902,4.9298,4.7837,4.6406,4.5586,4.4684,4.3427,4.2402,4.1632,4.0418,3.8815,3.7322,3.6126,3.5162,3.4502,3.364,3.2727,3.2672,3.2362,3.1481,3.0362,9.918,9.918,9.918,9.8688,9.7674,9.6847,9.6392,9.5887,9.5427,9.4674,9.4453,9.4388,9.4113,9.3731,9.3686,9.3801,9.3678,9.3701,9.354,9.3265,9.253,9.214,9.1635,9.1038,9.028,8.9706,8.9201,8.8765,8.8076,8.7731,8.6894,8.5922,8.6552,8.6118,8.5124,8.4344,8.3951,8.347,8.2619,8.2071,8.1214,8.0353,7.9777,7.92,7.8061,7.7479,7.7187,7.7187,7.7363,7.7539,7.7578,7.7578,7.7578,7.7558,7.7519,7.7187,7.6972,7.6914,7.6797,7.6484,7.602,7.5518,7.4594,7.3942,7.3365,7.2674,7.1723,7.0813,7.0083,6.9394,6.9027,6.8697,6.8532,6.8367,6.7963,6.756,6.7156,6.6753,6.584,6.4858,6.3599,6.2085,6.0973,5.9731,5.8724,5.7466,5.6628,5.5961,5.567,5.5171,5.4671,5.391,5.2695,5.1209,4.9539,4.7825,4.6374,4.5159,4.3949,4.3045,4.1791,4.0678,3.9564,3.7963,3.6594,3.5434,3.4335,3.345,3.285,3.1752,3.0586,2.9889,2.9589,2.9141,2.8037,9.918,9.918,9.923,9.8294,9.7299,9.6998,9.6419,9.5788,9.4626,9.4072,9.3971,9.3044,9.3103,9.3362,9.3222,9.3614,9.3632,9.3701,9.3701,9.3632,9.2645,9.214,9.1841,9.1221,9.0441,8.9913,8.9407,8.8833,8.8328,8.7674,8.6916,8.5633,8.6552,8.6207,8.5015,8.4408,8.3993,8.3732,8.2619,8.1785,8.15,8.064,7.9489,7.92,7.8351,7.7187,7.7187,7.7187,7.7187,7.7207,7.7207,7.7246,7.7246,7.7246,7.7207,7.7031,7.6758,7.6582,7.6387,7.6055,7.5305,7.4689,7.3369,7.2646,7.2035,7.1313,7.0369,6.9899,6.9247,6.8733,6.8312,6.8055,6.7871,6.7615,6.7266,6.6826,6.6368,6.5566,6.4604,6.3684,6.2349,6.0867,5.98,5.8828,5.7622,5.634,5.5237,5.4577,5.3984,5.3521,5.3105,5.2395,5.0977,4.9485,4.7996,4.6296,4.4898,4.3694,4.2754,4.152,4.0343,3.8827,3.7239,3.5951,3.4932,3.3739,3.2861,3.2027,3.0749,2.954,2.8139,2.6911,2.6407,2.6266,2.5545,9.918,9.923,9.8592,9.7938,9.751,9.6878,9.6144,9.558,9.4648,9.4305,9.4127,9.3727,9.3477,9.3061,9.3242,9.3609,9.3655,9.3724,9.3724,9.3403,9.2668,9.2209,9.2002,9.1198,9.051,8.9958,8.9407,8.8765,8.8076,8.7513,8.6939,8.5967,8.6529,8.6207,8.4927,8.4387,8.3993,8.4015,8.2619,8.1785,8.15,8.0927,8.0045,7.9489,7.8621,7.777,7.7479,7.7187,7.7187,7.7207,7.7207,7.7207,7.7207,7.7187,7.6992,7.6719,7.6504,7.6269,7.5957,7.5605,7.4781,7.394,7.2665,7.1812,7.0982,6.9851,6.9347,6.8935,6.8642,6.8092,6.7651,6.7431,6.7175,6.69,6.6569,6.6074,6.5561,6.4313,6.3358,6.2081,6.0796,5.973,5.8671,5.7707,5.6495,5.5342,5.3944,5.3191,5.2254,5.1478,5.1127,5.0422,4.9199,4.7748,4.6285,4.5112,4.3751,4.2635,4.1482,4.0218,3.8888,3.7084,3.5353,3.429,3.3372,3.2377,3.1235,3.0012,2.8763,2.7532,2.5932,2.4809,2.3216,2.2539,2.2105,9.9072,9.8828,9.8036,9.7632,9.7389,9.6822,9.6128,9.5631,9.4997,9.454,9.4516,9.3802,9.3291,9.3081,9.3494,9.3724,9.3724,9.3724,9.3724,9.3425,9.2783,9.2323,9.1795,9.1221,9.0762,9.0188,8.9476,8.8765,8.7892,8.7708,8.7204,8.6012,8.6484,8.6229,8.4993,8.4322,8.4015,8.4015,8.2619,8.1785,8.1785,8.0927,8.062,7.9777,7.8911,7.8331,7.777,7.7479,7.7187,7.7187,7.7187,7.6992,7.6933,7.6836,7.6621,7.6289,7.6015,7.584,7.5488,7.4814,7.3878,7.3023,7.1623,7.0345,6.9578,6.8739,6.8165,6.8018,6.7853,6.7358,6.7065,6.6808,6.6588,6.6331,6.5386,6.4644,6.3671,6.2649,6.1676,6.0849,5.973,5.8498,5.7518,5.6682,5.5225,5.3697,5.2598,5.1762,5.0784,4.9466,4.8863,4.8209,4.7221,4.6342,4.53,4.4104,4.2913,4.1546,4.0142,3.8279,3.6472,3.4909,3.3514,3.2806,3.1722,3.0698,2.9626,2.8268,2.7038,2.5579,2.4068,2.2812,2.1019,1.923,1.8489,9.9138,9.895,9.8094,9.7803,9.7655,9.6735,9.6403,9.62,9.5194,9.48,9.445,9.3545,9.3127,9.3242,9.3471,9.3632,9.3724,9.3724,9.3724,9.3448,9.2645,9.2323,9.1841,9.1244,9.0762,9.0234,8.9591,8.9031,8.8179,8.7777,8.7226,8.6057,8.6081,8.6229,8.5124,8.4301,8.4015,8.3753,8.2619,8.2071,8.15,8.1214,8.0927,8.0065,7.9469,7.8621,7.8041,7.7691,7.742,7.7012,7.6933,7.6699,7.6543,7.6406,7.6152,7.584,7.541,7.5195,7.4883,7.3793,7.2659,7.1733,7.0213,6.8965,6.8242,6.7651,6.7358,6.7101,6.6936,6.679,6.6478,6.5913,6.5693,6.531,6.4336,6.335,6.2296,6.1005,6.0183,5.9417,5.824,5.7005,5.6087,5.5277,5.3884,5.2371,5.1378,5.0595,4.9435,4.7787,4.6637,4.6194,4.5203,4.4388,4.3872,4.2726,4.1465,4.0021,3.8509,3.6296,3.4403,3.3305,3.2311,3.1235,3.0357,2.9196,2.7977,2.6654,2.5185,2.351,2.1855,2.0184,1.835,1.6614,1.509,9.965,9.9216,9.8534,9.8262,9.7856,9.7154,9.665,9.6097,9.5079,9.4566,9.3982,9.3959,9.3586,9.3586,9.3632,9.3724,9.3724,9.3724,9.3724,9.354,9.2645,9.2323,9.2186,9.1472,9.1098,9.059,9.0082,8.9192,8.8858,8.8225,8.6939,8.57,8.6596,8.6251,8.5015,8.4258,8.4015,8.347,8.2619,8.1785,8.1785,8.15,8.1214,8.064,8.0332,7.9469,7.8542,7.7955,7.7258,7.6832,7.6367,7.6172,7.6015,7.5918,7.5664,7.5273,7.4844,7.4551,7.3899,7.2893,7.1804,7.1017,6.9578,6.852,6.7671,6.6918,6.6588,6.6221,6.6093,6.6148,6.562,6.5004,6.4444,6.3544,6.251,6.1729,6.081,5.938,5.8376,5.7484,5.6477,5.5109,5.387,5.3139,5.1959,5.0529,4.8973,4.8165,4.7207,4.5948,4.4477,4.4037,4.3331,4.301,4.2511,4.1139,3.9933,3.8493,3.7133,3.4921,3.3338,3.2137,3.1203,3.0069,2.8954,2.7837,2.6452,2.4813,2.2975,2.1152,1.9079,1.7411,1.5621,1.41,1.2854]},{"header":{"parameterUnit":"m.s-1","parameterCategory":1,"la1":31.0,"la2":29.5877,"lo1":-88.7671,"lo2":-86.6584,"dy":0.0162,"dx":0.0185,"nx":115,"ny":88,"refTime":"2023-10-11T18:00:00:Z","depth":0,"parameterNumber":3,"parameterNumberName":"V-component_of_WINDS"},"data":[0.0,0.0,0.0,0.0,0.0,0.0,0.0,0.0,0.0,0.0,0.0,0.0,0.0,0.0,0.0,0.0,0.0,0.0,0.0,0.0,0.0,0.0,0.0,0.0,0.0,0.0,0.0,0.0,0.0,0.0,0.0,0.0,0.0,0.0,0.0,0.0,0.0,0.0,0.0,0.0,0.0,0.0,0.0,0.0,0.0,0.0,0.0,0.0,0.0,0.0,0.0,0.0,0.0,0.0,0.0,0.0,0.0,0.0,0.0,0.0,0.0,0.0,0.0,0.0,0.0,0.0,0.0,0.0,0.0,0.0,0.0,0.0,0.0,0.0,0.0,0.0,0.0,0.0,0.0,0.0,0.0,0.0,0.0,0.0,0.0,0.0,0.0,0.0,0.0,0.0,0.0,0.0,0.0,0.0,0.0,0.0,0.0,0.0,0.0,0.0,0.0,0.0,0.0,0.0,0.0,0.0,0.0,0.0,0.0,0.0,0.0,0.0,0.0,0.0,0.0,0.0,0.0,0.0,0.0,0.0,0.0,0.0,0.0,0.0,0.0,0.0,0.0,0.0,0.0,0.0,0.0,0.0,0.0,0.0,0.0,0.0,0.0,0.0,0.0,0.0,0.0,0.0,0.0,0.0,0.0,0.0,0.0,0.0,0.0,0.0,0.0,0.0,0.0,0.0,0.0,0.0,0.0,0.0,0.0,0.0,0.0,0.0,0.0,0.0,0.0,0.0,0.0,0.0,0.0,0.0,0.0,0.0,0.0,0.0,0.0,0.0,0.0,0.0,0.0,0.0,0.0,0.0,0.0,0.0,0.0,0.0,0.0,0.0,0.0,0.0,0.0,0.0,0.0,0.0,0.0,0.0,0.0,0.0,0.0,0.0,0.0,0.0,0.0,0.0,0.0,0.0,0.0,0.0,0.0,0.0,0.0,0.0,0.0,0.0,0.0,0.0,0.0,0.0,0.0,0.0,0.0,0.0,0.0,0.0,0.0,0.0,0.0,0.0,0.0,0.0,0.0,0.0,0.0,0.0,0.0,0.0,0.0,0.0,0.0,0.0,0.0,0.0,0.0,0.0,0.0,0.0,0.0,0.0,0.0,0.0,0.0,0.0,0.0,0.0,0.0,0.0,0.0,0.0,0.0,0.0,0.0,0.0,0.0,0.0,0.0,0.0,0.0,0.0,0.0,0.0,0.0,0.0,0.0,0.0,0.0,0.0,0.0,0.0,0.0,0.0,0.0,0.0,0.0,0.0,0.0,0.0,0.0,0.0,0.0,0.0,0.0,0.0,0.0,0.0,0.0,0.0,0.0,0.0,0.0,0.0,0.0,0.0,0.0,0.0,0.0,0.0,0.0,0.0,0.0,0.0,0.0,0.0,0.0,0.0,0.0,0.0,0.0,0.0,0.0,0.0,0.0,0.0,0.0,0.0,0.0,0.0,0.0,0.0,0.0,0.0,0.0,0.0,0.0,0.0,0.0,0.0,0.0,0.0,0.0,0.0,0.0,0.0,0.0,0.0,0.0,0.0,0.0,0.0,0.0,0.0,0.0,0.0,0.0,0.0,0.0,0.0,0.0,0.0,0.0,0.0,0.0,0.0,0.0,0.0,0.0,0.0,0.0,0.0,0.0,0.0,0.0,0.0,0.0,0.0,0.0,0.0,0.0,0.0,0.0,0.0,0.0,0.0,0.0,0.0,0.0,0.0,0.0,0.0,0.0,0.0,0.0,0.0,0.0,0.0,0.0,0.0,0.0,0.0,0.0,0.0,0.0,0.0,0.0,0.0,0.0,0.0,0.0,0.0,0.0,0.0,0.0,0.0,0.0,0.0,0.0,0.0,0.0,0.0,0.0,0.0,0.0,0.0,0.0,0.0,0.0,0.0,0.0,0.0,0.0,0.0,0.0,0.0,0.0,0.0,0.0,0.0,0.0,0.0,0.0,0.0,0.0,0.0,0.0,0.0,0.0,0.0,0.0,0.0,0.0,0.0,0.0,0.0,0.0,0.0,0.0,0.0,0.0,0.0,0.0,0.0,0.0,0.0,0.0,0.0,0.0,0.0,0.0,0.0,0.0,0.0,0.0,0.0,0.0,0.0,0.0,0.0,0.0,0.0,0.0,0.0,0.0,0.0,0.0,0.0,0.0,0.0,0.0,0.0,0.0,0.0,0.0,0.0,0.0,0.0,0.0,0.0,0.0,0.0,0.0,0.0,0.0,0.0,0.0,0.0,0.0,0.0,0.0,0.0,0.0,0.0,0.0,0.0,0.0,0.0,0.0,0.0,0.0,0.0,0.0,0.0,0.0,0.0,0.0,0.0,0.0,0.0,0.0,0.0,0.0,0.0,0.0,0.0,0.0,0.0,0.0,0.0,0.0,0.0,0.0,0.0,0.0,0.0,0.0,0.0,0.0,0.0,0.0,0.0,0.0,0.0,0.0,0.0,0.0,0.0,0.0,0.0,0.0,0.0,0.0,0.0,0.0,0.0,0.0,0.0,0.0,0.0,0.0,0.0,0.0,0.0,0.0,0.0,0.0,0.0,0.0,0.0,0.0,0.0,0.0,0.0,0.0,0.0,0.0,0.0,0.0,0.0,0.0,0.0,0.0,0.0,0.0,0.0,0.0,0.0,0.0,0.0,0.0,0.0,0.0,0.0,0.0,0.0,0.0,0.0,0.0,0.0,0.0,0.0,0.0,0.0,0.0,0.0,0.0,0.0,0.0,0.0,0.0,0.0,0.0,0.0,0.0,0.0,0.0,0.0,0.0,0.0,0.0,0.0,0.0,0.0,0.0,0.0,0.0,0.0,0.0,0.0,0.0,0.0,0.0,0.0,0.0,0.0,0.0,0.0,0.0,0.0,0.0,0.0,0.0,0.0,0.0,0.0,0.0,0.0,0.0,0.0,0.0,0.0,0.0,0.0,0.0,0.0,0.0,0.0,0.0,0.0,0.0,0.0,0.0,0.0,0.0,0.0,0.0,0.0,0.0,0.0,0.0,0.0,0.0,0.0,0.0,0.0,0.0,0.0,0.0,0.0,0.0,0.0,0.0,0.0,0.0,0.0,0.0,0.0,0.0,0.0,0.0,0.0,0.0,0.0,0.0,0.0,0.0,0.0,0.0,0.0,0.0,0.0,0.0,0.0,0.0,0.0,0.0,0.0,0.0,0.0,0.0,0.0,0.0,0.0,0.0,0.0,0.0,0.0,0.0,0.0,0.0,0.0,0.0,0.0,0.0,0.0,0.0,0.0,0.0,0.0,0.0,0.0,0.0,0.0,0.0,0.0,0.0,0.0,0.0,0.0,0.0,0.0,0.0,0.0,0.0,0.0,0.0,0.0,0.0,0.0,0.0,0.0,0.0,0.0,0.0,0.0,0.0,0.0,0.0,0.0,0.0,0.0,0.0,0.0,0.0,0.0,0.0,0.0,0.0,0.0,0.0,0.0,0.0,0.0,0.0,0.0,0.0,0.0,0.0,0.0,0.0,0.0,0.0,0.0,0.0,0.0,0.0,0.0,0.0,0.0,0.0,0.0,0.0,0.0,0.0,0.0,0.0,0.0,0.0,0.0,0.0,0.0,0.0,0.0,0.0,0.0,0.0,0.0,0.0,0.0,0.0,0.0,0.0,0.0,0.0,0.0,0.0,0.0,0.0,0.0,0.0,0.0,0.0,0.0,0.0,0.0,0.0,0.0,0.0,0.0,0.0,0.0,0.0,0.0,0.0,0.0,0.0,0.0,0.0,0.0,0.0,0.0,0.0,0.0,0.0,0.0,0.0,0.0,0.0,0.0,0.0,0.0,0.0,0.0,0.0,0.0,0.0,0.0,0.0,0.0,0.0,0.0,0.0,0.0,0.0,0.0,0.0,0.0,0.0,0.0,0.0,0.0,0.0,0.0,0.0,0.0,0.0,0.0,0.0,0.0,0.0,0.0,0.0,0.0,0.0,0.0,0.0,0.0,0.0,0.0,0.0,0.0,0.0,0.0,0.0,0.0,0.0,0.0,0.0,0.0,0.0,0.0,0.0,0.0,0.0,0.0,0.0,0.0,0.0,0.0,0.0,0.0,0.0,0.0,0.0,0.0,0.0,0.0,0.0,0.0,0.0,0.0,0.0,0.0,0.0,0.0,0.0,0.0,0.0,0.0,0.0,0.0,0.0,0.0,0.0,0.0,0.0,0.0,0.0,0.0,0.0,0.0,0.0,0.0,0.0,0.0,0.0,0.0,0.0,0.0,0.0,0.0,0.0,0.0,0.0,0.0,0.0,0.0,0.0,0.0,5.0639,0.0,0.0,0.0,0.0,0.0,0.0,0.0,0.0,0.0,0.0,0.0,0.0,0.0,0.0,0.0,0.0,0.0,0.0,0.0,0.0,0.0,0.0,0.0,0.0,0.0,0.0,0.0,0.0,0.0,0.0,0.0,0.0,0.0,0.0,0.0,0.0,0.0,0.0,0.0,0.0,0.0,0.0,0.0,0.0,0.0,0.0,0.0,0.0,0.0,0.0,0.0,0.0,0.0,0.0,0.0,0.0,0.0,0.0,0.0,0.0,0.0,0.0,0.0,0.0,0.0,0.0,0.0,0.0,0.0,0.0,0.0,0.0,0.0,0.0,0.0,0.0,0.0,0.0,0.0,0.0,0.0,0.0,0.0,0.0,0.0,0.0,0.0,0.0,0.0,0.0,0.0,0.0,0.0,0.0,0.0,0.0,0.0,0.0,0.0,0.0,0.0,0.0,0.0,0.0,0.0,0.0,0.0,0.0,0.0,0.0,5.1523,5.1546,5.1546,5.1562,5.1722,0.0,0.0,0.0,0.0,0.0,0.0,0.0,0.0,0.0,0.0,0.0,0.0,0.0,0.0,0.0,0.0,0.0,0.0,0.0,0.0,0.0,0.0,0.0,0.0,0.0,0.0,0.0,0.0,0.0,0.0,0.0,0.0,0.0,0.0,0.0,0.0,0.0,0.0,0.0,0.0,0.0,0.0,0.0,0.0,0.0,0.0,0.0,0.0,0.0,0.0,0.0,0.0,0.0,0.0,0.0,0.0,0.0,0.0,0.0,0.0,0.0,0.0,0.0,0.0,0.0,0.0,0.0,0.0,0.0,0.0,0.0,0.0,0.0,0.0,0.0,0.0,0.0,0.0,0.0,0.0,0.0,0.0,0.0,0.0,0.0,0.0,0.0,0.0,0.0,0.0,0.0,0.0,0.0,0.0,0.0,0.0,0.0,0.0,0.0,0.0,0.0,0.0,0.0,0.0,0.0,0.0,0.0,0.0,0.0,0.0,0.0,0.0,5.2878,5.3033,5.3109,0.0,0.0,0.0,0.0,0.0,0.0,0.0,0.0,0.0,0.0,0.0,0.0,0.0,0.0,0.0,0.0,0.0,0.0,0.0,0.0,0.0,0.0,0.0,0.0,0.0,0.0,0.0,0.0,0.0,0.0,0.0,0.0,0.0,0.0,0.0,0.0,0.0,0.0,0.0,0.0,0.0,0.0,0.0,0.0,0.0,0.0,0.0,0.0,0.0,0.0,0.0,0.0,0.0,0.0,0.0,0.0,0.0,0.0,0.0,0.0,0.0,0.0,0.0,0.0,0.0,0.0,0.0,0.0,0.0,0.0,0.0,0.0,0.0,0.0,0.0,0.0,0.0,0.0,0.0,0.0,0.0,0.0,0.0,0.0,0.0,0.0,0.0,0.0,0.0,0.0,0.0,0.0,0.0,0.0,0.0,0.0,0.0,0.0,0.0,0.0,0.0,0.0,0.0,0.0,0.0,0.0,0.0,0.0,0.0,0.0,5.2878,5.2878,5.2901,0.0,5.3959,0.0,0.0,0.0,0.0,0.0,0.0,0.0,0.0,0.0,0.0,0.0,0.0,0.0,0.0,0.0,0.0,0.0,0.0,0.0,0.0,0.0,0.0,0.0,0.0,0.0,0.0,0.0,0.0,0.0,0.0,0.0,0.0,0.0,0.0,0.0,0.0,0.0,0.0,0.0,0.0,0.0,0.0,0.0,0.0,0.0,0.0,0.0,0.0,0.0,0.0,0.0,0.0,0.0,0.0,0.0,0.0,0.0,0.0,0.0,0.0,0.0,0.0,0.0,0.0,0.0,0.0,0.0,0.0,0.0,0.0,0.0,0.0,0.0,0.0,0.0,0.0,0.0,0.0,0.0,0.0,0.0,0.0,0.0,0.0,0.0,0.0,0.0,0.0,0.0,0.0,0.0,0.0,0.0,0.0,0.0,0.0,0.0,0.0,0.0,0.0,0.0,0.0,0.0,0.0,0.0,0.0,0.0,0.0,0.0,0.0,5.4691,5.4691,5.4117,5.4119,0.0,0.0,0.0,0.0,0.0,0.0,0.0,0.0,0.0,0.0,0.0,0.0,0.0,0.0,0.0,0.0,0.0,0.0,0.0,0.0,0.0,0.0,0.0,0.0,0.0,0.0,0.0,0.0,0.0,0.0,0.0,0.0,0.0,0.0,0.0,0.0,0.0,0.0,0.0,0.0,0.0,0.0,0.0,0.0,0.0,0.0,0.0,0.0,0.0,0.0,0.0,0.0,0.0,0.0,0.0,0.0,0.0,0.0,0.0,0.0,0.0,0.0,0.0,0.0,0.0,0.0,0.0,0.0,0.0,0.0,0.0,0.0,0.0,0.0,0.0,0.0,0.0,0.0,0.0,0.0,0.0,0.0,0.0,0.0,0.0,0.0,0.0,0.0,0.0,0.0,0.0,0.0,0.0,0.0,0.0,0.0,0.0,0.0,0.0,0.0,0.0,0.0,0.0,0.0,0.0,0.0,0.0,0.0,0.0,0.0,5.5931,5.5931,5.5908,5.5385,5.5345,5.6161,0.0,0.0,0.0,0.0,0.0,0.0,0.0,0.0,0.0,0.0,0.0,0.0,0.0,0.0,0.0,0.0,0.0,0.0,0.0,0.0,0.0,0.0,0.0,0.0,0.0,0.0,0.0,0.0,0.0,0.0,0.0,0.0,0.0,0.0,0.0,0.0,0.0,0.0,0.0,0.0,0.0,0.0,0.0,0.0,0.0,0.0,0.0,0.0,0.0,0.0,0.0,0.0,0.0,0.0,0.0,0.0,0.0,0.0,0.0,0.0,0.0,0.0,0.0,0.0,0.0,0.0,0.0,0.0,0.0,0.0,0.0,0.0,0.0,0.0,0.0,0.0,0.0,0.0,0.0,0.0,0.0,0.0,0.0,0.0,0.0,0.0,0.0,0.0,0.0,0.0,0.0,0.0,0.0,0.0,0.0,0.0,0.0,0.0,0.0,0.0,0.0,0.0,0.0,0.0,0.0,0.0,0.0,0.0,5.5954,5.5977,5.5954,5.6,5.6244,5.6698,0.0,0.0,0.0,0.0,0.0,0.0,0.0,0.0,0.0,0.0,0.0,0.0,0.0,0.0,0.0,0.0,0.0,0.0,0.0,0.0,0.0,0.0,0.0,0.0,0.0,0.0,0.0,0.0,0.0,0.0,0.0,0.0,0.0,0.0,0.0,0.0,0.0,0.0,0.0,0.0,0.0,0.0,0.0,0.0,0.0,0.0,0.0,0.0,0.0,0.0,0.0,0.0,0.0,0.0,0.0,0.0,0.0,0.0,0.0,0.0,0.0,0.0,0.0,0.0,0.0,0.0,0.0,0.0,0.0,0.0,0.0,0.0,0.0,0.0,0.0,0.0,0.0,0.0,0.0,0.0,0.0,0.0,0.0,0.0,0.0,0.0,0.0,0.0,0.0,0.0,0.0,0.0,0.0,0.0,0.0,0.0,0.0,0.0,0.0,0.0,0.0,0.0,0.0,0.0,0.0,0.0,0.0,0.0,0.0,5.7906,5.823,5.8553,5.8725,5.8266,5.8277,0.0,0.0,0.0,0.0,0.0,0.0,0.0,0.0,0.0,0.0,0.0,0.0,0.0,0.0,0.0,0.0,0.0,0.0,0.0,0.0,0.0,0.0,0.0,0.0,0.0,0.0,0.0,0.0,0.0,0.0,0.0,0.0,0.0,0.0,0.0,0.0,0.0,0.0,0.0,0.0,0.0,0.0,0.0,0.0,0.0,0.0,0.0,0.0,0.0,0.0,0.0,0.0,0.0,0.0,0.0,0.0,0.0,0.0,0.0,0.0,0.0,0.0,0.0,0.0,0.0,0.0,0.0,0.0,0.0,0.0,0.0,0.0,0.0,0.0,0.0,0.0,0.0,0.0,0.0,0.0,0.0,0.0,0.0,0.0,0.0,0.0,0.0,0.0,0.0,0.0,0.0,0.0,0.0,0.0,0.0,0.0,0.0,0.0,0.0,0.0,0.0,0.0,0.0,0.0,0.0,0.0,0.0,0.0,0.0,5.9515,0.0,6.0019,6.0346,5.9884,5.9749,0.0,0.0,0.0,0.0,0.0,0.0,0.0,0.0,0.0,0.0,0.0,0.0,0.0,0.0,0.0,0.0,0.0,0.0,0.0,0.0,0.0,0.0,0.0,0.0,0.0,0.0,0.0,0.0,0.0,0.0,0.0,0.0,0.0,0.0,0.0,0.0,0.0,0.0,0.0,0.0,0.0,0.0,0.0,0.0,0.0,0.0,0.0,0.0,0.0,0.0,0.0,0.0,0.0,0.0,0.0,0.0,0.0,0.0,0.0,0.0,0.0,0.0,0.0,0.0,0.0,0.0,0.0,0.0,0.0,0.0,0.0,0.0,0.0,0.0,0.0,0.0,0.0,0.0,0.0,0.0,0.0,0.0,0.0,0.0,0.0,0.0,0.0,0.0,0.0,0.0,0.0,0.0,0.0,0.0,0.0,0.0,0.0,0.0,0.0,0.0,0.0,0.0,0.0,0.0,0.0,0.0,0.0,0.0,6.0089,6.044,6.0463,6.0733,6.0416,6.0964,6.1352,0.0,0.0,0.0,0.0,0.0,0.0,0.0,0.0,0.0,0.0,0.0,0.0,0.0,0.0,0.0,0.0,0.0,0.0,0.0,0.0,0.0,0.0,0.0,0.0,0.0,0.0,0.0,0.0,0.0,0.0,0.0,0.0,0.0,0.0,0.0,0.0,0.0,0.0,0.0,0.0,0.0,0.0,0.0,0.0,0.0,0.0,0.0,0.0,0.0,0.0,0.0,0.0,0.0,0.0,0.0,0.0,0.0,0.0,0.0,0.0,0.0,0.0,0.0,0.0,0.0,0.0,0.0,0.0,0.0,0.0,0.0,0.0,0.0,0.0,0.0,0.0,0.0,0.0,0.0,0.0,0.0,0.0,0.0,0.0,0.0,0.0,0.0,0.0,0.0,0.0,0.0,0.0,0.0,0.0,0.0,0.0,0.0,0.0,0.0,0.0,0.0,0.0,0.0,0.0,0.0,0.0,0.0,0.0,0.0,6.3027,6.3744,6.4128,6.4125,6.4117,6.4178,0.0,0.0,0.0,0.0,0.0,0.0,0.0,0.0,0.0,0.0,0.0,0.0,0.0,0.0,0.0,0.0,0.0,0.0,0.0,0.0,0.0,0.0,0.0,0.0,0.0,0.0,0.0,0.0,0.0,0.0,0.0,0.0,0.0,0.0,0.0,0.0,0.0,0.0,0.0,0.0,0.0,0.0,0.0,0.0,0.0,0.0,0.0,0.0,0.0,0.0,0.0,0.0,0.0,0.0,0.0,0.0,0.0,0.0,0.0,0.0,0.0,0.0,0.0,0.0,0.0,0.0,0.0,0.0,0.0,0.0,0.0,0.0,0.0,0.0,0.0,0.0,0.0,0.0,0.0,0.0,0.0,0.0,0.0,0.0,0.0,0.0,0.0,0.0,0.0,0.0,0.0,0.0,0.0,0.0,0.0,0.0,0.0,0.0,0.0,0.0,0.0,0.0,0.0,0.0,0.0,0.0,0.0,0.0,0.0,6.6456,6.6179,6.5972,6.6015,6.6047,6.6078,6.5931,0.0,0.0,0.0,0.0,0.0,0.0,0.0,0.0,0.0,0.0,0.0,0.0,0.0,0.0,0.0,0.0,0.0,0.0,0.0,0.0,0.0,0.0,0.0,0.0,0.0,0.0,0.0,0.0,0.0,0.0,0.0,0.0,0.0,0.0,0.0,0.0,0.0,0.0,0.0,0.0,0.0,0.0,0.0,0.0,0.0,0.0,0.0,0.0,0.0,0.0,0.0,0.0,0.0,0.0,0.0,0.0,0.0,0.0,0.0,0.0,0.0,0.0,0.0,0.0,0.0,0.0,0.0,0.0,0.0,0.0,0.0,0.0,0.0,0.0,0.0,0.0,0.0,0.0,0.0,0.0,0.0,0.0,0.0,0.0,0.0,0.0,0.0,0.0,0.0,0.0,0.0,0.0,0.0,0.0,0.0,0.0,0.0,0.0,0.0,0.0,0.0,0.0,0.0,0.0,0.0,0.0,0.0,0.0,7.0552,6.8123,6.6928,6.6749,6.7193,6.7661,0.0,0.0,0.0,0.0,0.0,0.0,0.0,0.0,0.0,0.0,0.0,0.0,0.0,0.0,0.0,0.0,0.0,0.0,0.0,0.0,0.0,0.0,0.0,0.0,0.0,0.0,0.0,0.0,0.0,0.0,0.0,0.0,0.0,0.0,0.0,0.0,0.0,0.0,0.0,0.0,0.0,0.0,0.0,0.0,0.0,0.0,0.0,0.0,0.0,0.0,0.0,0.0,0.0,0.0,0.0,0.0,0.0,0.0,0.0,0.0,0.0,0.0,0.0,0.0,0.0,0.0,0.0,0.0,0.0,0.0,0.0,0.0,0.0,0.0,0.0,0.0,0.0,0.0,0.0,0.0,0.0,0.0,0.0,0.0,0.0,0.0,0.0,0.0,0.0,0.0,0.0,0.0,0.0,0.0,0.0,0.0,0.0,0.0,0.0,0.0,0.0,0.0,0.0,0.0,0.0,0.0,0.0,0.0,0.0,7.1978,7.1936,7.1448,7.0569,7.0497,7.0602,0.0,0.0,0.0,0.0,0.0,0.0,0.0,0.0,0.0,0.0,0.0,0.0,0.0,0.0,0.0,0.0,0.0,0.0,0.0,0.0,0.0,0.0,0.0,0.0,0.0,0.0,0.0,0.0,0.0,0.0,0.0,0.0,0.0,0.0,0.0,0.0,0.0,0.0,0.0,0.0,0.0,0.0,0.0,0.0,0.0,0.0,0.0,0.0,0.0,0.0,0.0,0.0,0.0,0.0,0.0,0.0,0.0,0.0,0.0,0.0,0.0,0.0,0.0,0.0,0.0,0.0,0.0,0.0,0.0,0.0,0.0,0.0,0.0,0.0,0.0,0.0,0.0,0.0,0.0,0.0,0.0,0.0,0.0,0.0,0.0,0.0,0.0,0.0,0.0,0.0,0.0,0.0,0.0,0.0,0.0,0.0,0.0,0.0,0.0,0.0,0.0,0.0,0.0,0.0,0.0,0.0,0.0,0.0,7.4223,7.4521,7.5223,7.5454,7.4676,7.3846,7.3199,0.0,0.0,0.0,0.0,0.0,0.0,0.0,0.0,0.0,0.0,0.0,0.0,0.0,0.0,0.0,0.0,0.0,0.0,0.0,0.0,0.0,0.0,0.0,0.0,0.0,0.0,0.0,0.0,0.0,0.0,0.0,0.0,0.0,0.0,0.0,0.0,0.0,0.0,0.0,0.0,0.0,0.0,0.0,0.0,0.0,0.0,0.0,0.0,0.0,0.0,0.0,0.0,0.0,0.0,0.0,0.0,0.0,0.0,0.0,0.0,0.0,0.0,0.0,0.0,0.0,0.0,0.0,0.0,0.0,0.0,0.0,0.0,0.0,0.0,0.0,0.0,0.0,0.0,0.0,0.0,0.0,0.0,0.0,0.0,0.0,0.0,0.0,0.0,0.0,0.0,0.0,0.0,0.0,0.0,0.0,0.0,0.0,0.0,0.0,0.0,0.0,0.0,0.0,0.0,0.0,0.0,0.0,0.0,7.7629,7.7664,7.8159,7.8642,7.8896,7.6997,7.5669,0.0,0.0,0.0,0.0,0.0,0.0,0.0,0.0,0.0,0.0,0.0,0.0,0.0,0.0,0.0,0.0,0.0,0.0,0.0,0.0,0.0,0.0,0.0,0.0,0.0,0.0,0.0,0.0,0.0,0.0,0.0,0.0,0.0,0.0,0.0,0.0,0.0,0.0,0.0,0.0,0.0,0.0,0.0,0.0,0.0,0.0,0.0,0.0,0.0,0.0,0.0,0.0,0.0,0.0,0.0,0.0,0.0,0.0,0.0,0.0,0.0,0.0,0.0,0.0,0.0,0.0,0.0,0.0,0.0,0.0,0.0,0.0,0.0,0.0,0.0,0.0,0.0,0.0,0.0,0.0,0.0,0.0,0.0,0.0,0.0,0.0,0.0,0.0,0.0,0.0,0.0,0.0,0.0,0.0,0.0,0.0,0.0,0.0,0.0,0.0,0.0,0.0,0.0,0.0,0.0,0.0,0.0,0.0,7.8907,7.9685,8.0344,8.0996,8.1411,7.88,7.7491,0.0,0.0,0.0,0.0,0.0,0.0,0.0,0.0,0.0,0.0,0.0,0.0,0.0,0.0,0.0,0.0,0.0,0.0,0.0,0.0,0.0,0.0,0.0,0.0,0.0,0.0,0.0,0.0,0.0,0.0,0.0,0.0,0.0,0.0,0.0,0.0,0.0,0.0,0.0,0.0,0.0,0.0,0.0,0.0,0.0,0.0,0.0,0.0,7.6916,0.0,0.0,0.0,0.0,0.0,0.0,0.0,0.0,0.0,0.0,0.0,0.0,0.0,0.0,0.0,0.0,0.0,0.0,0.0,0.0,0.0,0.0,0.0,0.0,0.0,0.0,0.0,0.0,0.0,0.0,0.0,0.0,0.0,0.0,0.0,0.0,0.0,0.0,0.0,0.0,0.0,0.0,0.0,0.0,0.0,0.0,0.0,0.0,0.0,0.0,0.0,0.0,0.0,0.0,0.0,0.0,0.0,0.0,0.0,8.1254,8.2115,8.2942,8.3669,8.4045,8.2562,8.0893,0.0,0.0,0.0,0.0,0.0,0.0,0.0,0.0,0.0,0.0,0.0,0.0,0.0,0.0,0.0,0.0,0.0,0.0,0.0,0.0,0.0,0.0,0.0,0.0,0.0,0.0,0.0,0.0,0.0,0.0,0.0,0.0,0.0,0.0,0.0,0.0,0.0,0.0,0.0,0.0,0.0,0.0,0.0,0.0,0.0,0.0,0.0,0.0,0.0,0.0,0.0,0.0,0.0,0.0,0.0,0.0,0.0,0.0,0.0,0.0,0.0,0.0,0.0,0.0,0.0,0.0,0.0,0.0,0.0,0.0,0.0,0.0,0.0,0.0,0.0,0.0,0.0,0.0,0.0,0.0,0.0,0.0,0.0,0.0,0.0,0.0,0.0,0.0,0.0,0.0,0.0,0.0,0.0,0.0,0.0,0.0,0.0,0.0,0.0,0.0,0.0,0.0,0.0,0.0,0.0,0.0,0.0,8.2111,8.346,8.4483,8.5331,8.5997,8.6455,8.6194,8.439,8.14,0.0,0.0,0.0,0.0,0.0,0.0,0.0,0.0,0.0,0.0,0.0,0.0,0.0,0.0,0.0,0.0,0.0,0.0,0.0,0.0,0.0,0.0,0.0,0.0,0.0,0.0,0.0,0.0,0.0,0.0,0.0,0.0,0.0,0.0,0.0,0.0,0.0,0.0,7.4053,7.6208,0.0,0.0,0.0,0.0,0.0,0.0,0.0,0.0,8.0935,0.0,0.0,0.0,0.0,0.0,0.0,0.0,0.0,0.0,0.0,0.0,0.0,0.0,0.0,0.0,0.0,0.0,0.0,0.0,0.0,0.0,0.0,0.0,0.0,0.0,0.0,0.0,0.0,0.0,0.0,0.0,0.0,0.0,0.0,0.0,0.0,0.0,0.0,0.0,0.0,0.0,0.0,0.0,0.0,0.0,0.0,0.0,0.0,0.0,0.0,0.0,0.0,0.0,0.0,0.0,0.0,8.1151,8.2978,8.4691,8.5881,8.6742,8.719,8.7225,8.6938,8.6313,8.5288,0.0,0.0,0.0,0.0,0.0,0.0,0.0,0.0,0.0,0.0,0.0,0.0,0.0,0.0,0.0,0.0,0.0,0.0,0.0,0.0,0.0,0.0,0.0,0.0,0.0,0.0,0.0,0.0,0.0,0.0,0.0,0.0,0.0,0.0,0.0,0.0,0.0,0.0,0.0,7.8387,7.9862,0.0,0.0,0.0,0.0,0.0,0.0,0.0,0.0,8.3189,0.0,0.0,0.0,0.0,0.0,0.0,0.0,0.0,0.0,0.0,0.0,0.0,0.0,0.0,0.0,0.0,0.0,0.0,0.0,0.0,0.0,0.0,0.0,0.0,0.0,0.0,0.0,0.0,0.0,0.0,0.0,0.0,0.0,0.0,0.0,0.0,0.0,0.0,0.0,0.0,0.0,0.0,0.0,0.0,0.0,0.0,0.0,0.0,0.0,0.0,0.0,0.0,0.0,0.0,0.0,8.2971,8.4936,8.6443,8.7435,8.8289,8.9142,8.9665,8.8787,8.8046,0.0,0.0,0.0,0.0,0.0,0.0,0.0,0.0,0.0,0.0,0.0,0.0,0.0,0.0,0.0,0.0,0.0,0.0,0.0,0.0,0.0,0.0,0.0,0.0,0.0,0.0,0.0,0.0,0.0,0.0,0.0,0.0,0.0,0.0,0.0,0.0,0.0,0.0,0.0,0.0,8.1153,8.2286,8.4172,0.0,0.0,0.0,0.0,0.0,0.0,8.5791,8.5853,0.0,0.0,0.0,0.0,0.0,0.0,0.0,0.0,0.0,0.0,0.0,0.0,0.0,0.0,0.0,0.0,0.0,0.0,0.0,0.0,0.0,0.0,0.0,0.0,0.0,0.0,0.0,0.0,0.0,0.0,0.0,0.0,0.0,0.0,0.0,0.0,0.0,0.0,0.0,0.0,0.0,0.0,0.0,0.0,0.0,0.0,0.0,0.0,0.0,0.0,0.0,0.0,0.0,0.0,0.0,8.4742,8.6582,8.7986,8.8787,8.9635,9.0704,9.1835,9.0535,8.9556,0.0,0.0,0.0,0.0,0.0,0.0,0.0,0.0,0.0,0.0,0.0,0.0,0.0,0.0,0.0,0.0,0.0,0.0,0.0,0.0,0.0,0.0,0.0,0.0,0.0,0.0,0.0,0.0,0.0,0.0,0.0,0.0,0.0,0.0,0.0,0.0,0.0,0.0,0.0,0.0,0.0,8.512,8.7209,8.7692,0.0,0.0,0.0,0.0,8.8263,8.8487,0.0,0.0,0.0,0.0,0.0,0.0,0.0,0.0,0.0,0.0,0.0,0.0,0.0,0.0,0.0,0.0,0.0,0.0,0.0,0.0,0.0,0.0,0.0,0.0,0.0,0.0,0.0,0.0,0.0,0.0,0.0,0.0,0.0,0.0,0.0,0.0,0.0,0.0,0.0,0.0,0.0,0.0,0.0,0.0,0.0,0.0,0.0,0.0,0.0,0.0,0.0,0.0,0.0,0.0,0.0,0.0,8.5851,8.7291,8.8654,8.9774,9.0276,9.1164,9.2217,9.1319,9.0801,0.0,0.0,0.0,0.0,0.0,0.0,0.0,0.0,0.0,0.0,0.0,0.0,0.0,0.0,0.0,0.0,0.0,0.0,0.0,0.0,0.0,0.0,0.0,0.0,0.0,0.0,0.0,0.0,0.0,0.0,0.0,0.0,0.0,0.0,0.0,0.0,0.0,0.0,0.0,0.0,0.0,8.7916,8.8836,8.95,9.0096,0.0,0.0,9.0863,9.1027,9.1204,0.0,0.0,0.0,0.0,0.0,0.0,0.0,0.0,0.0,0.0,0.0,0.0,0.0,0.0,0.0,0.0,0.0,0.0,0.0,0.0,0.0,0.0,0.0,0.0,0.0,0.0,0.0,0.0,0.0,0.0,0.0,0.0,0.0,0.0,0.0,0.0,0.0,0.0,0.0,0.0,0.0,0.0,0.0,0.0,0.0,0.0,0.0,0.0,0.0,0.0,0.0,0.0,0.0,0.0,0.0,8.6731,8.7515,8.9135,9.0458,9.1409,9.1913,9.2578,9.3409,9.2374,9.1938,0.0,0.0,0.0,0.0,0.0,0.0,0.0,0.0,0.0,0.0,0.0,0.0,0.0,0.0,0.0,0.0,0.0,0.0,0.0,0.0,0.0,0.0,0.0,0.0,0.0,0.0,0.0,0.0,0.0,0.0,0.0,0.0,0.0,0.0,0.0,0.0,0.0,0.0,0.0,0.0,0.0,0.0,9.215,9.2858,0.0,0.0,0.0,9.4545,9.466,0.0,0.0,0.0,0.0,0.0,0.0,0.0,0.0,0.0,0.0,0.0,0.0,0.0,0.0,0.0,0.0,0.0,0.0,0.0,0.0,0.0,0.0,0.0,0.0,0.0,0.0,0.0,0.0,0.0,0.0,0.0,0.0,0.0,0.0,0.0,0.0,0.0,0.0,0.0,0.0,0.0,0.0,0.0,0.0,0.0,0.0,0.0,0.0,0.0,0.0,0.0,0.0,0.0,0.0,0.0,0.0,0.0,8.8905,9.0571,9.1833,9.2783,9.312,9.3757,9.4591,9.3631,0.0,0.0,0.0,0.0,0.0,0.0,0.0,0.0,0.0,0.0,0.0,0.0,0.0,0.0,0.0,0.0,0.0,0.0,0.0,0.0,0.0,0.0,0.0,0.0,0.0,0.0,0.0,7.4979,0.0,0.0,0.0,0.0,0.0,0.0,0.0,0.0,0.0,0.0,0.0,0.0,0.0,0.0,9.3529,9.5445,9.6444,9.7192,0.0,0.0,9.8127,9.816,9.7551,9.707,0.0,0.0,0.0,0.0,0.0,0.0,0.0,0.0,0.0,0.0,0.0,0.0,0.0,0.0,0.0,0.0,0.0,0.0,0.0,0.0,0.0,0.0,0.0,0.0,0.0,0.0,0.0,0.0,0.0,0.0,0.0,0.0,0.0,0.0,0.0,0.0,0.0,0.0,0.0,0.0,0.0,0.0,0.0,0.0,0.0,0.0,0.0,0.0,0.0,0.0,0.0,0.0,0.0,0.0,8.9327,9.0133,9.1006,9.2007,9.3258,9.3288,9.3925,9.5428,9.4591,9.4213,0.0,0.0,0.0,0.0,0.0,0.0,0.0,0.0,0.0,0.0,0.0,0.0,0.0,0.0,0.0,0.0,0.0,0.0,0.0,0.0,0.0,0.0,0.0,0.0,0.0,0.0,0.0,0.0,0.0,0.0,0.0,0.0,0.0,0.0,0.0,0.0,0.0,0.0,0.0,0.0,0.0,9.7279,9.8441,9.9449,10.0393,0.0,10.0858,10.1012,10.147,10.0555,10.0074,10.0857,0.0,0.0,0.0,0.0,0.0,0.0,0.0,0.0,0.0,0.0,0.0,0.0,0.0,0.0,0.0,0.0,0.0,0.0,0.0,0.0,0.0,0.0,0.0,0.0,0.0,0.0,0.0,0.0,0.0,0.0,0.0,0.0,0.0,0.0,0.0,0.0,0.0,0.0,0.0,0.0,0.0,0.0,0.0,0.0,0.0,0.0,0.0,0.0,0.0,0.0,0.0,0.0,0.0,9.1075,9.2102,9.2717,9.3293,9.4228,9.4563,9.5048,9.5625,9.5322,9.4976,0.0,0.0,0.0,0.0,0.0,0.0,0.0,0.0,0.0,0.0,0.0,0.0,0.0,0.0,0.0,0.0,0.0,0.0,0.0,0.0,0.0,0.0,0.0,0.0,0.0,0.0,0.0,0.0,7.8723,7.9238,8.1058,0.0,0.0,0.0,0.0,0.0,0.0,0.0,0.0,0.0,0.0,9.9926,10.1445,10.2774,0.0,0.0,10.5111,10.5288,10.5017,10.415,10.3532,10.3407,10.2346,0.0,0.0,0.0,0.0,0.0,0.0,0.0,0.0,0.0,0.0,0.0,0.0,0.0,0.0,0.0,0.0,0.0,0.0,0.0,0.0,0.0,0.0,0.0,0.0,0.0,0.0,0.0,0.0,0.0,0.0,0.0,0.0,0.0,0.0,0.0,0.0,0.0,0.0,0.0,0.0,0.0,0.0,0.0,0.0,0.0,0.0,0.0,0.0,0.0,0.0,0.0,0.0,9.2866,9.3707,9.4133,9.4798,9.5534,9.5871,9.6114,9.6097,9.6023,9.5759,0.0,0.0,0.0,0.0,0.0,0.0,0.0,0.0,0.0,0.0,0.0,0.0,0.0,0.0,0.0,0.0,0.0,0.0,0.0,0.0,0.0,0.0,0.0,0.0,0.0,0.0,0.0,0.0,8.1244,8.2144,8.4723,0.0,0.0,0.0,0.0,0.0,0.0,0.0,0.0,0.0,0.0,10.3069,10.4663,10.6193,10.7533,10.8561,10.8807,10.8634,10.8142,10.7291,10.6472,10.598,0.0,0.0,0.0,0.0,0.0,0.0,0.0,0.0,0.0,0.0,0.0,0.0,0.0,0.0,0.0,0.0,0.0,0.0,0.0,0.0,0.0,0.0,0.0,0.0,0.0,0.0,0.0,6.6751,0.0,0.0,6.8055,0.0,0.0,0.0,0.0,0.0,0.0,0.0,0.0,0.0,0.0,0.0,0.0,0.0,0.0,0.0,0.0,0.0,0.0,0.0,0.0,0.0,0.0,9.4522,9.4409,9.5197,9.6114,9.687,9.7351,9.7383,9.7301,9.677,9.6634,9.6466,0.0,0.0,0.0,0.0,0.0,0.0,0.0,0.0,0.0,0.0,0.0,0.0,0.0,0.0,0.0,0.0,0.0,0.0,0.0,0.0,0.0,0.0,0.0,0.0,0.0,0.0,8.349,8.4437,8.5883,0.0,0.0,0.0,0.0,0.0,0.0,0.0,0.0,0.0,10.1727,10.4186,10.6555,10.8422,10.9712,11.0714,11.1943,11.1484,11.0993,11.096,10.9813,10.8896,0.0,0.0,0.0,0.0,0.0,0.0,0.0,0.0,0.0,0.0,0.0,0.0,0.0,0.0,0.0,0.0,0.0,0.0,0.0,0.0,0.0,0.0,0.0,0.0,0.0,0.0,0.0,6.8586,6.8705,0.0,0.0,0.0,0.0,0.0,0.0,0.0,0.0,0.0,0.0,0.0,8.3782,8.5224,0.0,0.0,0.0,0.0,0.0,0.0,0.0,0.0,0.0,0.0,0.0,0.0,9.5547,9.619,9.6388,9.67,9.6931,9.7153,9.735,9.7301,9.7199,9.6893,9.6098,0.0,0.0,0.0,0.0,0.0,0.0,0.0,0.0,0.0,0.0,0.0,0.0,0.0,0.0,0.0,0.0,0.0,0.0,0.0,0.0,0.0,0.0,0.0,0.0,0.0,8.5553,0.0,0.0,0.0,0.0,0.0,0.0,0.0,0.0,0.0,0.0,10.1435,10.3475,10.5818,10.7458,10.92,11.111,11.2176,11.308,0.0,0.0,0.0,0.0,0.0,0.0,0.0,0.0,0.0,0.0,0.0,0.0,0.0,0.0,10.6979,10.5547,10.5281,10.5388,10.5945,0.0,0.0,0.0,0.0,0.0,0.0,0.0,0.0,0.0,0.0,0.0,0.0,0.0,0.0,7.0287,7.0405,7.0685,0.0,0.0,0.0,0.0,0.0,0.0,0.0,0.0,8.3266,8.4473,8.614,8.7405,8.8577,0.0,9.1475,9.2635,0.0,0.0,0.0,0.0,0.0,0.0,0.0,0.0,9.7218,9.7884,9.8089,9.7985,9.7659,9.7842,9.7885,9.7836,9.8286,9.8072,9.7137,9.685,9.6225,0.0,0.0,0.0,0.0,0.0,0.0,0.0,0.0,0.0,0.0,0.0,0.0,0.0,0.0,0.0,0.0,0.0,0.0,0.0,0.0,0.0,0.0,0.0,8.9262,0.0,0.0,0.0,0.0,0.0,0.0,0.0,0.0,0.0,10.3697,10.4817,10.665,10.9427,11.0787,11.2215,11.3976,0.0,0.0,0.0,0.0,0.0,0.0,0.0,11.4719,11.3987,11.3488,11.3056,11.3092,11.2589,11.2147,11.2058,0.0,0.0,10.8485,10.8083,10.805,10.8472,10.9498,11.0519,11.1786,11.2673,11.3801,0.0,0.0,0.0,0.0,7.4073,0.0,0.0,0.0,7.2821,7.2518,0.0,7.2427,0.0,0.0,0.0,0.0,7.9295,8.1014,0.0,0.0,8.4656,8.6419,8.8887,8.909,9.0896,9.4087,9.3374,9.4789,9.7847,9.6112,0.0,0.0,0.0,0.0,0.0,0.0,9.9544,9.9833,10.0037,9.9827,9.9086,9.9251,9.9255,9.9138,9.9665,9.9776,9.9409,9.8931,9.8105,9.677,9.6179,0.0,0.0,0.0,0.0,0.0,0.0,0.0,0.0,0.0,0.0,0.0,0.0,0.0,0.0,0.0,0.0,0.0,0.0,0.0,0.0,9.2187,0.0,0.0,0.0,0.0,0.0,0.0,0.0,0.0,0.0,10.7018,10.728,10.8231,10.9942,11.2379,0.0,0.0,0.0,0.0,11.9769,12.0435,11.9687,11.8865,11.8128,11.6789,11.5617,11.4914,0.0,0.0,11.3775,11.3608,11.3555,11.3291,11.3111,11.2281,11.094,11.0859,11.0901,11.1077,11.225,11.3384,11.4238,11.5303,11.6645,7.9067,0.0,0.0,0.0,0.0,7.6147,7.5669,7.5182,7.4725,7.4629,7.493,7.5101,0.0,0.0,0.0,0.0,0.0,0.0,8.5065,8.6354,8.7577,8.8657,8.9762,9.1623,9.3157,9.4573,9.6447,9.7908,9.9101,9.9913,9.9809,9.9207,0.0,0.0,0.0,0.0,10.1793,10.1703,10.1969,10.1939,10.1623,10.1826,10.1834,10.1689,10.088,10.0475,10.0308,9.9933,9.9668,9.9151,9.7753,0.0,0.0,0.0,0.0,0.0,0.0,0.0,0.0,0.0,0.0,0.0,0.0,0.0,0.0,0.0,0.0,0.0,0.0,0.0,9.4912,9.6083,9.7227,0.0,0.0,0.0,0.0,0.0,0.0,0.0,0.0,0.0,11.3878,11.2867,11.2867,0.0,0.0,11.8263,11.9547,12.0329,12.0849,12.1083,12.0472,0.0,11.9568,11.8731,11.7994,11.7793,11.7631,11.7212,11.6506,11.682,11.7162,11.7105,11.7217,11.7158,11.6716,11.4892,11.397,11.4663,11.543,11.6263,11.7262,11.8297,11.9541,8.3021,8.171,8.0323,7.9598,7.9539,7.8823,7.8214,7.7719,7.7218,7.7091,7.7306,7.7463,7.8466,7.9862,8.163,0.0,0.0,0.0,8.7728,8.9199,9.0574,9.1656,9.2759,9.4564,9.6031,9.7335,9.8941,10.0486,10.1578,10.2572,10.2862,10.245,0.0,0.0,10.2685,10.2848,10.3245,10.3395,10.3424,10.3184,10.3084,10.3191,10.334,10.3443,10.2911,10.2629,10.2629,10.233,10.1863,10.1518,10.044,9.9555,0.0,0.0,0.0,0.0,0.0,0.0,0.0,0.0,0.0,0.0,0.0,9.0751,9.21,0.0,0.0,0.0,9.6203,9.7223,9.8671,10.024,0.0,0.0,0.0,0.0,0.0,0.0,0.0,11.279,11.4298,11.584,11.7941,11.7285,11.7153,11.8594,11.9581,12.0435,12.0729,0.0,12.1928,12.1626,12.1111,12.0695,12.0547,11.9839,11.9232,11.9081,11.9011,11.872,11.8313,11.862,11.9048,11.932,11.95,11.9816,12.0397,11.9227,11.8059,11.8025,11.8661,11.9533,12.0606,12.1546,12.2483,8.6698,8.6778,8.3607,8.22,8.1839,8.1498,8.1029,8.0714,8.0238,7.9948,7.9657,8.0006,8.1208,8.2999,8.5597,0.0,8.7842,8.9427,9.0744,9.2063,9.3532,9.5201,9.6756,9.7658,9.9177,10.1364,10.1171,10.2405,10.4612,10.4492,10.4978,10.5977,10.4169,10.359,10.3947,10.3976,10.4361,10.5443,10.4608,10.4218,10.412,10.4034,10.418,10.4752,10.5318,10.5632,10.5632,10.529,10.4568,10.384,10.3664,10.2717,10.094,0.0,0.0,0.0,0.0,0.0,0.0,0.0,0.0,0.0,0.0,0.0,0.0,0.0,0.0,9.8408,10.0629,0.0,10.2501,10.4538,0.0,0.0,0.0,10.9809,11.1418,11.2596,11.4067,11.5966,0.0,0.0,12.0115,12.1139,12.1825,12.1669,12.2205,12.218,12.1443,12.2388,12.2906,12.2164,12.1732,12.1328,12.1088,12.0456,11.9957,11.9602,11.9372,11.9508,11.9577,11.9577,11.996,12.0713,12.0781,12.1192,12.2663,12.3386,12.3469,12.1619,12.2189,12.3168,12.379,12.4704,12.5646,9.0171,9.0111,8.9318,8.7426,8.5,8.4652,8.4331,8.4331,8.4171,8.4009,8.4039,8.4508,8.5744,8.7504,8.9008,9.0549,9.1991,9.264,9.3759,9.5062,9.6236,9.7505,9.887,10.018,10.1602,10.2684,10.42,10.4928,10.5278,10.6233,10.6964,10.7269,10.6811,10.6621,10.6168,10.6238,10.6651,10.7082,10.6964,10.703,10.7592,10.7109,10.723,10.8097,10.7718,10.7529,10.7529,10.7186,10.6809,10.6461,10.5439,10.4281,10.3569,10.2332,0.0,0.0,0.0,0.0,0.0,0.0,0.0,0.0,0.0,9.5317,9.6984,0.0,9.844,0.0,10.3774,10.5743,10.662,10.8124,0.0,0.0,11.1122,11.2623,11.4083,11.5213,11.6496,11.8766,11.9921,12.0909,12.2046,12.3036,12.3758,12.4376,12.4041,12.3556,12.3164,12.3476,12.3804,12.3327,12.2578,12.2251,12.2162,12.1582,12.1114,12.0943,12.0909,12.1114,12.1661,12.2091,12.2477,12.3162,12.3661,12.433,12.5447,12.6249,12.7057,12.7092,12.6754,12.6094,12.6444,12.7666,12.8855,9.3381,9.3381,9.3214,9.2037,9.013,8.8308,8.7504,8.7475,8.731,8.7281,8.7534,8.8889,9.0203,9.172,9.2578,9.3788,9.4923,9.5763,9.6801,9.7979,9.947,10.0627,10.1739,10.3247,10.4415,10.5133,10.6216,10.6855,10.7144,10.7705,10.8226,10.8533,10.8306,10.7965,10.7543,10.7586,10.7889,10.8587,10.8775,10.9214,10.9781,10.9407,10.9577,11.0671,11.026,10.9912,10.9596,10.9391,10.8916,10.8426,10.7524,10.6776,10.6063,10.5124,10.4579,0.0,0.0,0.0,0.0,0.0,0.0,0.0,0.0,0.0,0.0,0.0,10.201,10.5614,10.7815,10.9594,11.0777,11.2025,11.2954,11.3293,11.4614,11.6064,11.7182,11.8041,11.9228,12.0839,12.193,12.2849,12.3647,12.43,12.4918,12.5506,12.5196,12.4634,12.3804,12.3872,12.3649,12.2891,12.2378,12.2105,12.2286,12.2202,12.2176,12.2485,12.2554,12.2828,12.3661,12.4123,12.4613,12.5758,12.6324,12.6815,12.8143,12.8878,12.9509,13.004,13.0008,12.9554,12.9063,13.0116,13.1132,9.6341,9.6341,9.5861,9.5579,9.5458,9.2324,9.0883,9.0645,9.0248,9.0337,9.1081,9.306,9.447,9.5595,9.6372,9.698,9.7649,9.8743,9.99,10.095,10.2702,10.401,10.4847,10.6134,10.7107,10.7624,10.7961,10.8424,10.915,10.8844,10.9028,10.9706,10.9361,10.9024,10.8844,10.8459,10.8788,10.9877,11.0379,11.0883,11.1185,11.1278,11.1856,11.2756,11.2788,11.244,11.1777,11.1714,11.1284,11.0362,11.0142,10.9484,10.8766,10.843,10.7944,0.0,10.703,0.0,0.0,0.0,0.0,0.0,0.0,0.0,0.0,10.4581,10.6174,11.0339,11.1782,11.3209,11.4776,11.5838,11.6503,11.701,11.8102,11.9062,11.9952,12.0779,12.1604,12.2675,12.3565,12.4412,12.4851,12.5196,12.5694,12.5965,12.6,12.5487,12.4339,12.3997,12.3449,12.1944,12.1671,12.1885,12.2348,12.2676,12.3061,12.3859,12.4066,12.4486,12.5498,12.574,12.6369,12.7904,12.85,12.9056,13.0628,13.1016,13.1373,13.1513,13.236,13.2607,13.1728,13.194,13.2602,9.8022,9.8053,9.7538,9.7525,9.7628,9.6941,9.5828,9.4354,9.4183,9.5096,9.6436,9.688,9.7841,9.8995,9.967,10.0241,10.0883,10.1906,10.2653,10.3539,10.5039,10.6213,10.6919,10.8145,10.8727,10.868,10.9188,10.9574,10.9492,10.9829,11.0444,11.1091,11.0932,11.1029,11.0906,0.0,0.0,0.0,11.1029,11.178,11.262,11.315,11.3957,11.4905,11.4905,0.0,11.3957,11.3894,11.3831,11.3492,11.242,0.0,0.0,0.0,0.0,0.0,0.0,0.0,0.0,0.0,0.0,0.0,10.7753,10.7576,10.6793,10.867,11.0544,11.2128,11.4143,11.569,11.6745,11.7102,11.7545,11.7877,11.8502,11.929,12.0374,12.143,12.2742,12.4109,12.4469,12.4851,12.566,12.5813,12.6,12.642,12.642,12.6227,12.563,12.4716,12.3995,12.3428,12.2808,12.278,12.3331,12.3829,12.4213,12.5047,12.5432,12.6027,12.6722,12.7348,12.7974,12.9126,12.9718,13.0558,13.1824,13.2177,13.2496,13.3377,13.3872,13.4014,13.3309,13.3591,13.4293,10.0956,10.0956,10.0433,10.0264,0.0,10.0608,10.0153,9.9329,9.8153,9.8479,9.974,10.0119,10.0883,10.2167,10.252,10.3035,10.3857,10.4726,10.5594,10.6318,10.753,10.8381,10.8901,10.9769,11.0287,11.0235,11.0742,11.0911,11.082,11.1002,11.1152,11.1491,11.1491,11.1337,11.0998,11.0998,11.1152,11.1491,11.2476,11.3544,11.4523,11.5147,11.6088,11.7023,11.6707,0.0,0.0,0.0,0.0,0.0,0.0,0.0,0.0,11.2903,0.0,11.1988,11.1957,11.1957,11.1566,11.1566,11.1432,11.0949,11.1591,11.1464,11.0268,11.2418,11.4055,11.4895,11.6138,11.7467,11.8986,11.9292,11.9756,12.0613,12.0972,12.1624,12.244,12.3128,12.3974,12.5094,12.5351,12.566,12.6269,12.6269,12.642,12.6903,12.6869,12.6914,12.6613,12.5777,12.5019,12.4762,12.4347,12.4317,12.4805,12.505,12.5434,12.6129,12.6479,12.7248,12.8435,12.8924,12.9659,13.0884,13.1478,13.2146,13.3024,13.3234,13.3518,13.4118,13.4471,13.4646,13.4534,13.4919,13.5167,10.358,10.358,10.3018,10.2962,10.3206,10.3426,10.3912,10.4243,10.1989,0.0,0.0,10.2912,10.3796,10.4934,10.4934,10.56,10.6483,10.7219,10.8034,10.8772,10.9639,11.0193,11.0671,11.1366,11.1705,11.1793,11.2024,11.2093,11.2182,11.1835,11.1737,11.183,11.186,11.1491,11.0875,11.0845,11.1337,11.2322,11.3523,11.4812,11.5895,11.6675,11.7656,11.8603,11.8066,11.737,11.6549,11.598,11.5625,11.5087,11.5259,11.5523,11.5523,11.5656,11.5705,11.5318,11.5223,11.4917,11.4529,11.4349,11.4453,11.4266,11.4561,11.4176,11.3419,11.5195,11.6592,11.7176,11.7766,11.8963,12.1045,12.121,12.1771,12.3218,12.3446,12.3767,12.4694,12.4986,12.5434,12.6307,12.6596,12.668,12.7051,12.7201,12.7213,12.7258,12.7441,12.7303,12.7278,12.6621,12.5827,12.5424,12.5325,12.5747,12.6097,12.6412,12.6726,12.7388,12.7666,12.8365,12.9695,13.0431,13.1237,13.236,13.2958,13.3379,13.3941,13.4046,13.4224,13.4471,13.4752,13.4855,13.5577,13.5747,13.5747,10.4288,10.4288,10.3722,10.4184,10.5254,10.5346,10.5896,10.6661,10.5278,10.5001,10.5827,10.5827,10.6258,10.6966,10.7391,10.7815,10.7908,10.8867,10.9285,10.9494,11.0508,11.1492,11.2093,11.2788,11.291,11.2836,11.2776,11.2621,11.2482,11.2353,11.2661,11.3153,11.3215,11.2845,11.226,11.223,11.2014,11.1676,11.2384,11.3637,11.5178,11.6426,11.7656,11.8603,11.8508,11.7844,11.658,11.679,11.7061,11.6965,11.6754,11.6582,11.655,11.5993,11.5493,11.5461,11.5228,11.4873,11.4529,11.4356,11.4637,11.4883,11.5295,11.5204,11.4148,11.5587,11.6907,11.7574,11.9326,12.088,12.1807,12.2067,12.2481,12.3061,12.3501,12.4017,12.5196,12.6273,12.7127,12.8134,12.8458,12.8576,12.8843,12.8912,12.8636,12.8303,12.8062,12.8037,12.7743,12.6947,12.6364,12.5671,12.5782,12.6342,12.7004,12.7354,12.7808,12.8506,12.9381,12.9941,13.0572,13.1519,13.236,13.2853,13.345,13.3871,13.4082,13.4082,13.4224,13.4612,13.4891,13.5304,13.5747,13.6016,13.6149,10.6043,10.6043,10.6043,10.6593,10.7028,10.7919,10.8659,10.9521,10.8967,10.7982,10.6997,10.7305,10.8042,10.8874,10.9644,11.0383,11.1274,11.1637,11.1998,11.224,11.2735,11.3199,11.3515,11.3469,11.3607,11.3493,11.315,11.3115,11.2968,11.2691,11.2661,11.2907,11.2599,11.226,11.1953,11.1583,11.1275,11.0998,11.2143,11.3393,11.446,11.5648,11.6747,11.7465,11.7118,11.6828,11.6346,11.6148,11.6287,11.6467,11.686,11.7051,11.7019,11.749,11.7705,11.7705,11.8079,11.8079,11.7908,11.7551,11.7323,11.7493,11.7672,11.7645,11.735,11.8041,11.8733,11.9293,12.048,12.153,12.2426,12.3043,12.3758,12.4795,12.5482,12.6167,12.7093,12.7588,12.8271,12.9071,12.914,12.9291,12.9476,12.9476,12.9372,12.8958,12.8762,12.8608,12.8699,12.8291,12.7699,12.7386,12.7457,12.7878,12.8332,12.8541,12.8995,12.9661,13.0221,13.0922,13.1589,13.2537,13.2993,13.345,13.3871,13.4046,13.4082,13.4224,13.4471,13.4926,13.5167,13.5577,13.5882,13.6149,13.6318,10.7643,10.7826,10.8377,10.8807,10.9361,11.0386,11.1255,11.1839,11.1839,11.0665,10.8936,10.906,10.977,11.0666,11.1379,11.2433,11.3639,11.3885,11.4068,11.4495,11.4495,11.4558,11.4716,11.4136,11.3928,11.4148,11.3645,11.3353,11.3369,11.2845,11.2414,11.223,11.1737,11.1429,11.1275,11.0752,11.0414,11.0321,11.1811,11.3057,11.3774,11.5022,11.574,11.6264,11.5974,11.5839,11.617,11.5841,11.5975,11.6667,11.7369,11.789,11.8062,11.9138,11.9909,11.9942,12.027,12.0636,12.0434,11.9942,11.9614,11.9782,11.959,11.9855,12.0511,12.0806,12.0876,12.1208,12.1658,12.2432,12.3522,12.4514,12.5472,12.6677,12.7534,12.8186,12.8854,12.9194,12.9449,12.989,12.9959,13.0028,12.9959,12.9993,12.9959,12.9867,12.9656,12.9608,12.9792,12.9519,12.9346,12.9276,12.9171,12.9135,12.9482,12.9447,12.9763,13.0465,13.0781,13.1448,13.2431,13.2958,13.3344,13.3906,13.4046,13.4082,13.4082,13.433,13.4752,13.5029,13.5441,13.5846,13.6149,13.6318,13.6318,10.8536,10.921,10.9768,11.1098,11.2495,11.2713,11.2901,11.287,11.2808,11.2684,11.2466,11.1561,11.1623,11.203,11.2652,11.3148,11.3764,11.4313,11.4558,11.4558,11.4495,11.4842,11.5379,11.4828,11.4617,11.4835,11.4359,11.3785,11.3461,11.2845,11.2168,11.1645,11.1522,11.1152,11.066,11.0506,11.0198,10.9582,11.0572,11.1809,11.3025,11.427,11.5017,11.5569,11.5871,11.6202,11.617,11.7035,11.7824,11.8966,11.9459,12.0011,12.0289,12.0373,12.0414,12.0414,12.0252,11.9855,11.9557,11.9425,11.9723,11.9888,12.0477,12.1035,12.2119,12.3043,12.3304,12.2876,12.3271,12.4355,12.5381,12.6567,12.7357,12.7894,12.8529,12.9042,12.9694,13.0172,13.0717,13.1407,13.1304,13.1476,13.1304,13.1304,13.1283,13.1146,13.1006,13.0951,13.1024,13.0712,13.0361,13.0256,12.9974,12.9588,12.9517,12.9482,12.9904,13.0535,13.1238,13.201,13.2818,13.352,13.4046,13.3976,13.4082,13.4082,13.4224,13.4366,13.4752,13.5167,13.5441,13.5846,13.6149,13.6318,13.6318,11.079,11.1007,11.1996,11.2867,11.3928,11.4397,11.4804,11.4804,11.524,11.5396,11.5396,11.5016,11.4363,11.3805,11.4366,11.4926,11.5296,11.5512,11.5695,11.5695,11.5695,11.567,11.5552,11.5148,11.4741,11.4643,11.4101,11.3685,11.3399,11.2845,11.1953,11.0998,11.0906,11.0568,10.9983,11.029,11.0509,11.0636,11.1564,11.2586,11.3424,11.3759,11.4431,11.5173,11.5598,11.5956,11.649,11.6987,11.7846,11.8484,11.917,11.9679,11.9848,12.0878,12.1375,12.1575,12.2104,12.2536,12.2703,12.2703,12.2869,12.3364,12.3528,12.4021,12.4614,12.5078,12.54,12.555,12.5878,12.6341,12.6838,12.7957,12.8713,12.9248,12.9711,13.0431,13.086,13.1117,13.1373,13.1649,13.1683,13.1718,13.1683,13.1835,13.2185,13.2398,13.2208,13.1898,13.2113,13.1624,13.1378,13.1273,13.1027,13.043,12.9798,12.9904,13.043,13.1167,13.194,13.2712,13.3414,13.3801,13.4082,13.4082,13.4082,13.4082,13.4082,13.4647,13.5029,13.5304,13.5747,13.6149,13.6282,13.6318,13.6318,11.2403,11.2808,11.3894,11.4828,11.552,11.6244,11.6653,11.6745,11.7246,11.7465,11.7465,11.7465,11.6872,11.5992,11.5962,11.6275,11.6802,11.6612,11.6517,11.6517,11.6517,11.6332,11.5805,11.5211,11.4833,11.4292,11.3716,11.343,11.3215,11.2784,11.1891,11.0906,11.0752,11.0506,11.0137,11.0537,11.0941,11.1503,11.2528,11.3242,11.389,11.406,11.4476,11.5153,11.551,11.6138,11.7033,11.7522,11.8266,11.9203,12.0016,12.0449,12.068,12.2172,12.2935,12.3001,12.3897,12.4663,12.5165,12.5165,12.5331,12.5826,12.586,12.599,12.6512,12.6842,12.7231,12.7709,12.8229,12.8488,12.8318,12.9211,12.9899,13.0466,13.1119,13.172,13.2028,13.2166,13.2338,13.2304,13.2476,13.22,13.225,13.2636,13.3198,13.329,13.2981,13.2919,13.3134,13.2607,13.208,13.1939,13.1799,13.1203,13.0395,13.0571,13.1273,13.187,13.2572,13.3098,13.3906,13.4082,13.4082,13.4082,13.4082,13.4224,13.4366,13.4752,13.5304,13.5612,13.5882,13.6318,13.6282,13.6318,13.6546,11.2746,11.3921,11.5701,11.6833,11.7528,11.8192,11.8508,11.8383,11.8478,11.8478,11.8541,11.8509,11.8603,11.8194,11.7282,11.7155,11.7465,11.6896,11.6612,11.658,11.658,11.6178,11.5805,11.5211,11.4643,11.4292,11.3685,11.3215,11.2661,11.2568,11.2137,11.1491,11.146,11.1429,11.1306,11.1368,11.1619,11.2185,11.287,11.3709,11.4828,11.5594,11.5789,11.5586,11.6106,11.7162,11.8202,11.8647,11.9955,12.222,12.2663,12.3298,12.396,12.4463,12.4865,12.4965,12.5031,12.5265,12.5664,12.5863,12.5994,12.622,12.6484,12.6545,12.7231,12.7991,12.8524,12.8683,13.0085,13.05,13.0243,13.0689,13.1188,13.153,13.2373,13.2752,13.2821,13.3304,13.3821,13.3787,13.3649,13.3716,13.3536,13.4182,13.4094,13.3785,13.3795,13.3833,13.3658,13.3167,13.2639,13.2286,13.1793,13.1341,13.1554,13.1519,13.1904,13.2395,13.2604,13.3204,13.3695,13.4082,13.4082,13.4082,13.4082,13.4224,13.4471,13.5029,13.5476,13.5882,13.6016,13.6282,13.6318,13.6546,13.6806,11.4898,11.6332,11.7465,11.8002,11.8318,11.8982,11.9298,11.933,11.9772,11.9962,11.9962,11.993,11.9962,11.993,11.9014,11.8478,11.8224,11.7971,11.7623,11.7244,11.6808,11.6214,11.5242,11.4864,11.4292,11.3908,11.3523,11.3399,11.3184,11.3153,11.2815,11.223,11.2137,11.1953,11.1645,11.2333,11.2898,11.3493,11.4242,11.5363,11.6322,11.7083,11.7657,11.8564,11.8499,11.8947,12.0218,12.0944,12.1918,12.3247,12.3758,12.4027,12.4325,12.5094,12.6164,12.6996,12.7435,12.7771,12.8105,12.8105,12.8234,12.8124,12.8219,12.8381,12.8737,12.9135,12.9761,13.0838,13.146,13.1944,13.2374,13.246,13.2288,13.2545,13.3097,13.358,13.3614,13.3821,13.3994,13.3994,13.4269,13.4437,13.4533,13.4679,13.4589,13.4275,13.4001,13.3721,13.3325,13.3081,13.2871,13.2726,13.2405,13.2377,13.2377,13.2068,13.1998,13.2243,13.2522,13.3016,13.3616,13.3795,13.3795,13.4082,13.4082,13.4224,13.4612,13.5167,13.5747,13.6016,13.6318,13.6318,13.6318,13.6676,13.6936,11.7376,11.8634,11.933,11.9488,11.9393,12.0025,12.0183,12.0088,12.0499,12.072,12.072,12.072,12.072,12.0625,12.0215,11.9772,11.9267,11.8824,11.835,11.7908,11.7093,11.6371,11.5396,11.4576,11.4224,11.3861,11.4077,11.4169,11.4138,11.3953,11.3584,11.3184,11.2968,11.263,11.2291,11.3203,11.3769,11.4429,11.5367,11.6612,11.7538,11.8329,11.919,12.0599,12.066,12.0978,12.2023,12.2607,12.3418,12.4216,12.4689,12.5227,12.5895,12.6594,12.7766,12.9008,12.9345,12.9683,13.0151,13.0151,13.0081,12.9971,13.0067,13.023,13.0553,13.0714,13.1466,13.2317,13.2734,13.3131,13.3787,13.3718,13.3511,13.3408,13.389,13.4339,13.4373,13.458,13.4753,13.4822,13.5133,13.5422,13.5414,13.5262,13.4923,13.4617,13.4024,13.3528,13.2955,13.2885,13.292,13.2772,13.2667,13.2449,13.238,13.1849,13.2119,13.2328,13.2363,13.2893,13.336,13.336,13.3651,13.3939,13.4224,13.4366,13.4787,13.5476,13.5882,13.6149,13.6318,13.6318,13.6546,13.6806,13.7065,12.0025,12.0594,12.1384,12.1131,12.0625,12.1131,12.1226,12.0752,12.0752,12.0878,12.0973,12.0847,12.091,12.0752,12.0752,12.0689,12.0309,11.9361,11.8572,11.8383,11.7439,11.6495,11.5958,11.4918,11.4341,11.4446,11.5123,11.5369,11.5123,11.46,11.4261,11.4261,11.3676,11.3338,11.343,11.3977,11.4612,11.5242,11.6023,11.7081,11.8205,11.9246,12.0436,12.1587,12.2327,12.3091,12.3741,12.3708,12.4381,12.5385,12.5825,12.6999,12.8337,12.9105,12.981,13.0557,13.0792,13.0926,13.126,13.1392,13.1392,13.1189,13.162,13.1845,13.1939,13.2651,13.323,13.349,13.3682,13.4063,13.4235,13.4684,13.4753,13.4201,13.4684,13.5098,13.5236,13.5787,13.627,13.6132,13.6343,13.6516,13.5962,13.597,13.5565,13.4486,13.3999,13.3616,13.2876,13.2737,13.2588,13.2474,13.2324,13.2138,13.1987,13.1683,13.2254,13.2554,13.2633,13.2737,13.3179,13.336,13.3651,13.3939,13.4366,13.4647,13.5065,13.5747,13.6016,13.6318,13.6318,13.645,13.6676,13.6936,13.732,12.091,12.0783,12.1415,12.1128,12.0144,12.0332,12.0521,12.0836,12.0836,12.1313,12.2079,12.2142,12.1858,12.1479,12.1384,12.1131,12.0689,11.9832,11.9232,11.876,11.7934,11.6925,11.5694,11.5175,11.498,11.46,11.4723,11.46,11.4231,11.3984,11.383,11.3769,11.3646,11.3716,11.4132,11.4483,11.5209,11.6245,11.7212,11.8333,11.9522,12.0464,12.1684,12.3012,12.3813,12.4795,12.6272,12.5445,12.5545,12.6809,12.7081,12.7719,12.9067,12.9981,13.0656,13.1432,13.1836,13.2003,13.217,13.2136,13.1933,13.1561,13.1954,13.2246,13.2535,13.3118,13.38,13.4336,13.463,13.4925,13.5477,13.5787,13.558,13.4856,13.5477,13.5891,13.5891,13.6132,13.627,13.6305,13.662,13.6759,13.6482,13.6478,13.5831,13.4637,13.3931,13.3376,13.2381,13.2138,13.1987,13.1835,13.1835,13.1766,13.1697,13.1545,13.1918,13.2185,13.2185,13.2588,13.3032,13.336,13.3506,13.3939,13.4507,13.4926,13.5476,13.5882,13.6149,13.6414,13.6546,13.6676,13.6806,13.7121,13.7357,12.1605,12.1542,12.1728,12.1281,12.0358,12.0547,12.0767,12.1018,12.1465,12.2201,12.2743,12.2774,12.2553,12.2111,12.1826,12.1286,12.0714,12.0238,11.9474,11.8679,11.7978,11.7223,11.609,11.5597,11.5185,11.4692,11.4785,11.4692,11.4261,11.4015,11.3892,11.3861,11.3646,11.3839,11.4633,11.5237,11.6119,11.7438,11.8498,11.9585,12.0861,12.1714,12.2933,12.4469,12.5181,12.6156,12.7472,12.6942,12.7041,12.7869,12.8408,12.9155,13.014,13.1093,13.1971,13.2511,13.278,13.2948,13.2948,13.2948,13.2946,13.2671,13.2899,13.3422,13.3711,13.4191,13.4817,13.5319,13.558,13.5787,13.6167,13.6305,13.6063,13.5649,13.596,13.6305,13.6305,13.6305,13.6305,13.6305,13.6463,13.662,13.6603,13.6551,13.5685,13.4665,13.4042,13.3128,13.225,13.1683,13.1683,13.1683,13.1683,13.1545,13.1304,13.1373,13.1511,13.1663,13.1745,13.237,13.2885,13.3214,13.3506,13.4189,13.4752,13.5029,13.5577,13.6016,13.6282,13.6414,13.6533,13.6936,13.7121,13.6979,13.7174,12.2142,12.2711,12.2094,12.1489,12.1018,12.1489,12.152,12.1332,12.2163,12.2901,12.2996,12.3122,12.2964,12.2711,12.2269,12.1533,12.0861,12.0133,11.9367,11.8332,11.7732,11.7329,11.704,11.6028,11.5246,11.4846,11.5123,11.5277,11.4938,11.4477,11.4508,11.4354,11.3923,11.431,11.5383,11.5923,11.7187,11.854,11.9784,12.1022,12.2574,12.3275,12.4103,12.5674,12.6475,12.7321,12.7761,12.8399,12.8731,12.9039,12.9886,13.0808,13.1354,13.2439,13.3186,13.3591,13.3659,13.3692,13.3726,13.3928,13.3928,13.4429,13.4759,13.525,13.554,13.5931,13.6159,13.6387,13.6387,13.6353,13.6422,13.6615,13.6546,13.6374,13.6339,13.6339,13.6305,13.6305,13.6305,13.6305,13.6305,13.6305,13.627,13.6324,13.553,13.4408,13.3976,13.2994,13.2166,13.1683,13.1649,13.158,13.1407,13.1062,13.0717,13.0648,13.0786,13.0938,13.1261,13.2127,13.2815,13.329,13.3585,13.4295,13.4679,13.5162,13.5428,13.5579,13.5843,13.5996,13.6362,13.6977,13.7015,13.6813,13.6806,12.1716,12.1465,12.0814,12.0523,12.0398,12.0585,12.1346,12.2399,12.2817,12.3589,12.4196,12.4323,12.3975,12.3564,12.292,12.2125,12.0979,11.9982,11.9151,11.8352,11.78,11.7478,11.72,11.6077,11.5462,11.5246,11.5,11.4538,11.4077,11.4046,11.4138,11.4508,11.4773,11.5346,11.6514,11.7564,11.8666,11.9831,12.0857,12.2095,12.3319,12.4774,12.5669,12.6109,12.7476,12.8279,12.8841,12.9746,13.02,13.0119,13.1242,13.199,13.254,13.3083,13.3591,13.3828,13.3794,13.3997,13.4403,13.4808,13.5213,13.5891,13.6454,13.6954,13.679,13.7118,13.7315,13.7118,13.7315,13.7443,13.7443,13.7731,13.7684,13.7167,13.6684,13.6374,13.6305,13.6305,13.6305,13.6305,13.6305,13.6305,13.6201,13.5787,13.5132,13.4201,13.3511,13.289,13.2028,13.1545,13.1442,13.1028,13.0752,13.0372,13.0097,12.9993,12.9959,13.0109,13.0789,13.2076,13.283,13.3655,13.3908,13.4184,13.4418,13.4689,13.4556,13.4557,13.4923,13.5409,13.5684,13.6168,13.62,13.6011,13.6372,12.0665,12.0156,12.0045,11.9972,12.0263,12.0762,12.1878,12.2965,12.354,12.4252,12.4829,12.4892,12.4441,12.3833,12.332,12.239,12.1043,12.0022,11.9158,11.8418,11.7878,11.7401,11.697,11.6201,11.58,11.5493,11.5123,11.4785,11.4477,11.4354,11.46,11.5298,11.5524,11.6446,11.784,11.8667,11.9739,12.1092,12.1963,12.302,12.446,12.5426,12.6178,12.6685,12.8057,12.9138,12.9865,13.0685,13.1184,13.1126,13.1884,13.2599,13.3418,13.3963,13.4301,13.4572,13.464,13.4843,13.5486,13.5588,13.5926,13.6603,13.7206,13.7206,13.7171,13.7405,13.7405,13.7337,13.757,13.757,13.7735,13.8061,13.8179,13.7891,13.7236,13.6684,13.6374,13.6305,13.6305,13.6305,13.6305,13.6305,13.627,13.558,13.4822,13.4063,13.3373,13.2614,13.1856,13.1511,13.1062,13.0579,13.0097,12.9717,12.9441,12.9338,12.9567,12.9716,13.0505,13.1819,13.2671,13.345,13.366,13.3822,13.3915,13.4067,13.3963,13.41,13.4677,13.5073,13.5196,13.5456,13.5661,13.5357,13.5746,11.9656,11.9193,11.9512,12.0022,12.0762,12.1854,12.2942,12.3666,12.4567,12.4987,12.5018,12.4923,12.44,12.38,12.3236,12.246,12.1234,12.0087,11.9036,11.8433,11.7801,11.7339,11.6878,11.6601,11.617,11.577,11.5616,11.5462,11.5308,11.5369,11.572,11.6173,11.64,11.7549,11.8851,11.9741,12.0625,12.2009,12.279,12.3849,12.5194,12.5734,12.6586,12.7373,12.8602,12.9766,13.0652,13.124,13.1593,13.1868,13.2218,13.3141,13.4023,13.4605,13.5147,13.5621,13.5688,13.5927,13.6504,13.6368,13.6436,13.7281,13.7079,13.6943,13.7483,13.7551,13.7551,13.7418,13.7312,13.765,13.7816,13.8078,13.8336,13.8454,13.7995,13.7236,13.6615,13.6339,13.6305,13.6305,13.6305,13.6305,13.5994,13.5511,13.4684,13.3649,13.2959,13.22,13.1545,13.1097,13.0579,12.9993,12.951,12.9027,12.882,12.8831,12.9093,12.9386,13.028,13.1411,13.2221,13.2851,13.2952,13.3114,13.3401,13.3677,13.3614,13.3996,13.4391,13.4619,13.4661,13.5274,13.5693,13.5099,13.4964,11.9667,12.0226,12.0676,12.167,12.2665,12.3881,12.5113,12.5956,12.5808,12.5451,12.4924,12.4484,12.3863,12.346,12.2806,12.2089,12.1358,12.0086,11.905,11.777,11.7678,11.7524,11.7216,11.6847,11.6508,11.6231,11.577,11.5585,11.5585,11.5739,11.5997,11.705,11.7698,11.8592,12.0118,12.1131,12.1977,12.2822,12.3794,12.455,12.5585,12.6581,12.7318,12.8159,12.9293,13.0082,13.0818,13.1416,13.2035,13.282,13.3543,13.4091,13.4841,13.5418,13.579,13.5993,13.606,13.623,13.6773,13.7148,13.7522,13.8271,13.844,13.8645,13.8475,13.8373,13.8237,13.8134,13.8305,13.8474,13.9112,13.9415,13.9402,13.9178,13.8685,13.7926,13.727,13.665,13.6339,13.6305,13.6305,13.6063,13.5477,13.4787,13.4028,13.3235,13.2442,13.1683,13.1131,13.0648,12.9993,12.9338,12.882,12.8338,12.8427,12.847,12.8942,12.923,13.008,13.0851,13.1689,13.2175,13.2441,13.2665,13.2941,13.3077,13.3279,13.3365,13.3647,13.3866,13.4033,13.4459,13.4662,13.4198,13.4133,12.0087,12.049,12.1451,12.2509,12.3383,12.4695,12.5556,12.5916,12.5383,12.5086,12.4883,12.41,12.3414,12.3225,12.274,12.2164,12.129,12.0191,11.9032,11.814,11.777,11.7555,11.7524,11.7247,11.7001,11.6939,11.6693,11.6478,11.6478,11.6645,11.7287,11.8125,11.8742,11.9672,12.0816,12.1858,12.2579,12.3425,12.4301,12.5187,12.6182,12.6983,12.8219,12.8964,12.9721,13.0493,13.124,13.2135,13.2786,13.3778,13.473,13.5446,13.5824,13.6196,13.6534,13.6906,13.694,13.7248,13.7758,13.786,13.8202,13.8747,13.8781,13.8609,13.8609,13.8437,13.8437,13.8264,13.8403,13.8781,13.9629,13.9796,13.9787,13.9591,13.8995,13.8236,13.7512,13.6788,13.6305,13.6305,13.6305,13.5891,13.5236,13.4373,13.3614,13.2959,13.1752,13.0993,13.0579,13.0028,12.9234,12.8613,12.8096,12.783,12.7882,12.8103,12.8816,12.9276,12.9835,13.0319,13.0905,13.1485,13.199,13.2205,13.2613,13.2777,13.2934,13.3012,13.3263,13.3608,13.3922,13.3753,13.3579,13.3549,13.3547,12.0412,12.0629,12.2071,12.2803,12.3398,12.4724,12.5254,12.5192,12.4599,12.4568,12.4643,12.3553,12.3069,12.3,12.2423,12.197,12.1301,12.0387,11.9371,11.8478,11.8017,11.774,11.7586,11.7493,11.7463,11.7555,11.7401,11.7401,11.7601,11.8123,11.8301,11.9078,11.9694,12.0402,12.1386,12.2173,12.3022,12.4029,12.4883,12.5651,12.6776,12.7536,12.8513,12.9721,13.0247,13.0805,13.1716,13.2678,13.3671,13.4461,13.6159,13.694,13.7177,13.7211,13.738,13.8022,13.7887,13.8061,13.8233,13.8162,13.8196,13.8609,13.8437,13.809,13.809,13.809,13.809,13.809,13.8264,13.8609,13.9292,13.9256,13.9449,13.9359,13.8926,13.8098,13.7477,13.6788,13.6374,13.627,13.6029,13.5546,13.4891,13.4097,13.3408,13.258,13.1338,13.0338,12.9924,12.9407,12.8613,12.8037,12.7519,12.73,12.7275,12.7525,12.8157,12.9028,12.9545,13.0022,13.0494,13.134,13.1943,13.1857,13.2095,13.2451,13.271,13.2927,13.321,13.3596,13.3539,13.3217,13.3001,13.2817,13.2772,12.0962,12.1517,12.2763,12.331,12.361,12.4768,12.5286,12.5161,12.4568,12.4145,12.3765,12.2989,12.2268,12.1948,12.1918,12.131,12.091,12.0418,11.974,11.8786,11.8355,11.8109,11.7616,11.7555,11.7555,11.7555,11.7555,11.7755,11.8123,11.8321,11.8913,11.9694,12.0305,12.107,12.2049,12.3086,12.3844,12.4731,12.5595,12.6557,12.7165,12.7992,12.8991,13.0099,13.0493,13.1327,13.2359,13.3154,13.4107,13.5774,13.6666,13.7312,13.7684,13.782,13.7921,13.8022,13.809,13.8264,13.8264,13.8264,13.809,13.8264,13.809,13.809,13.809,13.809,13.809,13.809,13.8264,13.8437,13.9292,13.8948,13.9038,13.905,13.8512,13.7615,13.727,13.6788,13.627,13.6132,13.5684,13.5029,13.427,13.3477,13.2614,13.1752,13.0683,12.9683,12.9062,12.8579,12.8027,12.7485,12.6975,12.6824,12.6726,12.69,12.7351,12.856,12.921,12.9857,13.0558,13.1465,13.1916,13.1648,13.1968,13.248,13.2699,13.2848,13.2899,13.3062,13.2853,13.2599,13.2485,13.2295,13.1801,12.1486,12.2062,12.3186,12.3465,12.3558,12.4386,12.4665,12.4364,12.3744,12.3444,12.3143,12.2526,12.201,12.1957,12.171,12.1372,12.1126,12.0695,12.0017,11.9186,11.8725,11.8201,11.7647,11.7555,11.7555,11.7755,11.7755,11.8123,11.8321,11.8913,11.9304,11.9887,12.0657,12.1419,12.2336,12.3033,12.4204,12.519,12.6119,12.7076,12.7741,12.8938,12.9737,13.0346,13.1095,13.1816,13.2945,13.4007,13.4994,13.6459,13.7173,13.7718,13.7955,13.809,13.809,13.809,13.809,13.809,13.809,13.809,13.809,13.809,13.809,13.809,13.809,13.809,13.809,13.8056,13.8403,13.8611,13.8914,13.8671,13.8688,13.8386,13.7788,13.7305,13.6891,13.6512,13.6167,13.5787,13.5339,13.458,13.3511,13.2683,13.1787,13.0855,12.9959,12.9062,12.8234,12.7717,12.7381,12.6982,12.6577,12.6481,12.6409,12.6578,12.6954,12.7948,12.8699,12.9339,13.0033,13.0789,13.1215,13.1136,13.1665,13.223,13.2224,13.2065,13.237,13.2449,13.2124,13.1792,13.1819,13.1691,13.0975,12.1794,12.2237,12.2825,12.3042,12.3104,12.3599,12.3607,12.3096,12.2634,12.2634,12.3003,12.2141,12.1864,12.2141,12.1895,12.1557,12.1557,12.1002,12.0448,11.9771,11.9125,11.8448,11.7924,11.7616,11.7755,11.7924,11.8321,11.8519,11.8716,11.9304,11.9887,12.0273,12.1038,12.1767,12.253,12.3416,12.4659,12.5522,12.648,12.7244,12.8721,12.9587,13.0313,13.0917,13.1416,13.2169,13.3631,13.445,13.5779,13.6936,13.7718,13.8056,13.809,13.809,13.809,13.809,13.809,13.809,13.809,13.809,13.809,13.809,13.809,13.809,13.809,13.8056,13.8022,13.8094,13.8165,13.8339,13.8231,13.8255,13.813,13.7731,13.7339,13.6995,13.6512,13.6063,13.5546,13.5201,13.4925,13.4132,13.3063,13.1959,13.1097,13.0303,12.9372,12.8303,12.7475,12.6967,12.6705,12.6476,12.6168,12.6167,12.6193,12.6421,12.6829,12.741,12.8146,12.8709,12.9323,12.9841,13.0152,13.0477,13.1058,13.1391,13.1375,13.1534,13.1721,13.1686,13.1246,13.1017,13.0926,13.0497,12.9738,12.1587,12.1587,12.1887,12.171,12.1948,12.2072,12.1864,12.1895,12.1834,12.1741,12.2018,12.1741,12.1649,12.171,12.171,12.1587,12.1557,12.1433,12.0972,12.0294,11.974,11.9063,11.8417,11.7801,11.8016,11.8154,11.8716,11.8913,11.9109,11.9694,12.0081,12.0689,12.1102,12.1799,12.2626,12.38,12.5325,12.6097,12.7088,12.8163,12.9188,12.9951,13.0313,13.0884,13.155,13.2578,13.4033,13.5027,13.6189,13.7718,13.7989,13.809,13.809,13.809,13.809,13.809,13.809,13.809,13.809,13.809,13.809,13.809,13.809,13.809,13.8056,13.7955,13.7752,13.7143,13.7658,13.7658,13.7445,13.7125,13.7168,13.7111,13.6857,13.6581,13.6201,13.5718,13.5201,13.4235,13.3821,13.3373,13.2614,13.1511,13.0407,12.9648,12.8786,12.7682,12.6863,12.6318,12.5918,12.5646,12.5748,12.5636,12.5901,12.6124,12.6422,12.6966,12.7587,12.8235,12.8715,12.9276,12.9565,12.9884,13.027,13.0618,13.0588,13.0701,13.1029,13.0771,13.0247,12.9978,12.988,12.9296,12.8605,12.1587,12.1587,12.1587,12.1587,12.1587,12.1587,12.1587,12.1587,12.1587,12.1587,12.1587,12.1587,12.1587,12.1587,12.1587,12.1587,12.1587,12.1587,12.1218,12.0725,12.0233,11.9587,11.8927,11.8665,11.8618,11.855,11.9109,11.9499,11.9694,12.0081,12.0497,12.0689,12.1133,12.1863,12.2689,12.3931,12.5143,12.6452,12.7723,12.9003,12.9769,13.0313,13.0884,13.124,13.2135,13.3463,13.4618,13.5847,13.6801,13.7921,13.809,13.809,13.809,13.809,13.809,13.809,13.809,13.809,13.809,13.809,13.809,13.809,13.809,13.809,13.8022,13.7684,13.738,13.7041,13.7285,13.721,13.6796,13.6972,13.6882,13.6822,13.6477,13.6063,13.5753,13.5408,13.4822,13.3718,13.2683,13.22,13.1649,13.0579,12.9545,12.8855,12.7924,12.6854,12.6214,12.574,12.5262,12.4909,12.4972,12.5136,12.5464,12.5787,12.6139,12.6537,12.7201,12.7714,12.8187,12.8619,12.8757,12.878,12.8981,12.9242,12.9498,12.9679,12.982,12.9446,12.9097,12.9034,12.8865,12.8494,12.7745,12.138,12.1411,12.1587,12.1587,12.1587,12.1587,12.1587,12.1587,12.1587,12.1587,12.1587,12.1587,12.1587,12.1587,12.1618,12.168,12.1864,12.168,12.1433,12.1126,12.0838,12.0098,11.953,11.9468,11.9171,11.8716,11.9499,11.9887,12.0112,12.0497,12.0689,12.0689,12.1038,12.1831,12.2943,12.3995,12.5111,12.7157,12.8601,12.9554,13.0132,13.0526,13.1062,13.1793,13.282,13.3906,13.5168,13.6223,13.7312,13.7921,13.809,13.809,13.809,13.809,13.809,13.809,13.809,13.809,13.809,13.809,13.809,13.8022,13.7853,13.7718,13.7684,13.7177,13.6706,13.6435,13.6773,13.6591,13.6372,13.6618,13.6697,13.6477,13.6132,13.5649,13.5132,13.4615,13.3925,13.289,13.1821,13.089,13.0234,12.9407,12.8613,12.7993,12.7061,12.6138,12.5528,12.5122,12.4705,12.4342,12.4301,12.4391,12.4504,12.4963,12.5417,12.6062,12.6591,12.7004,12.736,12.7487,12.7581,12.756,12.775,12.7858,12.8109,12.8321,12.8567,12.8481,12.8318,12.803,12.7844,12.7354,12.6577,12.0784,12.0784,12.1411,12.1587,12.1587,12.1587,12.1587,12.1587,12.1587,12.1587,12.1587,12.1587,12.1587,12.1618,12.1741,12.1987,12.248,12.1895,12.1926,12.1979,12.163,12.111,12.0568,12.0146,12.0117,11.9882,11.9919,12.0273,12.0497,12.0497,12.072,12.072,12.088,12.1926,12.3198,12.4378,12.6125,12.7911,12.922,12.9587,13.0132,13.0672,13.124,13.1726,13.282,13.3906,13.5168,13.6429,13.7346,13.8022,13.809,13.809,13.809,13.809,13.809,13.809,13.7921,13.7921,13.7921,13.8022,13.8056,13.7887,13.7515,13.7075,13.7041,13.6399,13.5927,13.5723,13.602,13.6071,13.5883,13.6022,13.6236,13.6029,13.558,13.5029,13.4373,13.3511,13.2821,13.189,13.0924,12.989,12.8993,12.8165,12.7786,12.7199,12.6311,12.5419,12.4842,12.4565,12.4277,12.3845,12.3865,12.361,12.34,12.3818,12.4711,12.5153,12.5761,12.6021,12.619,12.6389,12.6944,12.6841,12.6949,12.6868,12.6639,12.6736,12.7014,12.7482,12.7426,12.6788,12.5781,12.504,12.4269,12.0574,12.0364,12.0544,12.0544,12.0544,12.0544,12.0754,12.0994,12.1202,12.1411,12.1587,12.1587,12.1587,12.171,12.208,12.2326,12.2572,12.2773,12.2835,12.2856,12.2647,12.2074,12.1591,12.1273,12.1042,12.0578,12.0557,12.0497,12.0689,12.072,12.072,12.072,12.072,12.1958,12.323,12.5207,12.7147,12.8373,12.9404,12.9769,13.0526,13.1029,13.1593,13.201,13.3202,13.4461,13.5514,13.6429,13.7346,13.7887,13.8056,13.809,13.8056,13.8056,13.8022,13.7955,13.7684,13.7447,13.7515,13.7718,13.7887,13.7312,13.6805,13.6331,13.6297,13.5654,13.5351,13.5415,13.547,13.5422,13.5701,13.554,13.5511,13.5373,13.4994,13.4373,13.3614,13.2718,13.1752,13.089,12.9786,12.8717,12.7855,12.6992,12.6716,12.6337,12.5592,12.4805,12.4184,12.3967,12.3537,12.3443,12.3293,12.3236,12.2893,12.3432,12.3946,12.4399,12.496,12.5167,12.5517,12.6365,12.6769,12.6549,12.6102,12.5726,12.5519,12.528,12.5452,12.5956,12.5659,12.4912,12.3949,12.2894,12.2222,12.0153,11.9699,11.9486,11.9699,11.9911,11.9911,12.0333,12.0815,12.0815,12.1202,12.1618,12.1772,12.1895,12.2049,12.2326,12.3182,12.3545,12.3691,12.3744,12.3909,12.3882,12.3241,12.266,12.2274,12.1748,12.1344,12.0907,12.072,12.072,12.072,12.072,12.072,12.0783,12.1926,12.3931,12.6387,12.826,12.922,12.9587,12.9951,13.0884,13.1416,13.1768,13.2425,13.3376,13.4633,13.572,13.6602,13.7346,13.782,13.809,13.809,13.8022,13.7887,13.7786,13.7515,13.7143,13.6703,13.6838,13.7008,13.7211,13.6669,13.5993,13.5654,13.5384,13.508,13.4908,13.5173,13.5224,13.5207,13.5518,13.5319,13.4994,13.4822,13.4097,13.3477,13.2683,13.1821,13.0821,12.9855,12.8786,12.7717,12.6725,12.5827,12.5142,12.4797,12.432,12.3629,12.3241,12.3018,12.2934,12.2741,12.2649,12.2716,12.2651,12.2935,12.3208,12.3803,12.4188,12.4755,12.5276,12.5824,12.6003,12.5481,12.4921,12.4603,12.4215,12.3957,12.403,12.4421,12.3821,12.3154,12.2138,12.1095,12.0601,11.9119,11.9089,11.8414,11.8845,11.9699,11.9911,12.0153,12.0605,12.0876,12.1294,12.1772,12.2265,12.2572,12.2603,12.2935,12.373,12.486,12.4851,12.481,12.4974,12.496,12.4221,12.3477,12.2857,12.2453,12.1731,12.1194,12.0878,12.072,12.072,12.072,12.0815,12.1196,12.2149,12.4312,12.7205,12.8819,12.9371,12.9737,13.0313,13.0884,13.1416,13.1943,13.2459,13.338,13.4569,13.5483,13.6196,13.694,13.7684,13.7887,13.7887,13.7887,13.7414,13.7177,13.6974,13.6331,13.5959,13.5925,13.5959,13.5925,13.5824,13.5248,13.4843,13.4843,13.4537,13.4361,13.4856,13.5173,13.5278,13.5285,13.4994,13.4511,13.3994,13.327,13.2511,13.1718,13.0786,12.9752,12.8855,12.7889,12.682,12.5689,12.4624,12.3625,12.3212,12.2795,12.2614,12.2325,12.2207,12.2225,12.2204,12.2237,12.1979,12.2031,12.2197,12.2494,12.296,12.338,12.3791,12.4011,12.4189,12.4246,12.408,12.3724,12.3285,12.289,12.2584,12.2419,12.2105,12.1917,12.1309,12.0193,11.9333,11.8791,11.8875,11.8444,11.8198,11.8414,11.8845,11.8845,11.9273,12.0425,12.1422,12.2056,12.2295,12.2542,12.312,12.3576,12.397,12.4612,12.5712,12.6398,12.626,12.5838,12.5679,12.503,12.4315,12.3558,12.3059,12.2395,12.1731,12.1036,12.072,12.072,12.072,12.0815,12.2085,12.3421,12.4916,12.7108,12.8851,12.9371,12.9951,13.0313,13.0884,13.1593,13.2118,13.2325,13.3317,13.4301,13.5181,13.5621,13.6263,13.7177,13.7346,13.738,13.7346,13.694,13.6703,13.6297,13.5587,13.4944,13.464,13.4504,13.4707,13.4741,13.4572,13.4166,13.3997,13.4164,13.4254,13.4336,13.4717,13.4625,13.4389,13.3856,13.3339,13.3028,13.2373,13.1511,13.0648,12.9579,12.8579,12.7786,12.6889,12.5551,12.4313,12.3454,12.2587,12.2061,12.1708,12.1982,12.19,12.1743,12.1653,12.1827,12.1783,12.1412,12.1365,12.1626,12.1883,12.2303,12.2417,12.2381,12.2626,12.2939,12.3166,12.3321,12.2624,12.1859,12.1459,12.0918,12.0096,11.9714,11.9216,11.8929,11.8208,11.7293,11.6705,11.866,11.8228,11.8198,11.8198,11.8198,11.8444,11.9059,12.0486,12.1877,12.248,12.2326,12.2688,12.3391,12.4302,12.4758,12.5702,12.6804,12.728,12.7346,12.6654,12.6397,12.5903,12.5176,12.4291,12.3375,12.2774,12.2048,12.1352,12.0752,12.072,12.088,12.1387,12.3166,12.4056,12.5486,12.723,12.9036,12.9554,12.9951,13.0526,13.1062,13.1593,13.2291,13.2465,13.3148,13.4098,13.4572,13.4978,13.5316,13.6263,13.6635,13.6635,13.6602,13.6331,13.606,13.5451,13.4843,13.4234,13.3895,13.3828,13.4098,13.4301,13.3895,13.3726,13.3926,13.4021,13.4207,13.4122,13.4225,13.3923,13.358,13.2821,13.2304,13.1993,13.1269,13.0407,12.9545,12.851,12.7648,12.6854,12.5647,12.4382,12.3142,12.224,12.1365,12.097,12.0772,12.1017,12.1358,12.1126,12.0925,12.1093,12.1077,12.0783,12.0795,12.1231,12.1471,12.1621,12.1725,12.1754,12.2095,12.2572,12.2613,12.2389,12.1385,12.0516,11.986,11.9157,11.7879,11.6787,11.5904,11.5759,11.5799,11.5432,11.4831,11.8198,11.8198,11.8198,11.8198,11.8414,11.8875,11.9729,12.0876,12.2117,12.2265,12.1741,12.3073,12.3961,12.4665,12.5173,12.651,12.7863,12.8052,12.8054,12.7628,12.7072,12.644,12.5587,12.4576,12.3659,12.2838,12.2142,12.1573,12.0815,12.072,12.088,12.1735,12.3387,12.431,12.5861,12.7601,12.9089,12.9587,13.0313,13.0705,13.1062,13.1768,13.2118,13.2637,13.3252,13.3862,13.4403,13.4673,13.5079,13.5587,13.5891,13.5891,13.5654,13.5181,13.4944,13.4572,13.4064,13.3862,13.3692,13.3659,13.3523,13.3625,13.3489,13.3858,13.4021,13.3805,13.3711,13.3586,13.3422,13.3115,13.2649,13.1924,13.1269,13.0683,12.9993,12.9234,12.8441,12.7579,12.6751,12.5751,12.4584,12.3276,12.2171,12.116,12.0552,12.0177,11.991,11.9827,11.9933,11.9849,11.9839,12.0069,12.013,12.0035,12.0328,12.0895,12.1115,12.114,12.1628,12.186,12.2049,12.1793,12.1418,12.085,11.9994,11.9034,11.7879,11.6601,11.5233,11.4194,11.3711,11.3562,11.3973,11.3633,11.3131,11.8198,11.8198,11.8198,11.8444,11.8875,11.9972,12.0574,12.0907,12.2117,12.2658,12.2949,12.3868,12.481,12.6385,12.6685,12.7629,12.8275,12.8701,12.8322,12.7957,12.7293,12.6567,12.5808,12.4955,12.3912,12.309,12.2427,12.1826,12.0973,12.072,12.1292,12.2049,12.3608,12.4687,12.608,12.8134,12.8959,12.9587,13.0313,13.0705,13.1062,13.1768,13.2118,13.2465,13.3184,13.3929,13.4031,13.4098,13.4504,13.4944,13.5079,13.5113,13.5079,13.4876,13.4673,13.4064,13.3794,13.3692,13.3591,13.3151,13.2847,13.2878,13.2739,13.2972,13.3267,13.3379,13.3072,13.2837,13.2529,13.1959,13.1269,13.0614,13.0097,12.9579,12.8889,12.8131,12.7372,12.6579,12.5716,12.4515,12.3238,12.2241,12.116,12.0454,11.9872,11.9419,11.9076,11.8885,11.8834,11.8905,11.9114,11.9371,11.949,11.9491,11.9917,12.0501,12.0668,12.0891,12.1119,12.1122,12.0956,12.0574,12.0057,11.9069,11.771,11.6594,11.5456,11.412,11.2851,11.2663,11.2281,11.2093,11.1939,11.1622,11.1365,11.8198,11.8198,11.8198,11.866,11.9547,12.0669,12.1182,12.1632,12.2141,12.2825,12.3093,12.4126,12.546,12.667,12.7189,12.7928,12.8937,12.8968,12.8747,12.8368,12.7357,12.6819,12.6124,12.5303,12.426,12.347,12.2774,12.2174,12.1226,12.0752,12.126,12.2141,12.3608,12.4719,12.6201,12.8036,12.9273,12.9769,13.0313,13.0705,13.124,13.1768,13.2118,13.2465,13.3184,13.3524,13.3692,13.3692,13.3997,13.4301,13.4369,13.4369,13.4369,13.4335,13.4267,13.3692,13.332,13.3219,13.3016,13.2475,13.2336,13.2129,13.1845,13.2033,13.2354,13.2468,13.2097,13.1789,13.1117,13.051,12.9821,12.92,12.8889,12.8579,12.782,12.7061,12.6303,12.5544,12.4481,12.3276,12.2172,12.1195,12.0314,11.9802,11.9081,11.8478,11.8059,11.7987,11.8038,11.8315,11.859,11.8981,11.9054,11.9191,11.9599,11.9874,12.0024,11.9986,11.9935,11.9889,11.967,11.898,11.8244,11.6839,11.5186,11.4117,11.3188,11.2027,11.0901,11.0733,11.029,10.9631,10.947,10.9711,10.9394,11.8198,11.8198,11.8258,11.924,12.0154,12.1398,12.2307,12.2603,12.2763,12.2598,12.302,12.4601,12.5822,12.6748,12.7722,12.8259,12.8874,12.8968,12.8968,12.8874,12.7515,12.6819,12.6409,12.5555,12.4481,12.3754,12.3059,12.2269,12.1573,12.1228,12.1292,12.2297,12.3608,12.4847,12.6039,12.8134,12.9338,12.9554,13.0313,13.0884,13.1062,13.1593,13.2291,13.2465,13.3014,13.3692,13.3692,13.3692,13.3692,13.3726,13.3726,13.3794,13.3794,13.3794,13.3726,13.3422,13.2948,13.2644,13.2305,13.173,13.1756,13.1342,13.101,13.1056,13.1303,13.1342,13.0963,13.0772,13.0234,12.9269,12.8475,12.7993,12.7648,12.7165,12.651,12.5682,12.482,12.3963,12.2792,12.1686,12.1059,12.0105,11.9287,11.8637,11.8142,11.746,11.712,11.7041,11.7101,11.7442,11.7888,11.8376,11.8653,11.8733,11.8795,11.9049,11.9291,11.9238,11.9081,11.8896,11.8847,11.7748,11.6333,11.4897,11.3373,11.2103,11.0938,10.988,10.9028,10.835,10.7834,10.6939,10.6904,10.7341,10.7434,11.8198,11.8258,11.9602,12.0943,12.2039,12.289,12.3613,12.4001,12.4468,12.4581,12.4911,12.6089,12.6906,12.7502,12.8336,12.8842,12.8905,12.9,12.9,12.8558,12.7546,12.6914,12.663,12.5524,12.4576,12.3817,12.3059,12.2174,12.1226,12.1006,12.1323,12.2205,12.3576,12.4847,12.591,12.8101,12.9338,12.9371,13.0313,13.0884,13.1062,13.1416,13.191,13.2291,13.2809,13.3354,13.3524,13.3692,13.3692,13.3726,13.3726,13.3726,13.3726,13.3692,13.3354,13.288,13.2508,13.2102,13.1561,13.0952,13.084,13.0689,13.0419,13.0222,13.0054,13.0,12.9739,12.9648,12.9096,12.8062,12.7234,12.682,12.6337,12.582,12.5199,12.4268,12.3302,12.2239,12.1063,12.0538,11.9966,11.9148,11.8322,11.7665,11.7126,11.6681,11.6345,11.6046,11.6,11.6304,11.6885,11.7361,11.8048,11.8179,11.8257,11.8291,11.8593,11.875,11.8785,11.8477,11.7933,11.585,11.3856,11.3038,11.1765,11.0185,10.893,10.822,10.7346,10.6458,10.5975,10.536,10.4723,10.4911,10.5123,11.8594,11.9356,12.1064,12.2192,12.2984,12.3927,12.4712,12.5193,12.6066,12.6604,12.6573,12.7346,12.7817,12.8115,12.8684,12.9,12.9,12.9,12.9,12.8589,12.7704,12.7072,12.6345,12.5555,12.4923,12.4133,12.3154,12.2174,12.0973,12.072,12.1133,12.2269,12.3512,12.4879,12.6007,12.8003,12.9371,12.9371,13.0313,13.0884,13.0884,13.1416,13.1559,13.2118,13.2637,13.298,13.3354,13.3524,13.3692,13.3692,13.3692,13.3354,13.3253,13.3083,13.2711,13.2136,13.1663,13.1358,13.0749,13.0236,12.9916,12.9727,12.9211,12.8888,12.8816,12.8602,12.82,12.7924,12.7613,12.6682,12.613,12.5647,12.5233,12.4751,12.4278,12.3521,12.231,12.0992,12.0395,12.0071,11.9148,11.7972,11.728,11.6862,11.6434,11.5813,11.5416,11.5579,11.5415,11.5136,11.5817,11.6387,11.6876,11.7647,11.801,11.7962,11.7902,11.8142,11.8255,11.6941,11.5675,11.3298,11.1355,11.0751,10.9725,10.7946,10.6827,10.6427,10.5496,10.4533,10.425,10.3972,10.3313,10.2508,10.2248,11.92,12.0571,12.2222,12.2955,12.3321,12.4935,12.5635,12.5938,12.748,12.8114,12.8227,12.8164,12.8178,12.8336,12.8652,12.8874,12.9,12.9,12.9,12.8621,12.7515,12.7072,12.6409,12.5587,12.4923,12.4196,12.3312,12.198,12.0813,12.0815,12.1165,12.2333,12.3509,12.4879,12.6201,12.797,12.9371,12.9587,13.0313,13.0705,13.1062,13.124,13.1416,13.1943,13.2258,13.2809,13.3151,13.3219,13.3422,13.3388,13.3253,13.2847,13.2576,13.2339,13.1899,13.1358,13.0614,13.0242,12.9701,12.911,12.908,12.8747,12.7981,12.7682,12.7672,12.7234,12.6682,12.6199,12.5889,12.5613,12.5026,12.4619,12.4204,12.3479,12.2932,12.2345,12.0955,11.9729,11.9401,11.9173,11.81,11.6878,11.6281,11.589,11.5554,11.4918,11.4723,11.4986,11.5064,11.4659,11.471,11.5057,11.5492,11.6393,11.734,11.7388,11.7093,11.7058,11.6783,11.5116,11.3412,11.154,10.996,10.893,10.7637,10.6176,10.5332,10.4949,10.3905,10.2855,10.282,10.2643,10.1479,10.063,9.9487,12.0349,12.2522,12.3321,12.4087,12.525,12.6043,12.6528,12.6948,12.7907,12.8384,12.8764,12.8732,12.881,12.881,12.8874,12.9,12.9,12.9,12.9,12.8747,12.7515,12.7072,12.6303,12.5324,12.4243,12.355,12.2857,12.2201,12.1187,12.0876,12.1323,12.2393,12.3672,12.4912,12.6039,12.7905,12.9371,12.9769,13.0313,13.0884,13.0884,13.1062,13.124,13.1593,13.1735,13.2258,13.2674,13.2341,13.2477,13.2409,13.2272,13.1933,13.1663,13.1493,13.1054,13.0377,12.9633,12.9125,12.8644,12.8184,12.8216,12.8118,12.7483,12.6857,12.6604,12.5854,12.5233,12.4544,12.4302,12.4406,12.4066,12.3552,12.314,12.2068,12.1371,12.0499,11.9346,11.8449,11.7727,11.7209,11.644,11.5538,11.487,11.4608,11.4676,11.4161,11.3987,11.4161,11.3969,11.3725,11.3637,11.3976,11.4371,11.5035,11.6011,11.6173,11.5973,11.5883,11.5137,11.3336,11.1652,11.0255,10.8818,10.7515,10.6202,10.4803,10.4154,10.3352,10.2575,10.169,10.1702,10.1327,10.0038,9.8764,9.7634]}]]